     2              OBSERVATION DATA    GPS                 RINEX VERSION / TYPE
ASRINEXO V2.4.4 UX USGS 20-MAY-96 12:14                     PGM / RUN BY / DATE
                                                            COMMENT
Contact: kwendt@isdmnl.wr.usgs.gov (Ph: 415-329-4866)       COMMENT
Contact: kwendt@isdmnl.wr.usgs.gov (Ph: 415-329-4866)       COMMENT
Contact: kwendt@isdmnl.wr.usgs.gov (Ph: 415-329-4866)       COMMENT
Contact: kwendt@isdmnl.wr.usgs.gov (Ph: 415-329-4866)       COMMENT
Original Marker Name: wd42 Wild_1942_USC&GS                 COMMENT
Campaign Name: USGS Parkfield                               COMMENT
4-Character Station Name: WD42                              COMMENT
6-Character Antenna Code: ASHP12                            COMMENT
Vertical Measurement Point: EGP                             COMMENT
Vertical Offset to Rinex Ref. Point: 0.0593                 COMMENT
Radial Measurement Point: EGP                               COMMENT
Radial Offset to Rinex Ref. Point: 0.1425                   COMMENT
Antenna Height from Field Measurement: 1.2380 m             COMMENT
Additional Antenna Identification Info.:                    COMMENT
Ashtech L1/L2 Revision B (700228DE)                         COMMENT
Original XYZ: -2627080.5100 -4465472.7200 3706883.3800      COMMENT
New XYZ position is based on association with SCEC monument COMMENT
E1F1E4L0+0011. Position of that monument is believed to be  COMMENT
valid to within 1 m horizontally; vertical accuracy         COMMENT
should be no worse than 3-times this value.                 COMMENT
                                                            COMMENT
Revised Rinex header created by UCSD GPS archive for        COMMENT
GSAC on 08-Jul-2000 (2000:190) 02:11:16 GMT                 COMMENT
For assistance contact dagnew@ucsd.edu                      COMMENT
or anderson@python.ucsd.edu                                 COMMENT
                                                            COMMENT
WILD 1942                                                   MARKER NAME
CHS US GEOLOGICAL SURVEY                                    OBSERVER / AGENCY
582 ASHTECH Z-XII3 1F00                                     REC # / TYPE / VERS
1068 ASHTECH GEODETIC P                                     ANT # / TYPE
 -2627594.1769 -4466265.0755  3707255.3532                  APPROX POSITION XYZ
        1.1705        0.0000        0.0000                  ANTENNA: DELTA H/E/N
     1     1     0                                          WAVELENGTH FACT L1/2
     5    C1    L1    L2    P1    P2                        # / TYPES OF OBSERV
    30                                                      INTERVAL
  1996     5    13    16    12    0.000000                  TIME OF FIRST OBS
  1996     5    13    23    59   60.000000                  TIME OF LAST OBS
                                                            END OF HEADER
 96  5 13 16 12  0.0000000  0  4  2 27 19  7
  19690028.340      -23484.72519    -11266.43459                  19690035.2424
  18846986.731      -12596.44819
  20311649.123        4708.31419
  20653504.753      -37846.60519
 96  5 13 16 12 30.0000000  0  5  2 27 26 19  7
  19679443.194      -79111.02859    -54611.62849  19679444.7364   19679450.0484
  18838823.193      -55492.05759    -36004.52859  18838825.3164   18838830.3534
  22487575.882      -90756.18619
  20314335.815       18815.50359     11874.43759  20314338.5324   20314344.6324
  20628050.697     -171605.41359   -112299.37759  20628052.7064   20628059.1664
 96  5 13 16 13  0.0000000  0  4  2 27 19  7
  21167642.520     -135673.12549    -98685.98949  21167643.7164   21167649.0944
  20329486.589      -99108.82449    -69991.63749  20329487.6634   20329492.6654
  21815819.392       32063.80849     22197.76349  21815821.8894   21815828.2414
  22101399.594     -306213.39449   -217188.69649  22101399.4514   22101406.4064
 96  5 13 16 13 30.0000000  0  5  2 27 26 19  7
  21156702.558     -193161.24259   -143481.92459  21156704.0734   21156709.2754
  20321056.547     -143406.59259   -104509.39859  20321058.2504   20321063.4134
  23939404.157     -338438.63759   -238652.23759  23939407.6494   23939412.6264
  21818187.836       44512.66659     31898.13859  21818190.6004   21818197.0514
  22075625.793     -441656.02359   -322728.38559  22075626.5454   22075632.5234
 96  5 13 16 14  0.0000000  0  5  2 27 26 19  7
  21145607.492     -251470.81949   -188917.95949  21145608.0744   21145613.3874
  20312517.126     -188283.94649   -139478.77749  20312518.3654   20312523.0554
  23915634.780     -463355.41559   -335989.95659  23915636.6314   23915642.0834
  21820423.396       56256.30849     41048.99949  21820425.6924   21820432.0694
  22049719.694     -577790.59649   -428807.25149  22049720.8374   22049727.0364
 96  5 13 16 14 30.0000000  0  6  2 27 26 19  7 15
  21134356.446     -310597.04949   -234990.34249  21134357.0604   21134362.2324
  20303864.372     -233756.56049   -174911.98749  20303865.2574   20303870.1874
  23891740.324     -588927.22349   -433838.09649  23891742.1014   23891746.6284
  21822523.679       67292.44649     49648.56049  21822525.5504   21822531.8914
  22023686.968     -714594.61149   -535407.75749  22023687.4574   22023694.1974
  24448230.056     -303295.20459   -218303.39359  24448229.6444   24448238.7174
 96  5 13 16 15  0.0000000  0  6  2 27 26 19  7 15
  21122970.313     -370427.42749   -281611.41149  21122971.4064   21122976.7964
  20295117.189     -279722.95649   -210729.96349  20295118.1544   20295122.9194
  23867740.197     -715051.57849   -532116.79949  23867741.7334   23867746.6464
  21824507.590       77715.30849     57770.24349  21824509.2824   21824515.0884
  21997544.809     -851967.54049   -642451.56949  21997546.5374   21997553.2004
  24428100.766     -409087.14359   -300738.66059  24428099.4864   24428107.0094
 96  5 13 16 15 30.0000000  0  6  2 27 26 19  7 15
  21111465.433     -430888.55849   -328723.97349  21111466.1634   21111471.2764
  20286284.144     -326141.07349   -246899.92949  20286285.0254   20286289.8764
  23843644.101     -841672.49949   -630782.43349  23843645.8634   23843651.2404
  21826383.973       87575.27449     65453.31349  21826385.7404   21826391.8014
  21971306.007     -989859.04249   -749899.47049  21971306.3604   21971312.8254
  24407869.988     -515395.29249   -383576.16749  24407870.5984   24407876.7234
 96  5 13 16 16  0.0000000  0  6  2 27 26 19  7 15
  21099850.741     -491923.90449   -376283.98749  21099851.4514   21099856.6294
  20277368.006     -372996.06549   -283410.32449  20277369.0214   20277373.7934
  23819465.463     -968734.95049   -729792.11749  23819467.9874   23819471.1554
  21828157.751       96894.78649     72715.22649  21828159.0774   21828165.1974
  21944970.487    -1128250.12049   -857736.63749  21944971.2624   21944978.0114
  24387548.759     -622186.96849   -466790.45849  24387548.6934   24387555.6814
 96  5 13 16 16 30.0000000  0  6  2 27 26 19  7 15
  21088130.953     -553510.73549   -424273.72049  21088131.8234   21088137.1604
  20268374.334     -420258.83849   -320238.45549  20268375.2914   20268379.9554
  23795208.400    -1096209.98049   -829123.29649  23795209.2164   23795213.6734
  21829834.945      105703.61349     79579.21749  21829835.3154   21829841.4654
  21918544.506    -1267123.80049   -965949.85849  21918544.5834   21918551.0644
  24367142.065     -729431.06049   -550357.26549  24367140.8894   24367148.1954
 96  5 13 16 17  0.0000000  0  6  2 27 26 19  7 15
  21076305.985     -615654.28049   -472697.26149  21076306.6594   21076311.9964
  20259304.540     -467919.08949   -357376.32049  20259305.5354   20259310.6394
  23770869.210    -1224111.77749   -928787.02449  23770870.4014   23770875.3264
  21831414.293      114006.94749     86049.30949  21831415.4964   21831421.6514
  21892024.306    -1406482.67649  -1074541.16449  21892025.6174   21892032.1864
  24346645.560     -837125.18449   -634274.76149  24346647.7454   24346655.7304
 96  5 13 16 17 30.0000000  0  6  2 27 26 19  7 15
  21064379.944     -678325.50749   -521531.98549  21064380.7224   21064385.9704
  20250166.526     -515941.07049   -394796.06549  20250167.5664   20250172.4484
  23746456.031    -1352402.06849  -1028753.47749  23746457.5574   23746462.2714
  21832907.007      121849.70249     92160.52349  21832908.2874   21832914.1464
  21865424.484    -1546269.15649  -1183465.67749  21865425.6664   21865431.2074
  24326075.895     -945225.49349   -718508.79949  24326076.0704   24326083.2334
 96  5 13 16 18  0.0000000  0  6  2 27 26 19  7 15
  21052345.087     -741567.26649   -570811.27549  21052345.9914   21052351.4834
  20240955.433     -564345.51049   -432513.80849  20240956.3434   20240961.1174
  23721961.391    -1481120.38349  -1129053.43449  23721962.9194   23721968.3904
  21834306.429      129201.80249     97889.39549  21834306.9444   21834313.2194
  21838738.048    -1686505.60249  -1292740.80049  21838739.3524   21838745.5844
  24305422.581    -1053753.21149   -803075.83949  24305424.6644   24305430.0714
 96  5 13 16 18 30.0000000  0  6  2 27 26 19  7 15
  21040204.511     -805368.18249   -620526.28249  21040205.2704   21040210.4334
  20231680.939     -613084.08649   -470491.93349  20231681.9024   20231686.7494
  23697389.968    -1610248.51249  -1229672.76249  23697391.0604   23697395.8334
  21835619.851      136107.95249    103270.78449  21835621.4454   21835626.9624
  21811974.798    -1827150.45049  -1402334.16849  21811975.5234   21811981.2844
  24284697.748    -1162674.39749   -887949.50149  24284696.8944   24284705.2424
 96  5 13 16 19  0.0000000  0  6  2 27 26 19  7 15
  21027959.724     -869715.35949   -670666.93449  21027960.4384   21027965.5684
  20222346.427     -662137.69549   -508715.54149  20222347.6334   20222352.3364
  23672743.255    -1739765.93349  -1330595.38749  23672744.2894   23672749.5594
  21836852.019      142581.94649    108315.43249  21836853.6684   21836859.8284
  21785136.848    -1968180.65049  -1512227.78449  21785138.3184   21785144.3404
  24263895.752    -1271977.95749   -973121.08149  24263897.9414   24263905.6484
 96  5 13 16 19 30.0000000  0  6  2 27 26 19  7 15
  21015619.244     -934563.38949   -721197.87049  21015620.2764   21015625.3484
  20212961.853     -711453.47649   -547143.41349  20212962.8624   20212967.6694
  23648035.668    -1869607.11849  -1431770.31549  23648037.1324   23648042.1414
  21838011.329      148674.06849    113062.49449  21838012.6534   21838019.0014
  21758235.321    -2109552.54949  -1622387.67049  21758236.2214   21758242.0354
  24243031.407    -1381612.03549  -1058550.22549  24243034.0144   24243042.0854
 96  5 13 16 20  0.0000000  0  6  2 27 26 19  7 15
  21003195.533     -999853.01449   -772072.90349  21003196.1284   21003201.3504
  20203539.472     -760969.25549   -585727.14549  20203540.3714   20203545.1064
  23623279.113    -1999698.48449  -1533140.19649  23623280.6424   23623286.4684
  21839109.273      154439.71749    117555.16749  21839110.6684   21839115.8884
  21731277.167    -2251215.85049  -1732774.62349  21731278.7334   21731284.2924
  24222120.378    -1491513.78249  -1144187.91949  24222120.1174   24222128.9274
 96  5 13 16 20 30.0000000  0  6  2 27 26 19  7 15
  20990698.607    -1065526.83849   -823247.31449  20990698.8534   20990703.9884
  20194089.279     -810629.39549   -624423.37349  20194090.3684   20194095.1874
  23598490.794    -2129965.65249  -1634647.05249  23598492.5984   23598496.5084
  21840153.508      159932.49849    121835.22649  21840155.1534   21840160.8614
  21704278.441    -2393097.50949  -1843331.72849  21704279.3784   21704285.6394
  24201168.342    -1601621.83049  -1229986.38049  24201168.8094   24201174.7234
 96  5 13 16 21  0.0000000  0  6  2 27 26 19  7 15
  20978138.761    -1131526.70849   -874675.79249  20978139.5964   20978144.7244
  20184622.189     -860381.07649   -663190.93949  20184623.0874   20184627.6344
  23573677.311    -2260360.41149  -1736253.34249  23573679.4094   23573684.4334
  21841155.157      165191.80949    125933.34949  21841156.0074   21841161.7294
  21677246.213    -2535152.10449  -1954023.59449  21677246.9384   21677252.6214
  24180184.500    -1711881.08449  -1315902.61649  24180186.6244   24180195.1134
 96  5 13 16 21 30.0000000  0  6  2 27 26 19  7 15
  20965526.580    -1197805.53149   -926321.63249  20965527.1194   20965532.2554
  20175143.596     -910192.02649   -702004.66449  20175144.4154   20175149.0154
  23548847.281    -2390844.35649  -1837929.12449  23548848.1154   23548853.8944
  21842119.078      170258.48449    129881.37649  21842120.1884   21842126.2964
  21650187.530    -2677346.22649  -2064824.16849  21650188.6164   21650194.5304
  24159183.384    -1822247.89449  -1401902.68349  24159184.8954   24159191.9944
 96  5 13 16 22  0.0000000  0  6  2 27 26 19  7 15
  20952868.304    -1264324.96749   -978154.95949  20952868.9074   20952874.0604
  20165657.211     -960043.84049   -740850.24449  20165658.1044   20165662.8374
  23524003.626    -2521397.84549  -1939659.08349  23524006.2564   23524010.0224
  21843050.269      175153.54649    133695.67449  21843052.3144   21843057.9264
  21623108.582    -2819644.55549  -2175705.94749  21623110.2324   21623116.2154
  24138166.241    -1932690.83449  -1487962.07349  24138168.5304   24138173.5684
 96  5 13 16 22 29.9990000  0  6  2 27 26 19  7 15
  20940174.060    -1331034.30149  -1030136.26049  20940174.6054   20940179.8044
  20156169.179    -1009904.38749   -779702.62549  20156170.0094   20156174.4884
  23499151.635    -2651998.13849  -2041425.53649  23499152.1214   23499156.7904
  21843955.271      179908.76149    137401.00749  21843956.2084   21843962.3854
  21596015.931    -2962023.40849  -2286650.47549  21596016.1924   21596022.4754
  24117143.466    -2043174.40149  -1574053.10049  24117143.2554   24117151.7664
 96  5 13 16 22 59.9990000  0  6  2 27 26 19  7 15
  20927449.902    -1397901.26849  -1082240.38849  20927450.3514   20927455.5854
  20146683.388    -1059751.64649   -818544.65249  20146684.1914   20146689.0344
  23474294.552    -2782624.30949  -2143212.15549  23474295.9804   23474300.1414
  21844840.197      184556.31249    141022.43349  21844840.6514   21844846.5604
  21568906.513    -3104478.62049  -2397654.50449  21568907.7964   21568913.5464
  24096113.824    -2153679.08549  -1660160.59049  24096114.9754   24096123.3864
 96  5 13 16 23 29.9990000  0  6  2 27 26 19  7 15
  20914700.385    -1464901.01249  -1134447.98349  20914700.5854   20914705.7804
  20137202.469    -1109573.58149   -857366.95349  20137203.3414   20137208.3564
  23449439.906    -2913232.20749  -2244984.52149  23449442.3794   23449445.5234
  21845708.533      189123.69949    144581.40249  21845710.3304   21845715.9894
  21541790.618    -3246977.61749  -2508692.65449  21541791.2604   21541797.2874
  24075087.303    -2264177.60349  -1746263.26949  24075087.1584   24075095.2544
 96  5 13 16 23 59.9990000  0  6  2 27 26 19  7 15
  20901927.708    -1532017.70649  -1186746.70749  20901928.9854   20901933.9334
  20127734.615    -1159329.77349   -896138.01849  20127735.2784   20127739.9384
  23424594.788    -3043796.48549  -2346722.90849  23424596.4334   23424600.7614
  21846568.150      193632.89649    148095.02449  21846568.5614   21846574.4764
  21514671.283    -3389484.98849  -2619737.32649  21514672.8704   21514679.1034
  24054066.849    -2374639.14149  -1832337.13249  24054068.1374   24054074.8834
 96  5 13 16 24 29.9990000  0  6  2 27 26 19  7 15
  20889134.687    -1599246.20349  -1239132.55049  20889135.8544   20889140.7374
  20118284.543    -1208989.09749   -934833.60349  20118285.4784   20118290.1604
  23399762.258    -3174290.33749  -2448406.40749  23399763.4664   23399769.0064
  21847419.267      198108.05449    151582.12049  21847419.8804   21847426.4104
  21487558.858    -3531968.46949  -2730763.38749  21487559.4494   21487565.3824
  24033057.923    -2485041.87749  -1918365.18349  24033058.5214   24033066.0134
 96  5 13 16 24 59.9990000  0  6  2 27 26 19  7 15
  20876319.032    -1666596.93449  -1291613.63049  20876319.1944   20876324.1534
  20108855.604    -1258538.87149   -973443.82349  20108856.3694   20108861.1604
  23374948.888    -3304686.98349  -2550014.17049  23374950.2444   23374955.3744
  21848266.577      202563.77849    155054.07649  21848268.2104   21848273.5614
  21460456.466    -3674389.86049  -2841741.06249  21460457.6874   21460463.3254
  24012061.601    -2595369.53249  -2004334.71249  24012065.2534   24012071.9964
 96  5 13 16 25 29.9990000  0  6  2 27 26 19  7 15
  20863480.442    -1734064.00449  -1344185.37349  20863480.4454   20863485.4494
  20099451.957    -1307954.84549  -1011949.79249  20099452.9094   20099457.6744
  23350155.134    -3434978.70049  -2651540.16849  23350156.3554   23350161.2744
  21849114.374      207013.63449    158521.45449  21849114.8194   21849120.6714
  21433372.894    -3816712.00249  -2952641.40649  21433374.7394   21433380.1974
  23991086.659    -2705596.49549  -2090225.79049  23991088.3084   23991096.7324
 96  5 13 16 25 59.9990000  0  6  2 27 26 19  7 15
  20850620.348    -1801641.14849  -1396842.89049  20850621.0994   20850626.3454
  20090078.621    -1357212.10649  -1050332.08349  20090079.3604   20090084.3124
  23325381.488    -3565164.00449  -2752983.25149  23325382.3834   23325387.7194
  21849962.050      211471.99249    161995.46949  21849963.7234   21849969.7514
  21406313.321    -3958917.20749  -3063450.62449  21406313.7434   21406319.3854
  23970135.719    -2815705.50049  -2176024.95649  23970136.8634   23970143.7394
 96  5 13 16 26 29.9990000  0  6  2 27 26 19  7 15
  20837744.848    -1869304.64949  -1449567.69849  20837745.1784   20837750.1954
  20080736.603    -1406305.21949  -1088586.47449  20080737.4914   20080742.2934
  23300634.488    -3695215.00249  -2854321.67849  23300634.9924   23300639.6064
  21850816.517      215962.74349    165494.72049  21850817.7294   21850824.5594
  21379275.191    -4100998.88749  -3174163.59049  21379276.2934   21379282.5604
  23949207.219    -2925678.19149  -2261717.89949  23949209.3194   23949216.3224
 96  5 13 16 26 59.9990000  0  6  2 27 26 19  7 15
  20824855.228    -1937039.79649  -1502348.33749  20824855.6784   20824860.7714
  20071428.545    -1455220.14349  -1126702.01349  20071429.2494   20071434.0064
  23275914.698    -3825116.38849  -2955543.53349  23275915.2514   23275920.0494
  21851681.138      220501.57649    169031.42449  21851681.5004   21851688.1964
  21352262.450    -4242955.04349  -3284778.75149  21352263.2014   21352269.0704
  23928309.185    -3035497.71149  -2347291.48749  23928310.8724   23928317.7814
 96  5 13 16 27 29.9990000  0  6  2 27 26 19  7 15
  20811957.126    -2004818.18549  -1555162.66949  20811958.0844   20811963.0504
  20062157.807    -1503938.08949  -1164664.05549  20062158.6204   20062163.4704
  23251225.715    -3954854.08149  -3056637.83449  23251227.0674   23251231.9504
  21852556.526      225108.67949    172621.32949  21852558.9574   21852564.2954
  21325273.148    -4384785.17349  -3395295.71149  21325273.6704   21325279.4874
  23907443.661    -3145143.84549  -2432729.97649  23907444.8274   23907452.8354
 96  5 13 16 27 59.9990000  0  6  2 27 26 19  7 15
  20799056.026    -2072616.53349  -1607992.55149  20799056.3454   20799061.2684
  20052924.278    -1552460.21349  -1202473.50549  20052925.1234   20052929.9434
  23226573.830    -4084403.94549  -3157585.76849  23226575.4234   23226579.4494
  21853451.377      229804.99649    176280.75849  21853452.0464   21853458.0294
  21298305.944    -4526493.71749  -3505717.92749  21298307.6164   21298313.4944
  23886616.953    -3254607.66449  -2518026.40449  23886615.6654   23886623.6764
 96  5 13 16 28 29.9990000  0  6  2 27 26 19  7 15
  20786153.577    -2140419.80349  -1660826.26949  20786153.8974   20786158.9664
  20043727.945    -1600788.65849  -1240132.04649  20043728.6724   20043733.3674
  23201958.373    -4213755.40649  -3258379.10149  23201960.5604   23201965.1994
  21854360.991      234591.96149    180010.81949  21854362.9574   21854369.2814
  21271367.006    -4668066.30549  -3616034.19749  21271367.1034   21271372.9764
  23865821.778    -3363878.37449  -2603172.36249  23865821.6084   23865829.1934
 96  5 13 16 28 59.9990000  0  6  2 27 26 19  7 15
  20773248.294    -2208234.26049  -1713668.70249  20773249.1424   20773254.1684
  20034569.384    -1648916.94149  -1277634.62049  20034570.2154   20034574.7164
  23177380.890    -4342912.07549  -3359020.64949  23177381.3994   23177387.3024
  21855290.661      239465.90049    183808.65449  21855291.3194   21855296.7094
  21244457.191    -4809474.65449  -3726222.49849  21244457.8974   21244463.5174
  23845065.242    -3472949.03649  -2688162.43749  23845065.8794   23845073.7754
 96  5 13 16 29 29.9990000  0  6  2 27 26 19  7 15
  20760344.123    -2276049.44749  -1766511.70749  20760344.1854   20760349.3294
  20025448.602    -1696847.12849  -1314982.82749  20025449.4264   20025453.8704
  23152841.039    -4471870.84349  -3459508.00249  23152843.0324   23152846.9944
  21856233.294      244421.94549    187670.47649  21856234.3324   21856239.5694
  21217580.339    -4950710.54449  -3836276.41049  21217581.3514   21217587.4394
  23824351.891    -3581811.65849  -2772990.41049  23824350.3494   23824357.6224
 96  5 13 16 29 59.9990000  0  6  2 27 26 19  7 15
  20747439.519    -2343861.95949  -1819352.62649  20747439.9154   20747445.1764
  20016369.789    -1744557.79449  -1352159.97949  20016370.3874   20016375.0694
  23128339.414    -4600627.99349  -3559838.23449  23128340.8844   23128345.5454
  21857191.137      249455.51649    191592.70349  21857191.6214   21857197.8754
  21190741.200    -5091753.23749  -3946179.77749  21190742.0504   21190747.7174
  23803677.132    -3690454.81949  -2857647.38349  23803676.2564   23803683.8394
 96  5 13 16 30 29.9990000  0  6  2 27 26 19  7 15
  20734530.675    -2411698.14749  -1872212.00149  20734531.2624   20734536.3714
  20007336.011    -1792027.72249  -1389149.55449  20007337.1394   20007341.5884
  23103874.491    -4729191.28049  -3660017.42249  23103876.3624   23103880.9844
  21858159.460      254541.14549    195555.49049  21858159.3994   21858165.9894
  21163938.161    -5232604.64749  -4055934.09549  21163938.7714   21163944.8174
  23783043.512    -3798881.52349  -2942135.69149  23783044.2604   23783051.5564
 96  5 13 16 30 59.9990000  0  6  2 27 26 19  7 15
  20721620.224    -2479543.37649  -1925078.41749  20721620.8054   20721625.8884
  19998354.423    -1839225.80849  -1425927.28649  19998355.5504   19998360.1304
  23079451.594    -4857538.61149  -3760028.33149  23079452.1904   23079457.9244
  21859138.601      259693.59449    199570.35149  21859140.0524   21859146.3694
  21137173.435    -5373255.15249  -4165531.86249  21137173.7594   21137179.9074
  23762454.380    -3907073.89049  -3026441.39149  23762454.6434   23762462.8184
 96  5 13 16 31 29.9990000  0  6  2 27 26 19  7 15
  20708713.224    -2547370.30349  -1977930.57049  20708713.8364   20708718.9594
  19989428.137    -1886135.76749  -1462480.51349  19989429.2444   19989433.7334
  23055071.440    -4985653.85049  -3859858.40349  23055072.9334   23055077.3354
  21860135.927      264932.71349    203652.73449  21860136.8124   21860143.0504
  21110444.656    -5513712.34649  -4274979.00249  21110445.8734   21110451.5214
  23741914.012    -4015019.61149  -3110554.90749  23741913.8614   23741921.2064
 96  5 13 16 31 59.9990000  0  6  2 27 26 19  7 15
  20695810.730    -2615172.85549  -2030763.72749  20695811.5524   20695816.5834
  19980558.675    -1932744.83649  -1498799.28549  19980559.7054   19980564.3934
  23030740.774    -5113517.10249  -3959492.10149  23030740.8934   23030747.1514
  21861151.962      270272.47149    207813.54649  21861153.6724   21861159.2544
  21083756.123    -5653963.68049  -4384265.72649  21083756.7034   21083762.3634
  23721420.876    -4122710.32949  -3194469.72049  23721421.9534   23721428.2784
 96  5 13 16 32 29.9990000  0  6  2 27 26 19  7 15
  20682915.660    -2682938.40949  -2083568.05349  20682916.2354   20682921.2664
  19971744.415    -1979063.80249  -1534892.00249  19971745.4424   19971750.2684
  23006463.224    -5241095.91049  -4058904.16549  23006464.5194   23006469.7004
  21862194.191      275738.74549    212072.94149  21862193.6934   21862199.9354
  21057109.217    -5793994.00949  -4493380.24049  21057110.1854   21057115.8974
  23700977.639    -4230131.18549  -3278174.25049  23700979.9704   23700986.4504
 96  5 13 16 32 59.9990000  0  6  2 27 26 19  7 15
  20670027.905    -2750663.86049  -2136341.12949  20670028.6134   20670033.4684
  19962977.426    -2025134.75049  -1570791.45749  19962978.3304   19962983.0814
  22982238.870    -5368392.11749  -4158096.00849  22982239.3174   22982245.2194
  21863259.964      281345.30149    216441.64149  21863260.6294   21863266.8094
  21030502.802    -5933807.56649  -4602325.85049  21030504.3524   21030510.0124
  23680585.902    -4337289.67149  -3361674.35149  23680587.9714   23680595.0054
 96  5 13 16 33 29.9990000  0  6  2 27 26 19  7 15
  20657148.544    -2818345.37649  -2189079.97449  20657149.1094   20657154.2104
  19954258.106    -2070954.34949  -1606495.05349  19954259.4104   19954264.1504
  22958073.837    -5495379.58749  -4257047.28149  22958075.1094   22958079.9834
  21864355.093      287104.83749    220929.53549  21864357.1624   21864363.4674
  21003940.767    -6073395.51549  -4711095.65749  21003941.9294   21003947.5304
  23660249.627    -4444170.97349  -3444958.45649  23660249.6124   23660255.4804
 96  5 13 16 33 59.9990000  0  6  2 27 26 19  7 15
  20644276.174    -2885989.38649  -2241789.59349  20644276.9374   20644281.9014
  19945587.571    -2116519.16649  -1642000.11749  19945588.5604   19945593.2044
  22933967.982    -5622054.14149  -4355754.71449  22933970.5854   22933974.9424
  21865479.678      293009.57149    225530.57349  21865479.8604   21865486.4664
  20977424.534    -6212740.63449  -4819676.25149  20977425.1794   20977431.0314
  23639962.962    -4550766.72049  -3528020.05549  23639965.3034   23639971.0174
 96  5 13 16 34 29.9980000  0  6  2 27 26 19  7 15
  20631416.536    -2953567.74149  -2294448.05049  20631417.1554   20631422.0314
  19936970.368    -2161802.98249  -1677286.22049  19936971.4034   19936976.2134
  22909924.772    -5748404.64449  -4454209.65849  22909925.9504   22909932.4054
  21866633.454      299077.75549    230258.98549  21866634.8834   21866641.4074
  20950959.163    -6351814.16749  -4928045.21249  20950960.5084   20950966.3304
  23619739.140    -4657050.51949  -3610838.57449  23619739.2984   23619747.0774
 96  5 13 16 34 59.9980000  0  6  2 27 26 19  7 15
  20618567.591    -3021091.13349  -2347063.68349  20618567.8084   20618572.7284
  19928409.672    -2206790.91349  -1712341.77549  19928410.6624   19928415.3334
  22885936.112    -5874469.47449  -4552441.98749  22885937.7904   22885942.5314
  21867815.724      305286.73049    235097.09849  21867816.4604   21867823.2234
  20924541.690    -6490637.78349  -5036219.43649  20924542.9134   20924548.9634
  23599572.200    -4763036.79349  -3693425.26649  23599571.4674   23599577.5284
 96  5 13 16 35 29.9980000  0  6  2 27 26 19  7 15
  20605731.616    -3088541.57949  -2399622.47949  20605732.3904   20605737.3894
  19919911.862    -2251446.55049  -1747138.40649  19919912.7874   19919917.7644
  22862001.245    -6000244.81449  -4650448.73649  22862002.6914   22862008.0634
  21869024.073      311634.20349    240043.12249  21869025.1234   21869030.6334
  20898176.816    -6629187.58649  -5144180.30249  20898177.9414   20898183.9514
  23579459.235    -4868708.23849  -3775766.61849  23579462.3084   23579469.3774
 96  5 13 16 35 59.9980000  0  6  2 27 26 19  7 15
  20592913.456    -3155903.34149  -2452112.16449  20592913.9214   20592918.8794
  19911478.747    -2295762.01949  -1781669.97149  19911479.9154   19911484.8804
  22838120.174    -6125740.00049  -4748237.18549  22838122.1524   22838127.0564
  21870259.001      318129.73249    245104.51449  21870260.5424   21870267.3554
  20871869.229    -6767436.84649  -5251906.97349  20871870.2864   20871875.7364
  23559414.467    -4974055.41749  -3857855.30849  23559415.0354   23559421.9104
 96  5 13 16 36 29.9980000  0  6  2 27 26 19  7 15
  20580110.637    -3223183.42849  -2504538.20849  20580110.9304   20580115.9244
  19903110.291    -2339739.61849  -1815938.25249  19903111.3334   19903116.4334
  22814295.078    -6250938.24549  -4845794.25449  22814297.2174   22814302.4144
  21871524.540      324783.28849    250289.04149  21871526.9864   21871533.1604
  20845616.533    -6905393.44549  -5359405.60549  20845617.6954   20845623.2404
  23539426.061    -5079079.80749  -3939692.45649  23539429.4254   23539437.6594
 96  5 13 16 36 59.9980000  0  6  2 27 26 19  7 15
  20567324.125    -3290375.64849  -2556895.78849  20567324.8464   20567329.9994
  19894807.269    -2383372.64549  -1849938.01949  19894808.2584   19894813.2444
  22790534.705    -6375803.08649  -4943091.51249  22790536.4394   22790541.0084
  21872828.733      331623.86749    255619.31049  21872828.5744   21872835.4594
  20819424.605    -7043032.86349  -5466657.07849  20819425.5314   20819431.3384
  23519508.170    -5183759.68749  -4021261.15449  23519510.2504   23519518.0224
 96  5 13 16 37 29.9980000  0  6  2 27 26 19  7 15
  20554552.378    -3357494.78149  -2609196.41449  20554552.4764   20554557.5094
  19886563.714    -2426690.38749  -1883692.12149  19886565.1314   19886570.1224
  22766838.224    -6500325.94149  -5040122.30149  22766840.7374   22766845.9404
  21874162.891      338644.11849    261089.59549  21874165.0674   21874170.4804
  20793292.668    -7180358.33249  -5573663.91749  20793293.4274   20793299.5004
  23499655.470    -5288101.28849  -4102566.26849  23499653.1314   23499661.1374
 96  5 13 16 37 59.9980000  0  6  2 27 26 19  7 15
  20541791.294    -3424550.26649  -2661447.44749  20541792.1894   20541797.2444
  19878377.931    -2469707.22849  -1917211.75649  19878379.4284   19878384.0814
  22743208.747    -6624505.80449  -5136885.82349  22743210.2964   22743215.2844
  21875530.333      345826.54149    266686.24149  21875530.9154   21875537.7534
  20767216.584    -7317387.41449  -5680439.80549  20767218.1654   20767223.3194
  23479862.053    -5392107.73349  -4183610.21549  23479862.4894   23479870.3474
 96  5 13 16 38 29.9980000  0  6  2 27 26 19  7 15
  20529043.992    -3491539.41949  -2713646.79549  20529044.6344   20529049.6414
  19870252.823    -2512406.82549  -1950484.18149  19870254.0824   19870258.8624
  22719641.857    -6748348.40049  -5233386.54149  22719644.5484   22719648.3104
  21876927.976      353175.27449    272412.47049  21876930.2264   21876936.3424
  20741194.881    -7454131.16349  -5786993.35849  20741196.4854   20741202.5474
  23460133.304    -5495773.87549  -4264388.99849  23460135.6874   23460142.8664
 96  5 13 16 38 59.9980000  0  6  2 27 26 19  7 15
  20516314.831    -3558432.94149  -2765771.62449  20516315.1964   20516320.1624
  19862191.948    -2554768.25549  -1983493.10049  19862192.8794   19862197.7834
  22696137.527    -6871866.29449  -5329634.24649  22696138.6064   22696143.7244
  21878359.458      360690.44349    278268.39649  21878360.3474   21878366.5264
  20715232.086    -7590569.38949  -5893308.83649  20715233.0474   20715239.0594
  23440476.938    -5599080.40749  -4344887.55849  23440477.3264   23440483.6754
 96  5 13 16 39 29.9980000  0  6  2 27 26 19  7 15
  20503608.218    -3625204.36249  -2817801.30749  20503609.1514   20503614.2464
  19854201.551    -2596756.49849  -2016211.22149  19854202.7774   19854207.7464
  22672696.148    -6995052.52349  -5425623.50449  22672697.2394   22672702.1054
  21879820.561      368371.22549    284253.37249  21879821.8504   21879828.1924
  20689327.250    -7726695.28249  -5999380.94549  20689329.0994   20689335.2254
  23420887.185    -5702007.62849  -4425090.54849  23420890.3514   23420897.8014
 96  5 13 16 39 59.9980000  0  6  2 27 26 19  7 15
  20490924.546    -3691858.84549  -2869739.87449  20490925.1904   20490930.2174
  19846284.279    -2638362.43349  -2048631.44849  19846285.4534   19846290.2394
  22649317.458    -7117905.45149  -5521353.05449  22649319.2594   22649323.4024
  21881315.039      376230.09149    290377.11549  21881317.4774   21881323.3814
  20663482.854    -7862515.04749  -6105214.51349  20663483.2274   20663489.3554
  23401373.673    -5804557.24649  -4504999.31549  23401376.1234   23401382.8384
 96  5 13 16 40 29.9980000  0  6  2 27 26 19  7 15
  20478256.311    -3758429.60049  -2921613.19549  20478257.1864   20478262.2334
  19838434.883    -2679610.70849  -2080772.97849  19838435.8844   19838440.8584
  22626002.202    -7240428.63549  -5616825.66149  22626003.8374   22626008.0904
  21882846.526      384272.01849    296643.50449  21882847.3554   21882853.4024
  20637691.598    -7998044.16749  -6210821.59949  20637693.1364   20637698.8284
  23381931.242    -5906745.34949  -4584626.38349  23381930.6634   23381937.4944
 96  5 13 16 40 59.9980000  0  6  2 27 26 19  7 15
  20465606.604    -3824906.07749  -2973413.05349  20465607.1804   20465612.0464
  19830654.242    -2720499.97449  -2112634.76349  19830655.1824   19830660.1974
  22602760.570    -7362560.32649  -5711993.21349  22602763.4924   22602767.7114
  21884416.113      392519.48549    303070.05549  21884417.5724   21884423.3394
  20611963.068    -8133251.30949  -6316177.79649  20611963.9774   20611969.9194
  23362559.961    -6008544.04349  -4663950.01749  23362559.0014   23362565.4274
 96  5 13 16 41 29.9980000  0  6  2 27 26 19  7 15
  20452966.913    -3891327.98249  -3025170.38849  20452967.6824   20452972.6194
  19822937.373    -2761050.75049  -2144232.78049  19822938.8814   19822943.6504
  22579596.740    -7484293.91649  -5806850.55649  22579598.1934   22579602.4854
  21886021.284      400959.04449    309646.27949  21886022.9124   21886028.7164
  20586291.405    -8268154.01149  -6421296.76649  20586293.1824   20586298.4514
  23343253.812    -6109972.61049  -4742985.22949  23343257.0174   23343264.1664
 96  5 13 16 41 59.9980000  0  6  2 27 26 19  7 15
  20440340.206    -3957683.00149  -3076875.60449  20440340.7414   20440345.6324
  19815285.819    -2801259.51149  -2175564.29749  19815287.3084   19815292.0604
  22556511.778    -7605605.63049  -5901379.15849  22556513.2974   22556518.0354
  21887668.253      409611.77149    316388.60849  21887670.0094   21887676.5074
  20560683.721    -8402724.58849  -6526156.94249  20560685.2044   20560690.8234
  23324029.051    -6211011.22349  -4821716.59949  23324030.2734   23324037.6784
 96  5 13 16 42 29.9980000  0  6  2 27 26 19  7 15
  20427728.563    -4023955.12949  -3128516.22949  20427729.3614   20427734.2784
  19807702.503    -2841112.21749  -2206618.37049  19807703.5874   19807708.3514
  22533508.152    -7726490.08449  -5995574.83649  22533509.3724   22533513.9824
  21889353.786      418462.04249    323284.87349  21889354.0674   21889359.6504
  20535143.061    -8536941.37549  -6630741.43149  20535144.4254   20535150.3594
  23304877.903    -6311645.95449  -4900133.23549  23304880.1784   23304887.2184
 96  5 13 16 42 59.9980000  0  6  2 27 26 19  7 15
  20415131.884    -4090151.10149  -3180097.51049  20415132.7924   20415137.9244
  19800185.292    -2880613.49049  -2237398.59849  19800186.4974   19800191.5204
  22510579.994    -7846978.51249  -6089461.92949  22510581.8954   22510586.5274
  21891065.177      427466.06849    330300.95349  21891067.0544   21891073.9814
  20509668.689    -8670810.53749  -6735055.04349  20509669.9164   20509675.8644
  23285805.730    -6411894.85049  -4978249.23049  23285804.1084   23285810.1654
 96  5 13 16 43 29.9980000  0  6  2 27 26 19  7 15
  20402553.168    -4156256.39849  -3231608.13749  20402553.5394   20402558.4454
  19792736.323    -2919758.04449  -2267900.85349  19792737.3484   19792742.6964
  22487722.496    -7967092.31449  -6183057.11149  22487724.2644   22487728.9594
  21892807.915      436621.40249    337434.92549  21892809.8434   21892816.2894
  20484260.061    -8804333.92049  -6839099.21949  20484261.1474   20484267.0564
  23266798.321    -6511758.69449  -5056065.17949  23266799.7254   23266806.5794
 96  5 13 16 43 59.9980000  0  6  2 27 26 19  7 15
  20389991.923    -4222261.12049  -3283040.39749  20389993.2444   20389998.2194
  19785353.752    -2958553.61249  -2298131.16649  19785354.9614   19785360.3504
  22464934.359    -8086845.55149  -6276371.32149  22464936.3124   22464941.3014
  21894579.098      445924.66149    344684.17449  21894580.0834   21894586.2494
  20458917.159    -8937514.76549  -6942876.48449  20458917.9804   20458923.5074
  23247868.807    -6611237.43649  -5133581.04449  23247869.9464   23247876.1564
 96  5 13 16 44 29.9980000  0  6  2 27 26 19  7 15
  20377453.952    -4288154.27149  -3334385.72049  20377454.1124   20377459.1994
  19778041.009    -2996981.48749  -2328074.97349  19778042.4264   19778047.5064
  22442218.098    -8206223.61449  -6369393.21149  22442218.8964   22442224.1804
  21896382.751      455400.13349    352067.61049  21896383.3124   21896389.9574
  20433640.933    -9070340.47249  -7046377.01549  20433642.2714   20433647.5064
  23229014.904    -6710312.66449  -5210782.47549  23229016.1944   23229023.3744
 96  5 13 16 44 59.9980000  0  6  2 27 26 19  7 15
  20364931.472    -4353955.22249  -3385659.19549  20364932.6844   20364937.7824
  19770793.819    -3035066.93749  -2357751.97149  19770795.2634   19770800.1644
  22419567.122    -8325250.84949  -6462141.71149  22419569.1924   22419574.0414
  21898218.367      465054.21449    359590.20749  21898220.4344   21898226.2594
  20408426.973    -9202837.71249  -7149621.59849  20408428.5104   20408434.1584
  23210235.436    -6808999.71749  -5287681.43049  23210236.4124   23210244.0494
 96  5 13 16 45 29.9980000  0  6  2 27 26 19  7 15
  20352429.340    -4419656.97949  -3436855.37449  20352429.9614   20352434.9964
  19763613.768    -3072801.88549  -2387155.83449  19763614.5024   19763619.4664
  22396988.490    -8443907.82849  -6554601.69849  22396989.4174   22396993.7084
  21900094.826      474905.09649    367266.16549  21900094.5834   21900101.3144
  20383279.111    -9334993.15049  -7252599.84449  20383280.1304   20383285.6774
  23191532.033    -6907282.26149  -5364265.17449  23191534.0164   23191540.8174
 96  5 13 16 45 59.9980000  0  6  2 27 26 19  7 15
  20339942.399    -4485276.38749  -3487987.39049  20339943.2124   20339948.0424
  19756499.324    -3110185.48349  -2416285.91649  19756500.6984   19756505.6104
  22374477.171    -8562202.15449  -6646779.10549  22374478.9104   22374483.4184
  21902004.534      484944.76049    375089.21349  21902005.7724   21902012.3154
  20358195.742    -9466808.32249  -7355312.94549  20358196.4594   20358202.0734
  23172909.361    -7005163.29949  -5440536.07249  23172907.0474   23172915.6044
 96  5 13 16 46 29.9970000  0  6  2 27 26 19  7 15
  20327471.451    -4550808.75649  -3539051.58349  20327472.7134   20327477.8234
  19749453.810    -3147209.54749  -2445135.85449  19749455.3394   19749459.9154
  22352038.062    -8680118.85449  -6738662.25149  22352039.4774   22352044.7524
  21903951.633      495179.34549    383064.16149  21903953.2364   21903959.2224
  20333178.044    -9598271.33649  -7457751.64449  20333179.7624   20333185.4564
  23154357.543    -7102631.46849  -5516485.23649  23154360.2434   23154367.9814
 96  5 13 16 46 59.9970000  0  6  2 27 26 19  7 15
  20315021.073    -4616238.95849  -3590036.16149  20315021.8344   20315026.8864
  19742477.083    -3183873.74349  -2473705.39649  19742478.3764   19742483.2344
  22329671.848    -8797657.18649  -6830250.56549  22329673.6824   22329678.0534
  21905937.426      505609.43749    391191.45149  21905938.5124   21905944.4344
  20308229.458    -9729380.45049  -7559914.56749  20308230.5764   20308236.3214
  23135889.610    -7199688.25349  -5592113.84049  23135890.2074   23135897.7604
 96  5 13 16 47 29.9970000  0  6  2 27 26 19  7 15
  20302591.395    -4681556.79449  -3640933.18949  20302592.1704   20302597.1334
  19735569.101    -3220175.07349  -2501992.16549  19735570.6024   19735575.5114
  22307381.986    -8914792.82349  -6921525.09849  22307383.0544   22307388.0324
  21907957.117      516230.84449    399467.82549  21907958.4464   21907965.7074
  20283347.843    -9860132.12049  -7661798.96349  20283349.4944   20283354.9894
  23117500.244    -7296326.64349  -5667416.43049  23117501.9734   23117508.2664
 96  5 13 16 47 59.9970000  0  6  2 27 26 19  7 15
  20290183.990    -4746758.92349  -3691740.04849  20290184.7244   20290189.6134
  19728730.602    -3256111.22849  -2529994.37349  19728732.0094   19728737.0344
  22285166.374    -9031532.24249  -7012490.87349  22285168.1654   22285173.1124
  21910016.768      527047.35949    407896.21949  21910017.6704   21910023.7274
  20258531.902    -9990541.72449  -7763416.81049  20258533.2994   20258538.9544
  23099190.708    -7392552.65149  -5742397.68749  23099190.3014   23099196.6854
 96  5 13 16 48 29.9970000  0  6  2 27 26 19  7 15
  20277794.465    -4811865.57549  -3742472.51649  20277795.3014   20277800.3384
  19721957.576    -3291705.77249  -2557730.39149  19721958.8104   19721963.4904
  22263022.909    -9147898.82249  -7103166.13749  22263024.6524   22263029.1824
  21912105.000      538028.36749    416452.78549  21912107.1444   21912113.4264
  20233775.082   -10120642.11949  -7864793.72049  20233775.9944   20233781.6284
  23080951.738    -7488396.90849  -5817081.46849  23080952.3004   23080958.4204
 96  5 13 16 48 59.9970000  0  6  2 27 26 19  7 15
  20265414.095    -4876926.22349  -3793169.12949  20265414.8834   20265419.7324
  19715241.802    -3326996.48849  -2585229.64949  19715243.1524   19715247.9784
  22240942.848    -9263927.23849  -7193577.89249  22240944.5384   22240949.7774
  21914217.342      549124.69649    425099.22649  21914219.2894   21914225.2264
  20209068.570   -10250473.86149  -7965961.28649  20209070.1344   20209075.9374
  23062775.561    -7583903.84349  -5891502.40049  23062777.0894   23062783.1384
 96  5 13 16 49 29.9970000  0  6  2 27 26 19  7 15
  20253049.771    -4941900.91349  -3843798.76849  20253050.7734   20253055.6984
  19708597.191    -3361914.99349  -2612438.88549  19708598.4044   19708603.3414
  22218940.652    -9379553.95049  -7283676.63649  22218941.5984   22218946.1014
  21916359.431      560385.89449    433874.12949  21916362.0004   21916368.0364
  20184425.075   -10379974.19649  -8066870.62149  20184426.8234   20184432.7014
  23044678.717    -7679013.72549  -5965613.95449  23044678.8034   23044684.7834
 96  5 13 16 49 59.9970000  0  6  2 27 26 19  7 15
  20240699.218    -5006802.94649  -3894371.78649  20240699.9834   20240704.8104
  19702022.899    -3396461.03049  -2639357.89349  19702024.5534   19702029.3144
  22197010.777    -9494797.96149  -7373477.16449  22197012.2124   22197016.9934
  21918532.992      571796.39549    442765.36549  21918533.2564   21918539.9384
  20159848.372   -10509130.08049  -8167511.55249  20159849.2624   20159854.9534
  23026652.572    -7773730.60349  -6039419.26549  23026653.8764   23026661.5874
 96  5 13 16 50 29.9970000  0  6  2 27 26 19  7 15
  20228362.158    -5071633.23549  -3944888.89749  20228363.3254   20228368.1414
  19695520.407    -3430634.67749  -2665986.74049  19695521.3914   19695526.4764
  22175155.242    -9609646.35549  -7462969.42449  22175157.3984   22175162.1744
  21920728.771      583348.92549    451767.28749  21920731.0424   21920738.7144
  20135337.881   -10637928.60249  -8267874.01549  20135339.7034   20135345.4344
  23008705.202    -7868040.49049  -6112907.45149  23008708.6354   23008714.0484
 96  5 13 16 50 59.9970000  0  6  2 27 26 19  7 15
  20216038.599    -5136395.56649  -3995353.05649  20216039.6404   20216044.4404
  19689087.011    -3464442.41149  -2692330.44749  19689088.1454   19689093.1274
  22153376.831    -9724095.22649  -7552150.35749  22153378.2144   22153382.9974
  21922957.004      595048.97349    460884.15249  21922958.4794   21922964.3894
  20110897.972   -10766365.43949  -8367954.65049  20110899.0864   20110904.8044
  22990839.716    -7961934.18049  -6186071.32349  22990840.9384   22990846.5854
 96  5 13 16 51 29.9970000  0  6  2 27 26 19  7 15
  20203729.163    -5201082.99849  -4045758.85449  20203729.8294   20203734.9144
  19682724.118    -3497881.93249  -2718387.24849  19682724.7124   19682729.7114
  22131670.821    -9838159.90449  -7641031.92549  22131672.0944   22131676.7204
  21925211.574      606894.55149    470114.42049  21925212.4634   21925219.1274
  20086527.324   -10894433.66849  -8467748.05349  20086528.4464   20086534.1114
  22973048.098    -8055403.59849  -6258904.59249  22973053.7454   22973059.8824
 96  5 13 16 51 59.9970000  0  6  2 27 26 19  7 15
  20191436.412    -5265681.13749  -4096095.07649  20191437.3544   20191442.3474
  19676431.838    -3530944.97049  -2744150.67849  19676433.0764   19676438.0254
  22110038.270    -9951837.85549  -7729612.15049  22110039.1694   22110044.8494
  21927494.360      618899.67949    479468.99749  21927497.8904   21927503.5254
  20062227.383   -11022128.87549  -8567250.79549  20062228.9514   20062234.6294
  22955348.781    -8148434.16849  -6331395.91049  22955350.4294   22955357.6384
 96  5 13 16 52 29.9970000  0  6  2 27 26 19  7 15
  20179161.301    -5330189.49849  -4146361.33449  20179161.7374   20179166.6934
  19670208.714    -3563645.79749  -2769631.86049  19670210.5664   19670215.4534
  22088479.181   -10065126.31549  -7817888.87249  22088482.3344   22088486.6364
  21929811.902      631069.58749    488951.98149  21929812.9914   21929819.9494
  20037997.901   -11149456.55349  -8666467.14449  20037999.3864   20038005.0204
  22937728.491    -8241028.32849  -6403547.16649  22937730.8744   22937736.6254
 96  5 13 16 52 59.9970000  0  6  2 27 26 19  7 15
  20166902.496    -5394607.32649  -4196557.05049  20166903.4724   20166908.3544
  19664055.267    -3595982.54949  -2794829.32949  19664056.7404   19664061.8954
  22066996.647   -10178021.71449  -7905859.31149  22066998.8574   22067003.6124
  21932163.713      643429.83449    498583.27449  21932164.5494   21932171.1484
  20013842.164   -11276395.71549  -8765380.75649  20013843.5554   20013849.0484
  22920192.974    -8333182.20449  -6475355.36949  22920194.1694   22920200.9954
 96  5 13 16 53 29.9970000  0  6  2 27 26 19  7 15
  20154661.194    -5458932.18849  -4246680.32349  20154662.9104   20154667.7554
  19657971.649    -3627952.07249  -2819740.65249  19657973.1714   19657978.2204
  22045592.766   -10290502.47949  -7993506.65649  22045594.4814   22045599.0434
  21934553.367      655989.93449    508370.29949  21934555.5024   21934560.6924
  19989761.543   -11402938.99249  -8863985.88849  19989763.1274   19989768.7284
  22902740.877    -8424889.28849  -6546815.40649  22902742.4784   22902749.2184
 96  5 13 16 53 59.9970000  0  6  2 27 26 19  7 15
  20142439.834    -5523159.18949  -4296727.34049  20142440.7154   20142446.1204
  19651955.776    -3659565.81249  -2844374.76249  19651957.1814   19651962.4564
  22024271.845   -10402543.82249  -8080811.59749  22024273.8174   22024278.3034
  21936984.952      668767.21849    518326.55549  21936986.3294   21936992.7564
  19965753.529   -11529102.12149  -8962294.79549  19965755.0884   19965760.5834
  22885375.020    -8516149.37949  -6617927.16049  22885376.1504   22885383.2174
 96  5 13 16 54 29.9970000  0  6  2 27 26 19  7 15
  20130237.983    -5587278.49649  -4346690.44149  20130239.3124   20130244.1524
  19646006.757    -3690828.42449  -2868735.26849  19646008.5584   19646013.4054
  22003037.252   -10514132.19449  -8167763.57749  22003039.5764   22003044.0264
  21939459.103      681763.99049    528453.84049  21939459.7664   21939465.9034
  19941818.445   -11654880.65649  -9060304.02349  19941820.2474   19941825.7704
  22868095.398    -8606960.82149  -6688689.29849  22868095.1654   22868102.8254
 96  5 13 16 54 59.9970000  0  6  2 27 26 19  7 15
  20118058.073    -5651287.30049  -4396567.43649  20118058.9314   20118063.8364
  19640126.984    -3721727.94049  -2892812.83249  19640128.2744   19640133.3734
  21981889.114   -10625267.16449  -8254362.25249  21981890.8294   21981895.7224
  21941973.255      694972.14349    538745.83549  21941973.3654   21941979.7084
  19917954.341   -11780289.39749  -9158025.09949  19917955.6214   19917961.4504
  22850897.785    -8697319.54749  -6759098.68949  22850901.0714   22850908.4074
 96  5 13 16 55 29.9970000  0  6  2 27 26 19  7 15
  20105900.070    -5715177.26749  -4446351.82749  20105901.0314   20105906.0054
  19634318.479    -3752252.50749  -2916598.23349  19634319.5754   19634324.7604
  21960825.731   -10735953.95349  -8340611.69649  21960827.7514   21960832.8584
  21944520.992      708362.59549    549179.87449  21944521.7204   21944528.4484
  19894156.329   -11905347.31049  -9255472.79949  19894157.7554   19894163.2904
  22833790.892    -8787224.02249  -6829154.12349  22833792.5394   22833799.4464
 96  5 13 16 55 59.9970000  0  6  2 27 26 19  7 15
  20093765.579    -5778943.22049  -4496039.59149  20093766.7904   20093771.9454
  19628583.137    -3782390.30349  -2940082.24949  19628584.6994   19628589.9554
  21939843.920   -10846211.42849  -8426526.61149  21939846.6084   21939851.3754
  21947096.773      721910.69949    559736.77749  21947099.6564   21947106.9244
  19870427.054   -12030044.86449  -9352639.70149  19870428.7154   19870434.3674
  22816770.948    -8876676.84249  -6898857.60949  22816770.7474   22816777.5784
 96  5 13 16 56 29.9970000  0  6  2 27 26 19  7 15
  20081653.775    -5842593.15749  -4545636.95149  20081654.6194   20081659.5024
  19622925.573    -3812120.76549  -2963248.86249  19622927.3444   19622932.5834
  21918944.009   -10956047.75849  -8512113.37049  21918945.1644   21918949.4174
  21949703.142      735600.58249    570404.14249  21949705.5974   21949711.7304
  19846771.989   -12154355.25349  -9449504.91649  19846773.3644   19846778.8204
  22799835.378    -8965671.65049  -6968204.19349  22799834.9594   22799841.8614
 96  5 13 16 56 59.9970000  0  6  2 27 26 19  7 15
  20069561.131    -5906139.28549  -4595153.42049  20069562.2284   20069567.2274
  19617347.509    -3841435.20149  -2986091.30549  19617348.9754   19617354.1284
  21898123.393   -11065457.13549  -8597367.42549  21898126.1024   21898130.1484
  21952334.037      749424.41449    581175.89249  21952336.3104   21952342.9524
  19823189.463   -12278279.25549  -9546069.05549  19823191.2714   19823196.9834
  22782985.455    -9054207.90449  -7037193.47449  22782987.2994   22782994.2604
 96  5 13 16 57 29.9960000  0  6  2 27 26 19  7 15
  20057491.813    -5969565.20249  -4644576.21449  20057492.4364   20057497.7474
  19611850.618    -3870322.83949  -3008601.17349  19611851.7514   19611856.9294
  21877391.050   -11174404.37149  -8682261.38349  21877392.9444   21877397.9504
  21954994.539      763404.24049    592069.19449  21954996.4444   21955003.1294
  19799687.782   -12401781.00149  -9642304.15749  19799689.7084   19799695.4414
  22766228.740    -9142265.95549  -7105810.13549  22766230.3074   22766237.3434
 96  5 13 16 57 59.9960000  0  6  2 27 26 19  7 15
  20045444.700    -6032871.60849  -4693905.88749  20045445.8414   20045450.8634
  19606431.589    -3898797.00549  -3030788.85949  19606433.3084   19606438.5744
  21856747.076   -11282895.34949  -8766799.81549  21856748.6954   21856752.9984
  21957688.864      777568.70649    603106.36749  21957691.1114   21957698.6194
  19776266.252   -12524866.40449  -9738214.84349  19776267.3944   19776272.7584
  22749563.358    -9229851.91749  -7174058.92949  22749563.6914   22749570.4584
 96  5 13 16 58 29.9960000  0  6  2 27 26 19  7 15
  20033423.772    -6096043.13949  -4743130.45949  20033424.9184   20033429.9074
  19601091.379    -3926860.07149  -3052656.19749  19601093.1684   19601098.3154
  21836191.996   -11390911.88349  -8850968.54049  21836194.1004   21836198.5164
  21960424.943      791955.40649    614316.70449  21960429.7844   21960436.0454
  19752924.529   -12647525.94949  -9833793.68649  19752926.0934   19752931.5404
  22732989.408    -9316947.99349  -7241925.98849  22732989.6404   22732996.1524
 96  5 13 16 58 59.9960000  0  6  2 27 26 19  7 15
  20021430.331    -6159067.72449  -4792240.53049  20021431.5954   20021436.5104
  19595826.942    -3954528.22349  -3074215.82549  19595828.3144   19595833.2714
  21815725.577   -11498465.25249  -8934776.36649  21815726.4974   21815731.7824
  21963210.391      806579.88649    625712.33649  21963212.6284   21963218.3164
  19729663.076   -12769764.88249  -9929044.77949  19729664.7294   19729670.2204
  22716508.726    -9403554.30049  -7309411.41149  22716509.4184   22716515.8754
 96  5 13 16 59 29.9960000  0  6  2 27 26 19  7 15
  20009460.257    -6221972.98549  -4841257.62249  20009461.1684   20009466.1734
  19590629.617    -3981839.97449  -3095497.74349  19590631.1184   19590635.9474
  21795334.928   -11605612.58549  -9018267.80849  21795337.0414   21795342.4884
  21966034.890      821412.00549    637269.76749  21966034.3024   21966041.9344
  19706475.934   -12891614.45249 -10023992.47749  19706477.4444   19706482.8614
  22700114.893    -9489706.39449  -7376542.90749  22700114.9404   22700121.2644
 96  5 13 16 59 59.9960000  0  6  2 27 26 19  7 15
  19997511.387    -6284764.72149  -4890186.25549  19997512.4684   19997517.2254
  19585501.213    -4008790.72549  -3116498.35749  19585502.4564   19585507.5324
  21775022.572   -11712360.48649  -9101447.98949  21775024.0434   21775028.5374
  21968895.178      836450.28849    648987.83849  21968897.1534   21968903.8014
  19683364.174   -13013067.60349 -10118631.28049  19683365.5924   19683371.2294
  22683806.165    -9575402.26849  -7443318.89749  22683807.5244   22683814.0384
 96  5 13 17  0 29.9960000  0  6  2 27 26 19  7 15
  19985585.250    -6347434.49549  -4939019.85549  19985586.7394   19985591.8024
  19580445.893    -4035355.24449  -3137198.00749  19580447.5684   19580452.4344
  21754792.842   -11818665.31349  -9184282.92849  21754794.5924   21754798.9824
  21971795.988      851701.10249    660871.50949  21971798.2304   21971805.6194
  19660333.553   -13134093.49649 -10212937.14649  19660335.3254   19660340.6734
  22667590.407    -9660613.83649  -7509717.51349  22667591.7954   22667598.9004
 96  5 13 17  0 59.9960000  0  6  2 27 26 19  7 15
  19973679.885    -6410001.56549  -4987773.42449  19973680.4614   19973685.4144
  19575463.342    -4061539.63849  -3157601.45449  19575464.5324   19575469.9464
  21734647.338   -11924530.18949  -9266775.04149  21734649.3914   21734653.5054
  21974733.915      867133.27349    672896.51049  21974735.2194   21974742.1854
  19637381.128   -13254711.81749 -10306925.42849  19637382.1674   19637387.8324
  22651466.906    -9745354.20849  -7575748.95249  22651465.9284   22651472.2874
 96  5 13 17  1 29.9960000  0  6  2 27 26 19  7 15
  19961794.993    -6472452.53649  -5036436.52149  19961796.6414   19961801.6004
  19570557.755    -4087318.54849  -3177688.93949  19570559.1754   19570564.5004
  21714595.396   -12029905.32049  -9348885.53849  21714597.2224   21714601.9054
  21977707.920      882762.05049    685074.70949  21977708.8694   21977716.1934
  19614509.716   -13374899.52749 -10400578.16949  19614511.3874   19614516.9534
  22635434.932    -9829596.35549  -7641392.16249  22635435.5124   22635442.2564
 96  5 13 17  1 59.9960000  0  6  2 27 26 19  7 15
  19949930.096    -6534802.59449  -5085020.99249  19949931.6864   19949936.6304
  19565726.924    -4112705.22649  -3197470.78649  19565728.2144   19565733.3324
  21694637.351   -12134783.87449  -9430609.08949  21694639.2564   21694644.4614
  21980715.640      898572.54949    697394.50749  21980718.3204   21980724.4724
  19591718.660   -13494666.75149 -10493903.26149  19591720.4584   19591725.8574
  22619497.600    -9913342.75649  -7706649.10649  22619498.5834   22619506.0374
 96  5 13 17  2 29.9960000  0  6  2 27 26 19  7 15
  19938084.234    -6597057.27349  -5133531.14249  19938085.1014   19938089.7414
  19560967.036    -4137718.67549  -3216961.80649  19560968.6114   19560973.6394
  21674768.632   -12239190.86849  -9511965.19649  21674771.1874   21674775.9124
  21983755.226      914539.14349    709835.94249  21983756.0784   21983764.0564
  19569002.296   -13614044.30349 -10586924.70949  19569003.4714   19569009.0774
  22603655.636    -9996606.49849  -7771529.93449  22603655.1184   22603662.3454
 96  5 13 17  2 59.9960000  0  6  2 27 26 19  7 15
  19926259.183    -6659194.04949  -5181949.42149  19926260.7164   19926265.9104
  19556280.658    -4162346.58349  -3236152.40649  19556281.7904   19556287.2054
  21654988.431   -12343142.32849  -9592966.34249  21654990.0554   21654995.1174
  21986824.323      930667.48949    722403.41449  21986825.8304   21986832.1604
  19546360.796   -13733023.91249 -10679636.07049  19546362.4854   19546368.1124
  22587902.725   -10079381.61249  -7836030.01349  22587904.5294   22587911.1894
 96  5 13 17  3 29.9960000  0  6  2 27 26 19  7 15
  19914456.307    -6721220.79749  -5230281.95749  19914457.3154   19914462.3344
  19551668.788    -4186582.64049  -3255037.67249  19551670.1454   19551675.0664
  21635292.559   -12446644.17549  -9673617.13449  21635293.9464   21635299.4814
  21989921.500      946949.44649    735090.57349  21989924.3554   21989930.9614
  19523795.406   -13851607.36449 -10772038.73749  19523796.9114   19523802.4464
  22572243.072   -10161670.53949  -7900151.24349  22572244.5454   22572252.0434
 96  5 13 17  3 59.9960000  0  6  2 27 26 19  7 15
  19902694.370    -6783031.51849  -5278446.16049  19902695.1994   19902700.2304
  19547152.022    -4210317.60649  -3273532.48949  19547153.6534   19547158.6424
  21615701.004   -12549600.05249  -9753842.50549  21615702.1394   21615707.4264
  21993069.942      963486.55249    747976.56749  21993071.2974   21993078.1104
  19501323.581   -13969695.44349 -10864055.39849  19501325.4934   19501330.7584
  22556695.713   -10243372.79749  -7963815.32849  22556696.0774   22556703.5104
 96  5 13 17  4 29.9960000  0  6  2 27 26 19  7 15
  19890981.689    -6844580.66249  -5326406.54349  19890982.7904   19890988.0434
  19542738.266    -4233508.93149  -3291603.68849  19542740.1654   19542745.5874
  21596221.561   -12651965.02449  -9833607.43649  21596223.0804   21596227.7004
  21996273.890      980320.51049    761093.85649  21996274.5234   21996282.3024
  19478955.930   -14087237.05049 -10955646.24449  19478958.0624   19478963.3604
  22541268.125   -10324449.84649  -8026992.24749  22541269.1204   22541275.8464
 96  5 13 17  4 59.9960000  0  6  2 27 26 19  7 15
  19879293.347    -6906002.87149  -5374268.01449  19879294.9444   19879299.5744
  19538407.899    -4256266.84649  -3309337.14649  19538409.7864   19538414.9394
  21576834.824   -12753840.38749  -9912990.83849  21576837.0184   21576842.0694
  21999510.004      997336.44649    774352.95149  21999513.0854   21999519.8294
  19456671.501   -14204342.75149 -11046897.41549  19456673.4454   19456678.8574
  22525934.242   -10405022.29649  -8089775.96649  22525935.1764   22525942.3334
 96  5 13 17  5 29.9960000  0  6  2 27 26 19  7 15
  19867629.596    -6967298.22049  -5422030.63349  19867630.8254   19867635.4634
  19534161.228    -4278582.19949  -3326725.75449  19534163.4624   19534168.2504
  21557547.415   -12855197.02149  -9991970.04349  21557549.1784   21557554.5124
  22002785.715     1014559.10149    787773.13249  22002790.5584   22002796.4454
  19434472.700   -14321000.26149 -11137799.34549  19434474.2684   19434479.7294
  22510699.962   -10485073.12049  -8152153.20949  22510702.6584   22510709.1154
 96  5 13 17  5 59.9960000  0  6  2 27 26 19  7 15
  19855988.500    -7028474.08849  -5469700.14549  19855989.1894   19855994.3904
  19529996.284    -4300470.46949  -3343781.57749  19529997.9164   19530002.9984
  21538354.322   -12956053.81949 -10070559.77049  21538357.1054   21538362.0214
  22006107.109     1031990.17949    801355.72149  22006106.8584   22006114.9864
  19412356.640   -14437219.08049 -11228359.44249  19412358.5104   19412363.6664
  22495564.562   -10564609.29549  -8214129.43249  22495567.9814   22495574.3764
 96  5 13 17  6 29.9960000  0  6  2 27 26 19  7 15
  19844362.748    -7089561.97049  -5517301.10249  19844364.4694   19844369.6064
  19525906.156    -4321963.42449  -3360529.35349  19525908.1024   19525912.8014
  21519249.016   -13056455.64649 -10148794.96349  21519250.9424   21519255.8054
  22009452.740     1049592.42849    815071.68449  22009457.0714   22009464.0174
  19390317.542   -14553036.03049 -11318606.39249  19390319.1614   19390324.4814
  22480522.559   -10643664.81549  -8275731.12849  22480523.6044   22480530.0374
 96  5 13 17  6 59.9960000  0  6  2 27 26 19  7 15
  19832759.036    -7150541.38949  -5564817.53849  19832760.6664   19832765.7814
  19521897.744    -4343027.93049  -3376943.28549  19521899.4314   19521904.6824
  21500234.112   -13156384.18949 -10226661.38249  21500235.8944   21500240.5814
  22012844.493     1067392.54649    828941.84249  22012845.0804   22012851.0254
  19368356.810   -14668442.24649 -11408533.29249  19368358.1714   19368363.9044
  22465573.185   -10722214.47849  -8336938.63749  22465575.3454   22465583.2844
 96  5 13 17  7 29.9960000  0  6  2 27 26 19  7 15
  19821176.267    -7211411.76849  -5612249.00749  19821177.5374   19821182.4134
  19517964.978    -4363694.55249  -3393047.16949  19517966.8624   19517971.9184
  21481302.845   -13255864.23749 -10304178.30949  21481305.3384   21481310.5264
  22016265.340     1085376.08349    842954.92149  22016266.5074   22016273.6664
  19346471.621   -14783448.11649 -11498148.23649  19346473.3844   19346478.4984
  22450723.683   -10800265.95449  -8397757.96249  22450724.0084   22450730.8914
 96  5 13 17  7 59.9960000  0  6  2 27 26 19  7 15
  19809617.452    -7272153.37549  -5659580.13349  19809618.8764   19809623.8354
  19514107.756    -4383964.03249  -3408841.59349  19514109.5504   19514114.9394
  21462457.229   -13354899.61649 -10381348.74549  21462459.2834   21462464.4194
  22019719.561     1103530.94049    857101.50049  22019720.9024   22019728.4154
  19324664.559   -14898043.58049 -11587443.37949  19324666.2624   19324671.6324
  22435965.642   -10877817.89149  -8458188.01649  22435966.9614   22435972.5534
 96  5 13 17  8 29.9950000  0  6  2 27 26 19  7 15
  19798080.456    -7332778.49649  -5706820.49549  19798081.9874   19798087.1844
  19510317.799    -4403881.12349  -3424361.42549  19510319.8024   19510324.7734
  21443694.295   -13453500.76049 -10458180.80549  21443695.8904   21443701.4364
  22023197.896     1121828.84149    871359.54449  22023203.3144   22023210.0774
  19302934.781   -15012235.73849 -11676424.26049  19302936.5154   19302941.8614
  22421297.711   -10954893.50249  -8518246.91749  22421299.7594   22421305.7504
 96  5 13 17  8 59.9950000  0  6  2 27 26 19  7 15
  19786568.798    -7393274.50749  -5753960.25749  19786570.3014   19786575.3854
  19506595.566    -4423440.16149  -3439602.24949  19506597.3904   19506602.4514
  21425017.703   -13551643.87749 -10534655.97449  21425020.0224   21425024.7194
  22026717.943     1140297.62049    885750.72549  22026717.3484   22026724.2484
  19281285.792   -15126000.23349 -11765071.90049  19281287.7024   19281293.1174
  22406724.685   -11031469.40949  -8577916.44849  22406727.0244   22406733.5694
 96  5 13 17  9 29.9950000  0  6  2 27 26 19  7 15
  19775082.135    -7453636.81649  -5800995.83149  19775083.8004   19775088.9544
  19502939.163    -4442655.50149  -3454575.26549  19502941.2774   19502946.1364
  21406431.100   -13649319.54349 -10610766.89849  21406433.2334   21406437.9564
  22030262.779     1158935.44849    900273.64149  22030264.5534   22030271.0154
  19259721.789   -15239321.06149 -11853373.83049  19259723.4884   19259728.9144
  22392246.990   -11107542.56449  -8637194.22449  22392250.9234   22392257.8624
 96  5 13 17  9 59.9950000  0  6  2 27 26 19  7 15
  19763616.764    -7513887.92449  -5847944.75349  19763618.3094   19763623.3804
  19499346.296    -4461536.59649  -3469287.83149  19499348.4724   19499353.0754
  21387932.695   -13746529.62349 -10686515.02349  21387935.1464   21387939.6914
  22033838.822     1177730.92249    914919.38949  22033840.9934   22033848.9134
  19238237.606   -15352218.83449 -11941346.09949  19238239.5654   19238245.1544
  22377863.475   -11183132.33649  -8696095.33449  22377866.2794   22377873.1344
 96  5 13 17 10 29.9950000  0  6  2 27 26 19  7 15
  19752166.995    -7574057.09349  -5894829.83049  19752168.3884   19752173.3934
  19495815.162    -4480093.74349  -3483747.97849  19495817.0864   19495822.3814
  21369524.327   -13843266.90949 -10761894.73849  21369526.2044   21369531.0694
  22037443.922     1196676.65449    929682.23549  22037445.8814   22037454.0104
  19216832.671   -15464703.03049 -12028996.10649  19216834.7184   19216839.7494
  22363569.318   -11258244.07649  -8754623.94549  22363573.7124   22363580.0134
 96  5 13 17 10 59.9950000  0  6  2 27 26 19  7 15
  19740726.493    -7634176.34849  -5941676.00849  19740728.2704   19740733.0244
  19492347.189    -4498321.06549  -3497951.10449  19492348.8314   19492353.7844
  21351202.741   -13939548.36549 -10836919.26249  21351204.6334   21351209.6344
  22041074.230     1215737.02149    944534.40449  22041074.6234   22041080.3654
  19195502.141   -15576797.20549 -12116342.20249  19195504.1574   19195509.1834
  22349366.776   -11332900.42349  -8812797.70549  22349366.6834   22349373.1124
 96  5 13 17 11 29.9950000  0  6  2 27 26 19  7 15
  19729302.796    -7694210.92249  -5988456.20549  19729304.0084   19729309.0314
  19488950.920    -4516166.46149  -3511856.63049  19488952.6914   19488957.7524
  21332972.749   -14035346.49149 -10911567.16749  21332975.0004   21332979.6464
  22044724.154     1234933.81549    959492.87549  22044726.2094   22044733.6144
  19174250.004   -15688481.46049 -12203368.88349  19174251.2094   19174256.2874
  22335249.046   -11407076.16649  -8870596.97049  22335251.9314   22335258.4144
 96  5 13 17 11 59.9950000  0  6  2 27 26 19  7 15
  19717895.981    -7754153.49949  -6035164.71949  19717897.3464   19717902.4164
  19485632.335    -4533608.72949  -3525448.03949  19485633.4404   19485638.6594
  21314834.184   -14130661.26849 -10985838.44349  21314837.1784   21314842.0754
  22048404.255     1254272.53249    974561.93449  22048406.9924   22048413.2124
  19153076.192   -15799746.26249 -12290068.71649  19153078.2864   19153083.4514
  22321229.755   -11480756.45949  -8928010.16649  22321230.8224   22321237.8544
 96  5 13 17 12 29.9950000  0  6  2 27 26 19  7 15
  19706511.825    -7813977.98949  -6081781.20749  19706512.9814   19706518.2164
  19482397.445    -4550607.33449  -3538693.72549  19482398.6664   19482403.8934
  21296789.140   -14225490.64649 -11059731.47649  21296791.9734   21296797.0294
  22052115.323     1273770.07249    989754.74249  22052117.1194   22052124.2204
  19131990.392   -15910553.62349 -12376412.10249  19131992.0514   19131997.5064
  22307307.467   -11553908.74949  -8985011.94549  22307310.5664   22307316.5214
 96  5 13 17 12 59.9950000  0  6  2 27 26 19  7 15
  19695151.896    -7873673.02549  -6128296.82749  19695153.5524   19695158.5554
  19479250.275    -4567143.44549  -3551579.01949  19479252.0664   19479256.8974
  21278833.030   -14319854.98349 -11133262.15649  21278834.2474   21278839.7574
  22055856.779     1293438.91349   1005081.04349  22055859.9014   22055867.4144
  19110989.187   -16020913.67149 -12462406.93449  19110991.3354   19110996.6694
  22293488.523   -11626530.02949  -9041599.94449  22293490.5374   22293497.8144
 96  5 13 17 13 29.9950000  0  6  2 27 26 19  7 15
  19683818.798    -7933231.32749  -6174705.90549  19683819.9044   19683825.0994
  19476189.600    -4583226.79849  -3564111.51949  19476191.4494   19476196.5714
  21260962.307   -14413762.60549 -11206436.94749  21260964.4864   21260969.1964
  22059638.781     1313299.39549   1020556.67649  22059640.1484   22059646.3634
  19090073.371   -16130828.34249 -12548054.71949  19090075.4254   19090080.8704
  22279769.624   -11698613.17249  -9097768.61749  22279774.3684   22279780.5244
 96  5 13 17 13 59.9950000  0  6  2 27 26 19  7 15
  19672531.530    -7992544.65149  -6220924.08849  19672533.0834   19672538.0644
  19473232.731    -4598767.93949  -3576221.52649  19473234.3614   19473239.6924
  21243201.470   -14507096.48849 -11279164.66849  21243204.0384   21243209.1434
  22063474.871     1333466.13549   1036270.93949  22063478.2144   22063484.2304
  19069265.908   -16240175.24749 -12633260.09049  19069267.3304   19069272.6084
  22266177.863   -11770045.02049  -9153429.77549  22266181.0534   22266188.0984
 96  5 13 17 14 29.9950000  0  6  2 27 26 19  7 15
  19661254.409    -8051805.58449  -6267101.44949  19661256.1724   19661261.1664
  19470339.529    -4613969.84249  -3588067.18949  19470341.5384   19470346.5734
  21225514.743   -14600042.18049 -11351589.90449  21225516.6464   21225521.5464
  22067334.497     1353739.48449   1052068.26549  22067334.9094   22067341.9194
  19048527.498   -16349154.45549 -12718178.94249  19048529.3004   19048534.5084
  22252671.328   -11841027.70349  -9208740.94649  22252673.4674   22252680.0844
 96  5 13 17 14 59.9950000  0  6  2 27 26 19  7 15
  19649987.093    -8111017.40049  -6313240.54149  19649988.3184   19649993.1814
  19467507.294    -4628851.49749  -3599663.31149  19467509.5234   19467514.7394
  21207904.996   -14692580.76449 -11423697.91649  21207907.4024   21207911.9324
  22071209.192     1374119.52749   1067948.75149  22071214.3954   22071219.8454
  19027856.339   -16457782.02949 -12802823.79349  19027858.1804   19027863.4244
  22239248.111   -11911566.78849  -9263706.45449  22239250.2824   22239256.2584
 96  5 13 17 15 29.9950000  0  6  2 27 26 19  7 15
  19638743.406    -8170103.62749  -6359281.76649  19638744.6874   19638749.8454
  19464746.941    -4643359.30249  -3610968.12049  19464748.5824   19464753.8324
  21190391.186   -14784618.31749 -11495415.51649  21190393.3344   21190397.4494
  22075121.331     1394662.90749   1083956.50349  22075122.1254   22075130.3814
  19007267.147   -16565978.73649 -12887132.90449  19007269.1914   19007274.0034
  22225923.208   -11981587.56949  -9318268.09149  22225925.2674   22225932.6114
 96  5 13 17 15 59.9950000  0  6  2 27 26 19  7 15
  19627564.648    -8228849.34249  -6405057.66049  19627565.8394   19627570.8634
  19462096.740    -4657287.11649  -3621820.98749  19462098.5134   19462103.3324
  21173014.779   -14875933.16049 -11566569.95849  21173016.8124   21173021.8524
  22079101.548     1415570.62849   1100248.14949  22079099.7654   22079108.1324
  18986801.170   -16673527.16649 -12970936.86049  18986802.9764   18986808.4364
  22212736.923   -12050873.88449  -9372257.41449  22212740.5444   22212746.9424
 96  5 13 17 16 29.9950000  0  6  2 27 26 19  7 15
  19616422.123    -8287402.14249  -6450683.22949  19616423.8664   19616428.8414
  19459528.847    -4670779.42249  -3632334.49849  19459530.8704   19459536.0784
  21155745.288   -14966682.44249 -11637283.69949  21155747.6894   21155752.6414
  22083115.473     1436689.14549   1116704.06849  22083119.7414   22083126.6664
  18966428.793   -16780585.27549 -13054358.75049  18966430.6344   18966435.9834
  22199667.218   -12119576.23049  -9425791.69449  22199666.5634   22199674.3924
 96  5 13 17 16 59.9950000  0  6  2 27 26 19  7 15
  19605318.048    -8345755.13449  -6496153.10549  19605319.3474   19605324.5984
  19457045.071    -4683834.44449  -3642507.26049  19457046.7544   19457052.0754
  21138584.866   -15056863.67949 -11707554.81249  21138587.0014   21138591.2914
  22087176.996     1458024.12349   1133328.64649  22087180.0904   22087187.3034
  18946150.482   -16887148.46449 -13137394.98749  18946152.5154   18946157.8634
  22186702.874   -12187688.47449  -9478866.15249  22186705.6814   22186712.1354
 96  5 13 17 17 29.9950000  0  6  2 27 26 19  7 15
  19594252.080    -8403906.86749  -6541466.15649  19594253.4734   19594258.4514
  19454641.870    -4696462.50249  -3652347.32549  19454643.8084   19454648.8734
  21121529.019   -15146491.13849 -11777394.40949  21121531.7544   21121536.1564
  22091278.054     1479559.44749   1150109.33949  22091278.3884   22091285.2184
  18925965.540   -16993219.73549 -13220047.91649  18925967.7634   18925973.1264
  22173854.991   -12255221.46949  -9531489.25249  22173854.3594   22173861.1804
 96  5 13 17 17 59.9950000  0  6  2 27 26 19  7 15
  19583215.315    -8461905.72849  -6586660.08049  19583216.7854   19583221.5724
  19452312.730    -4708700.51549  -3661883.45449  19452314.8204   19452320.0744
  21104569.739   -15235613.82349 -11846840.67649  21104571.6474   21104576.4994
  22095406.628     1501264.31549   1167022.15749  22095408.2564   22095416.3014
  18905866.997   -17098840.10049 -13302349.48449  18905869.0234   18905873.9564
  22161102.715   -12322217.35749  -9583693.84049  22161106.2934   22161112.5914
 96  5 13 17 18 29.9950000  0  6  2 27 26 19  7 15
  19572202.826    -8519777.58249  -6631755.04349  19572204.2304   19572209.2474
  19450057.225    -4720554.83349  -3671120.60449  19450059.3384   19450064.2294
  21087704.037   -15324242.35749 -11915901.88949  21087706.3064   21087710.9434
  22099565.469     1523119.92649   1184052.43549  22099567.3584   22099575.4034
  18885849.728   -17204029.40549 -13384315.16349  18885851.8514   18885857.2064
  22148451.905   -12388694.05449  -9635493.84249  22148455.8234   22148462.4034
 96  5 13 17 18 59.9950000  0  6  2 27 26 19  7 15
  19561210.701    -8577538.94149  -6676763.90449  19561212.6234   19561217.6674
  19447872.180    -4732037.20949  -3680067.92749  19447874.1884   19447879.4304
  21070930.959   -15412386.32149 -11984585.51649  21070933.3684   21070938.3074
  22103753.459     1545113.15649   1201189.93849  22103753.2014   22103759.6964
  18865913.257   -17308797.37749 -13465952.53049  18865915.0424   18865920.6704
  22135901.170   -12454661.58049  -9686897.10449  22135902.0844   22135909.0054
 96  5 13 17 19 29.9940000  0  6  2 27 26 19  7 15
  19550238.597    -8635199.84149  -6721694.48749  19550239.9804   19550245.1754
  19445756.637    -4743151.83849  -3688728.69149  19445759.2154   19445764.0924
  21054248.584   -15500057.09949 -12052900.42049  21054250.2224   21054255.4374
  22107962.962     1567243.45249   1218434.25749  22107962.9184   22107971.1454
  18846058.962   -17413133.83449 -13547253.64949  18846060.6184   18846065.7834
  22123445.317   -12520118.29749  -9737902.33049  22123446.1234   22123452.7134
 96  5 13 17 19 59.9940000  0  6  2 27 26 19  7 15
  19539280.863    -8692784.62949  -6766565.76449  19539281.9134   19539287.1744
  19443712.662    -4753894.72649  -3697099.79249  19443714.6884   19443719.5854
  21037651.528   -15587269.49849 -12120858.14649  21037653.6074   21037659.2404
  22112196.945     1589511.54549   1235785.94749  22112201.6704   22112207.9684
  18826285.153   -17517043.20749 -13628221.98249  18826287.3374   18826292.7004
  22111085.165   -12585069.56549  -9788513.70249  22111086.9444   22111092.9044
 96  5 13 17 20 29.9940000  0  6  2 27 26 19  7 15
  19528337.914    -8750288.37549  -6811373.89649  19528339.4824   19528344.6024
  19441740.026    -4764263.46749  -3705179.35749  19441741.8774   19441746.8884
  21021142.568   -15674026.00049 -12188460.63049  21021145.0404   21021149.5364
  22116464.217     1611918.88349   1253246.12449  22116465.2994   22116472.3714
  18806595.379   -17620511.85549 -13708846.88849  18806597.9124   18806603.1774
  22098821.332   -12649512.15949  -9838728.69849  22098824.1364   22098830.0934
 96  5 13 17 20 59.9940000  0  6  2 27 26 19  7 15
  19517412.925    -8807698.95649  -6856109.43449  19517414.4804   19517419.5324
  19439839.271    -4774253.52549  -3712963.84249  19439840.7474   19439846.0064
  21004718.568   -15760333.36449 -12255713.13149  21004720.5874   21004726.1414
  22120755.843     1634480.53949   1270826.55649  22120758.9754   22120766.7284
  18786990.986   -17723535.67949 -13789125.18249  18786993.0904   18786998.3034
  22086656.410   -12713443.91849  -9888545.65749  22086658.1304   22086664.9254
 96  5 13 17 21 29.9940000  0  6  2 27 26 19  7 15
  19506505.097    -8865019.29249  -6900774.64449  19506506.9134   19506512.1084
  19438012.393    -4783853.45149  -3720444.31949  19438013.9344   19438019.2764
  20988381.779   -15846186.66649 -12322611.82949  20988383.9944   20988388.5744
  22125081.363     1657195.16249   1288526.18049  22125081.5524   22125088.8574
  18767469.005   -17826124.17349 -13869064.25949  18767471.0784   18767476.4584
  22074588.057   -12776863.72349  -9937963.67749  22074590.1154   22074595.7654
 96  5 13 17 21 59.9940000  0  6  2 27 26 19  7 15
  19495616.058    -8922245.76349  -6945366.71349  19495617.0954   19495622.3394
  19436258.692    -4793066.66849  -3727623.46249  19436260.6224   19436266.1364
  20972133.041   -15931573.81849 -12389147.28649  20972135.1144   20972140.1784
  22129428.750     1680052.30049   1306336.85349  22129430.5944   22129438.1534
  18748025.356   -17928301.23349 -13948682.73149  18748027.5294   18748032.8214
  22062615.048   -12839781.55349  -9986990.53549  22062616.3414   22062623.0644
 96  5 13 17 22 29.9940000  0  6  2 27 26 19  7 15
  19484748.104    -8979354.74349  -6989867.24149  19484749.5954   19484754.5524
  19434579.006    -4801895.62249  -3734503.18749  19434581.0784   19434586.1734
  20955974.886   -16016483.86549 -12455310.97249  20955977.3394   20955982.0664
  22133807.002     1703052.16049   1324258.73949  22133807.0784   22133815.4644
  18728656.906   -18030083.21449 -14027993.35149  18728658.7704   18728664.4504
  22050738.948   -12902197.08549 -10035626.01849  22050738.8674   22050746.1154
 96  5 13 17 22 59.9940000  0  6  2 27 26 19  7 15
  19473904.502    -9036340.82049  -7034271.99249  19473905.7374   19473910.4874
  19432973.738    -4810332.52949  -3741077.42049  19432975.2844   19432980.4804
  20939910.796   -16100906.61249 -12521094.94449  20939912.2094   20939917.0164
  22138206.227     1726182.04249   1342281.94549  22138209.3754   22138217.4864
  18709362.796   -18131475.41249 -14107000.24649  18709364.7704   18709370.3644
  22038956.231   -12964104.74249 -10083865.74049  22038958.1794   22038965.1954
 96  5 13 17 23 29.9940000  0  6  2 27 26 19  7 15
  19463082.055    -9093211.32649  -7078586.68449  19463083.7114   19463088.6884
  19431439.143    -4818394.75049  -3747359.69549  19431441.2304   19431446.4564
  20923939.400   -16184834.82349 -12586493.56649  20923941.4814   20923946.5604
  22142632.089     1749428.12049   1360395.68349  22142632.6644   22142641.2284
  18690144.242   -18232469.72149 -14185697.09449  18690146.1044   18690151.3874
  22027271.899   -13025505.35349 -10131710.36649  22027274.7214   22027281.2614
 96  5 13 17 23 59.9940000  0  6  2 27 26 19  7 15
  19452279.522    -9149977.44249  -7122820.03949  19452281.4814   19452286.2894
  19429970.987    -4826110.67249  -3753372.12749  19429972.5774   19429978.1904
  20908060.893   -16268272.85949 -12651510.22849  20908063.9104   20908068.6694
  22147074.632     1772780.10049   1378591.94149  22147076.8134   22147084.3224
  18671004.610   -18333048.41449 -14264070.08749  18671006.1724   18671011.8874
  22015682.758   -13086405.60149 -10179165.10749  22015685.9604   22015692.5654
 96  5 13 17 24 29.9940000  0  6  2 27 26 19  7 15
  19441491.895    -9206667.35749  -7166994.02249  19441493.7974   19441498.6474
  19428567.655    -4833485.50949  -3759118.78049  19428569.6434   19428574.8514
  20892271.926   -16351244.61249 -12716163.55849  20892274.9744   20892279.4564
  22151535.641     1796230.80449   1396865.13649  22151539.9304   22151546.2574
  18651946.271   -18433201.46349 -14342111.41549  18651948.2204   18651953.5344
  22004189.625   -13146806.94549 -10226231.09549  22004191.4544   22004198.7774
 96  5 13 17 24 59.9940000  0  6  2 27 26 19  7 15
  19430715.804    -9263297.25149  -7211121.22649  19430717.4434   19430722.4734
  19427230.118    -4840513.67849  -3764595.30049  19427232.0814   19427237.4544
  20876572.356   -16433749.89949 -12780453.40249  20876574.0764   20876579.3154
  22156021.499     1819786.66349   1415220.29949  22156021.2634   22156029.5074
  18632973.575   -18532901.43849 -14419799.68949  18632975.8424   18632981.2044
  21992794.920   -13206700.90649 -10272901.72549  21992794.6604   21992800.7144
 96  5 13 17 25 29.9940000  0  6  2 27 26 19  7 15
  19419952.462    -9319860.83849  -7255196.76149  19419953.8314   19419958.8314
  19425958.927    -4847193.79349  -3769800.61049  19425961.0104   19425966.4074
  20860962.243   -16515779.55449 -12844372.61849  20860964.4104   20860969.7264
  22160523.837     1843453.60049   1433661.99749  22160526.8544   22160534.3244
  18614089.547   -18632139.10449 -14497127.72449  18614091.4734   18614096.8474
  21981493.693   -13266086.38849 -10319176.13449  21981493.4194   21981500.2294
 96  5 13 17 25 59.9940000  0  6  2 27 26 19  7 15
  19409199.168    -9376369.60449  -7299229.57249  19409200.6574   19409205.2314
  19424752.573    -4853531.31449  -3774738.96049  19424754.7144   19424760.3014
  20845435.206   -16597370.66149 -12907950.11349  20845438.2834   20845443.4194
  22165045.489     1867213.27049   1452175.95449  22165047.0574   22165054.9654
  18595286.311   -18730950.99049 -14574123.98549  18595288.1494   18595293.3014
  21970285.455   -13324985.40449 -10365071.48749  21970285.4194   21970290.9764
 96  5 13 17 26 29.9940000  0  6  2 27 26 19  7 15
  19398469.060    -9432755.39149  -7343166.56349  19398470.7014   19398475.7054
  19423624.708    -4859460.95049  -3779359.48449  19423626.4384   19423631.8814
  20829998.814   -16678492.05549 -12971161.60249  20830001.2974   20830006.1714
  22169593.581     1891113.47149   1470799.41849  22169595.1434   22169602.5264
  18576570.211   -18829303.01849 -14650761.91449  18576572.5364   18576577.7604
  21959179.202   -13383351.15049 -10410551.31549  21959178.9554   21959185.1214
 96  5 13 17 26 59.9940000  0  6  2 27 26 19  7 15
  19387757.442    -9489045.65049  -7387029.11549  19387758.8914   19387764.1154
  19422563.891    -4865035.09249  -3783702.99249  19422565.5644   19422571.1184
  20814646.897   -16759170.34149 -13034027.80349  20814649.0854   20814653.9674
  22174157.658     1915098.55949   1489489.02449  22174160.2894   22174167.1494
  18557932.765   -18927246.10749 -14727081.19249  18557934.5534   18557939.7644
  21948162.046   -13441235.42549 -10455655.98049  21948163.9484   21948170.3794
 96  5 13 17 27 29.9940000  0  6  2 27 26 19  7 15
  19377072.904    -9545193.72149  -7430780.87149  19377074.3064   19377079.5854
  19421575.859    -4870223.82949  -3787746.18949  19421578.3824   19421583.7704
  20799386.020   -16839367.29349 -13096518.94849  20799387.8404   20799393.1174
  22178745.722     1939209.51449   1508276.71049  22178747.7704   22178755.3214
  18539376.199   -19024758.67049 -14803064.99649  18539378.6194   18539383.7214
  21937244.802   -13498603.12449 -10500358.09149  21937246.9724   21937252.9944
 96  5 13 17 27 59.9940000  0  6  2 27 26 19  7 15
  19366406.363    -9601246.53849  -7474458.40649  19366407.7814   19366412.7974
  19420650.137    -4875091.08449  -3791538.88849  19420652.1004   19420657.4294
  20784204.560   -16919142.95949 -13158681.81149  20784207.5604   20784212.1604
  22183350.580     1963398.56449   1527125.24149  22183349.7404   22183359.1294
  18520890.542   -19121902.16449 -14878761.20949  18520892.6444   18520897.7744
  21926417.381   -13555504.02749 -10544696.47949  21926419.3434   21926425.9844
 96  5 13 17 28 29.9940000  0  6  2 27 26 19  7 15
  19355762.347    -9657180.69449  -7518043.47849  19355763.8224   19355768.8064
  19419787.904    -4879623.99349  -3795071.06649  19419789.5604   19419795.2194
  20769116.049   -16998435.92349 -13220468.55149  20769118.8084   20769122.8134
  22187974.166     1987691.19149   1546054.48449  22187973.9504   22187981.6034
  18502482.273   -19218639.85249 -14954141.21649  18502484.2514   18502489.2974
  21915684.718   -13611902.77449 -10588643.58249  21915687.4064   21915693.4044
 96  5 13 17 28 59.9940000  0  6  2 27 26 19  7 15
  19345136.609    -9713018.46949  -7561553.44249  19345138.2674   19345143.3334
  19418983.621    -4883847.86349  -3798362.43149  19418986.0894   19418991.3624
  20754121.739   -17077230.95949 -13281867.29249  20754124.0704   20754129.3194
  22192613.776     2012088.98049   1565065.67349  22192616.0504   22192625.1534
  18484149.114   -19314977.63449 -15029209.60549  18484151.7314   18484156.8074
  21905049.948   -13667802.39449 -10632201.75249  21905050.7424   21905056.5334
 96  5 13 17 29 29.9940000  0  6  2 27 26 19  7 15
  19334530.209    -9768756.41749  -7604985.62249  19334531.5354   19334536.9684
  19418240.107    -4887757.77549  -3801409.14649  19418241.8734   19418247.2474
  20739219.331   -17155543.84549 -13342890.33349  20739221.7024   20739227.1024
  22197277.425     2036605.77049   1584169.57849  22197280.8624   22197289.0254
  18465893.593   -19410913.91649 -15103965.13649  18465895.6544   18465900.6734
  21894508.976   -13723192.98449 -10675363.28649  21894509.4814   21894515.0234
 96  5 13 17 29 59.9930000  0  6  2 27 26 19  7 15
  19323928.608    -9824468.07549  -7648397.31549  19323930.0384   19323934.9784
  19417542.366    -4891422.40649  -3804264.73349  19417544.4224   19417550.2324
  20724395.042   -17233446.29049 -13403593.55049  20724397.3374   20724402.8764
  22201948.558     2061149.99549   1603294.87149  22201951.8524   22201960.7354
  18447701.686   -19506510.59049 -15178456.03749  18447704.2144   18447709.3784
  21884051.594   -13778146.22149 -10718184.01349  21884051.8044   21884059.2034
 96  5 13 17 30 29.9930000  0  6  2 27 26 19  7 15
  19313332.405    -9880150.14749  -7691785.95449  19313334.1494   19313339.1854
  19416896.506    -4894813.83449  -3806907.44049  19416899.4874   19416904.9534
  20709650.848   -17310929.37849 -13463970.00149  20709652.6544   20709657.8834
  22206628.973     2085749.21449   1622463.01249  22206633.4374   22206641.4214
  18429581.131   -19601736.03549 -15252657.67449  18429583.2204   18429588.4454
  21873679.849   -13832644.97649 -10760650.61249  21873681.2574   21873688.2094
 96  5 13 17 30 59.9930000  0  7  9  2 27 26 19  7 15
  22792073.176    -9411520.56959  -6904859.75659  22792074.3194   22792079.9374
  19302742.207    -9935805.32049  -7735153.62349  19302743.3414   19302748.6534
  19416305.910    -4897922.01749  -3809329.42849  19416308.3134   19416313.6994
  20694979.464   -17388026.96649 -13524046.05349  20694981.2494   20694986.8974
  22211323.058     2110402.11349   1641672.96849  22211325.7744   22211333.7124
  18411529.157   -19696599.95349 -15326577.59949  18411531.4414   18411536.3504
  21863392.846   -13886698.53049 -10802770.28049  21863396.3824   21863401.5634
 96  5 13 17 31 29.9930000  0  7  9  2 27 26 19  7 15
  22759055.516    -9585029.15949  -7040061.21549  22759057.1634   22759062.4394
  19292165.567    -9991384.78849  -7778462.31049  19292167.0814   19292172.1034
  19415777.587    -4900700.76449  -3811494.71749  19415779.0854   19415784.8084
  20680385.861   -17464715.07449 -13583803.03449  20680388.7414   20680393.5194
  22216027.100     2135127.68049   1660939.55549  22216029.6944   22216038.3654
  18393551.376   -19791072.93149 -15400192.89349  18393553.6194   18393558.7224
  21853198.398   -13940278.67149 -10844521.09149  21853200.3284   21853205.5884
 96  5 13 17 31 59.9930000  0  7  9  2 27 26 19  7 15
  22726033.831    -9758559.24949  -7175279.44149  22726035.0484   22726040.8574
  19281616.249   -10046820.97149  -7821659.34449  19281617.8884   19281622.9594
  19415324.843    -4903075.74149  -3813345.37149  19415327.2974   19415332.9394
  20665885.304   -17540916.37049 -13643180.67849  20665887.7584   20665892.6504
  22220757.723     2159985.83649   1680309.45049  22220761.1804   22220768.6994
  18375662.023   -19885083.11049 -15473447.56549  18375664.0844   18375669.1524
  21843103.031   -13993322.53149 -10885853.98849  21843105.7234   21843111.9244
 96  5 13 17 32 29.9930000  0  7  9  2 27 26 19  7 15
  22692994.015    -9932184.22249  -7310571.61149  22692994.2964   22693000.9784
  19271079.588   -10102192.00649  -7864805.60849  19271081.1194   19271086.1744
  19414937.823    -4905111.63249  -3814931.81149  19414940.1474   19414945.6844
  20651466.132   -17616691.81949 -13702226.49549  20651468.2684   20651473.3704
  22225500.519     2184916.36849   1699735.74849  22225505.7584   22225513.0384
  18357846.150   -19978706.47049 -15546400.82449  18357848.1934   18357853.4394
  21833099.018   -14045899.15449 -10926822.82449  21833100.5704   21833105.7984
 96  5 13 17 32 59.9930000  0  7  9  2 27 26 19  7 15
  22659937.887   -10105897.01349  -7445932.19249  22659938.5784   22659944.3934
  19260555.912   -10157492.74749  -7907897.10349  19260557.5804   19260562.7384
  19414614.068    -4906814.71449  -3816258.92249  19414616.0864   19414621.3134
  20637128.463   -17692033.02149 -13760933.93249  20637131.1974   20637136.1204
  22230259.764     2209897.82549   1719201.74149  22230258.8124   22230266.7994
  18340099.975   -20071962.05249 -15619067.50149  18340102.2714   18340107.4754
  21823180.930   -14098014.13949 -10967431.94149  21823184.5954   21823189.3334
 96  5 13 17 33 29.9930000  0  7  9  2 27 26 19  7 15
  22626872.959   -10279650.81249  -7581324.73249  22626873.6574   22626880.8414
  19250053.401   -10212685.99049  -7950904.83549  19250054.9174   19250060.2294
  19414359.348    -4908150.88049  -3817300.13149  19414361.3294   19414366.9794
  20622884.432   -17766890.04949 -13819264.09049  20622886.4034   20622891.4194
  22235030.183     2234962.30549   1738732.42149  22235029.7514   22235036.8404
  18322433.718   -20164799.24149 -15691408.15449  18322435.9374   18322441.1154
  21813358.409   -14149627.56849 -11007650.23149  21813361.8924   21813368.7784
 96  5 13 17 33 59.9930000  0  7  9  2 27 26 19  7 15
  22593802.337   -10453434.34649  -7716740.44149  22593804.7014   22593810.0484
  19239566.216   -10267795.58749  -7993847.39049  19239567.8574   19239573.1744
  19414172.681    -4909134.32049  -3818066.49349  19414174.6114   19414179.6964
  20608728.330   -17841277.72249 -13877228.52149  20608731.3734   20608736.1204
  22239811.062     2260100.28849   1758320.36049  22239813.0014   22239819.7664
  18304845.745   -20257226.37749 -15763429.28949  18304847.7984   18304853.0624
  21803632.965   -14200743.93349 -11047481.19649  21803635.2414   21803640.6884
 96  5 13 17 34 29.9930000  0  7  9  2 27 26 19  7 15
  22560725.419   -10627259.73349  -7852188.75449  22560726.0794   22560731.5234
  19229091.372   -10322840.68049  -8036739.67949  19229093.3024   19229098.3654
  19414044.431    -4909804.63349  -3818588.85149  19414046.7564   19414052.3764
  20594657.276   -17915227.40049 -13934851.65249  20594659.3164   20594664.0944
  22244603.589     2285285.16249   1777944.85449  22244604.0964   22244613.3324
  18287328.988   -20349279.94049 -15835159.32049  18287330.7564   18287335.6204
  21793996.057   -14251384.94049 -11086941.75049  21793998.5704   21794004.1534
 96  5 13 17 34 59.9930000  0  8  9  2 27 26 19  4  7 15
  22527644.992   -10801089.22049  -7987640.27649  22527647.3564   22527652.2964
  19218639.798   -10377763.49449  -8079536.68749  19218641.7214   19218646.9504
  19413982.677    -4910129.85649  -3818842.29449  19413984.7474   19413990.3854
  20580672.916   -17988710.43349 -13992111.16449  20580675.8664   20580680.7594
  22249409.580     2310549.36149   1797631.14049  22249412.4364   22249419.6254
  22627100.195    -9956722.62659  -7724589.78359  22627104.1384   22627110.8854
  18269890.829   -20440911.65749 -15906560.64249  18269893.4544   18269898.5134
  21784458.837   -14301514.44349 -11126003.73949  21784459.6284   21784465.9774
 96  5 13 17 35 29.9930000  0  8  9  2 27 26 19  4  7 15
  22494563.395   -10974931.96249  -8123102.11849  22494567.2244   22494571.8704
  19208213.113   -10432556.62349  -8122232.64149  19208215.0654   19208220.2984
  19413988.735    -4910101.27149  -3818820.03949  19413990.4744   19413995.9174
  20566780.246   -18061721.04149 -14049002.56849  20566781.6264   20566787.1874
  22254236.498     2335902.95149   1817387.10849  22254237.6634   22254243.3854
  22593449.365   -10133557.08049  -7862382.74049  22593453.1724   22593460.1104
  18252538.227   -20532102.65249 -15977618.54849  18252540.4834   18252545.3994
  21775016.644   -14351123.61449 -11164660.26449  21775018.8424   21775025.4184
 96  5 13 17 35 59.9930000  0  8  9  2 27 26 19  4  7 15
  22461471.861   -11148828.64249  -8258605.99549  22461475.1994   22461480.9054
  19197802.264   -10487264.11549  -8164861.86149  19197804.2254   19197809.6124
  19414051.846    -4909768.21849  -3818560.54149  19414054.3094   19414059.1874
  20552968.205   -18134299.79749 -14105557.45449  20552970.9134   20552975.6214
  22259072.652     2361304.11049   1837180.13449  22259071.4044   22259078.6554
  22559774.657   -10310531.12049  -8000284.45449  22559775.4504   22559783.2624
  18235261.249   -20622894.26249 -16048365.23649  18235263.4594   18235268.4004
  21765669.790   -14400250.87649 -11202941.28049  21765670.1484   21765676.5584
 96  5 13 17 36 29.9930000  0  8  9  2 27 26 19  4  7 15
  22428373.123   -11322767.96349  -8394143.08749  22428375.7584   22428380.9804
  19187412.555   -10541863.95449  -8207407.19249  19187414.1714   19187419.4724
  19414178.153    -4909106.12049  -3818044.65449  19414179.8104   19414185.3664
  20539244.538   -18206417.36749 -14161752.97749  20539247.5604   20539252.3754
  22263919.829     2386785.41349   1857035.62349  22263920.3924   22263928.2144
  22526072.861   -10487634.56749  -8138287.01449  22526074.5044   22526080.3574
  18218065.139   -20713259.18149 -16118779.44249  18218067.5604   18218072.5064
  21756415.327   -14448875.67249 -11240830.75749  21756417.2094   21756423.3654
 96  5 13 17 36 59.9930000  0  8  9  2 27 26 19  4  7 15
  22395269.588   -11496730.29849  -8529698.13049  22395272.7264   22395277.3824
  19177045.136   -10596345.10649  -8249860.04649  19177047.0214   19177052.2874
  19414372.953    -4908082.46349  -3817247.03849  19414374.6634   19414380.2884
  20525614.021   -18278047.66849 -14217568.81049  20525616.7154   20525622.0484
  22268786.800     2412377.08749   1876977.09049  22268790.2124   22268797.5484
  22492351.134   -10664834.09649  -8276364.44049  22492354.4564   22492361.6494
  18200957.854   -20803160.75949 -16188832.60249  18200959.9004   18200965.0984
  21747263.949   -14496971.82949 -11278308.32049  21747264.5904   21747270.2614
 96  5 13 17 37 29.9930000  0  8  9  2 27 26 19  4  7 15
  22362169.704   -11670674.67049  -8665239.16449  22362170.1214   22362177.7364
  19166702.850   -10650696.77249  -8292212.00249  19166704.4694   19166709.4414
  19414637.054    -4906690.12449  -3816162.15049  19414639.9224   19414645.3764
  20512080.250   -18349164.36449 -14272984.44049  20512083.4274   20512088.2814
  22273684.850     2438113.26849   1897031.17749  22273688.8254   22273695.8324
  22458619.001   -10842105.68949  -8414498.03649  22458620.9714   22458627.2294
  18183939.746   -20892589.98049 -16258517.69749  18183942.1704   18183947.2634
  21738216.599   -14544515.80849 -11315355.61049  21738217.4134   21738224.4344
 96  5 13 17 37 59.9930000  0  8  9  2 27 26 19  4  7 15
  22329069.901   -11844614.26649  -8800776.45949  22329071.6124   22329077.5424
  19156376.398   -10704959.32349  -8334494.50649  19156378.2404   19156383.3224
  19414964.814    -4904970.19449  -3814821.97549  19414967.2054   19414972.7154
  20498638.656   -18419807.08749 -14328030.73249  20498640.0754   20498645.6914
  22278608.005     2463966.54249   1917176.48549  22278608.5124   22278614.5834
  22424861.930   -11019485.64649  -8552716.04649  22424866.3204   22424873.4604
  18167001.907   -20981599.20649 -16327875.51349  18167004.0454   18167009.0434
  21729263.189   -14591547.06149 -11352003.36649  21729268.3774   21729274.5864
 96  5 13 17 38 29.9930000  0  8  9  2 27 26 19  4  7 15
  22295973.657   -12018534.42749  -8936298.63549  22295975.5604   22295981.9984
  19146072.547   -10759107.15249  -8376687.63249  19146074.3364   19146079.5244
  19415357.235    -4902910.53549  -3813217.08449  19415359.2174   19415364.8794
  20485287.654   -18489962.43549 -14382697.25349  20485290.6294   20485295.5564
  22283553.073     2489949.17449   1937422.58649  22283551.3264   22283559.8234
  22391091.396   -11196956.59949  -8691004.98949  22391095.1444   22391100.9334
  18150145.127   -21070181.61749 -16396900.75849  18150147.6574   18150152.5174
  21720413.504   -14638056.33349 -11388244.37749  21720417.6104   21720423.8854
 96  5 13 17 38 59.9930000  0  8  9  2 27 26 19  4  7 15
  22262879.408   -12192442.66249  -9071811.51849  22262881.5104   22262888.0204
  19135789.259   -10813148.40649  -8418797.71749  19135790.7944   19135796.3134
  19415808.823    -4900532.30649  -3811363.96149  19415811.4984   19415817.3144
  20472028.111   -18559647.74749 -14436997.51449  20472030.0184   20472035.0394
  22288514.719     2516033.39249   1957747.85649  22288515.8194   22288522.8564
  22357300.439   -11374538.96249  -8829380.73149  22357302.7324   22357309.6004
  18133367.105   -21158352.68849 -16465605.47449  18133369.0474   18133374.1604
  21711662.486   -14684060.91049 -11424092.11549  21711662.9274   21711668.5724
 96  5 13 17 39 29.9930000  0  8  9  2 27 26 19  4  7 15
  22229785.829   -12366350.40049  -9207323.96649  22229788.3384   22229795.6264
  19125523.992   -10867091.78949  -8460831.53449  19125525.5704   19125531.0004
  19416320.440    -4897848.44049  -3809272.67549  19416322.4184   19416327.9524
  20458852.676   -18628878.45249 -14490943.53249  20458855.3584   20458860.7294
  22293490.891     2542188.41449   1978128.29549  22293493.6854   22293501.0774
  22323478.419   -11552267.16349  -8967870.12049  22323481.4744   22323486.9844
  18116661.256   -21246139.79249 -16534010.99849  18116663.6524   18116668.7614
  21702997.138   -14729582.06449 -11459563.16149  21703000.2254   21703007.1094
 96  5 13 17 39 59.9930000  0  8  9  2 27 26 19  4  7 15
  22196694.598   -12540256.44549  -9342835.12249  22196695.7394   22196701.5764
  19115282.266   -10920910.77149  -8502768.41249  19115284.3614   19115289.5474
  19416895.616    -4894824.12149  -3806916.09849  19416898.0454   19416903.4194
  20445767.386   -18697641.89249 -14544525.44949  20445770.4384   20445775.6704
  22298482.502     2568417.11649   1998566.13949  22298483.6714   22298491.7694
  22289634.748   -11730119.31049  -9106456.09949  22289637.6234   22289643.8604
  18100035.470   -21333508.05049 -16602090.14449  18100038.0744   18100042.9894
  21694432.324   -14774597.70349 -11494640.30349  21694434.2314   21694441.1884
 96  5 13 17 40 29.9920000  0  8  9  2 27 26 19  4  7 15
  22163594.297   -12714199.08349  -9478374.79549  22163595.4784   22163600.7704
  19105060.442   -10974627.65349  -8544625.73149  19105062.3064   19105067.5314
  19417532.109    -4891483.52049  -3804313.06149  19417534.1234   19417539.0044
  20432764.671   -18765972.97949 -14597770.46349  20432767.6584   20432772.4564
  22303479.768     2594675.03649   2019026.77049  22303480.3634   22303489.2444
  22255760.368   -11908129.47949  -9245165.21649  22255762.7414   22255769.0014
  18083484.791   -21420485.72649 -16669864.94049  18083486.9124   18083491.9134
  21685957.554   -14819137.00949 -11529346.26649  21685959.9604   21685965.5644
 96  5 13 17 40 59.9920000  0  8  9  2 27 26 19  4  7 15
  22130482.747   -12888190.53649  -9613952.52349  22130484.5534   22130491.2804
  19094854.155   -11028262.37749  -8586419.03749  19094856.1854   19094861.4404
  19418228.084    -4887821.68949  -3801459.72049  19418230.4344   19418236.3454
  20419841.314   -18833885.03149 -14650688.95849  20419844.5504   20419849.6864
  22308479.601     2620963.63749   2039511.29249  22308483.3434   22308491.9194
  22221853.507   -12086304.22349  -9384002.55349  22221857.5034   22221864.3254
  18067007.275   -21507076.41849 -16737338.19249  18067009.3604   18067014.4324
  21677570.441   -14863206.65849 -11563686.26149  21677573.5024   21677578.9504
 96  5 13 17 41 29.9920000  0  8  9  2 27 26 19  4  7 15
  22097362.396   -13062237.83549  -9749573.74049  22097364.1484   22097371.3664
  19084662.068   -11081822.62149  -8628154.30449  19084663.9854   19084669.1604
  19418985.790    -4883841.47949  -3798358.28049  19418988.0614   19418993.4114
  20406997.372   -18901382.94649 -14703284.74749  20407000.0324   20407005.6284
  22313487.844     2647281.22149   2060018.39649  22313490.5924   22313499.4514
  22187919.847   -12264626.79249  -9522955.09349  22187922.1814   22187930.7234
  18050600.733   -21593289.05849 -16804516.85849  18050603.4694   18050608.5704
  21669273.727   -14906813.22849 -11597665.41649  21669275.3924   21669280.8944
 96  5 13 17 41 59.9920000  0  8  9  2 27 26 19  4  7 15
  22064236.631   -13236320.89049  -9885222.82749  22064238.6944   22064244.0264
  19074487.413   -11135291.47949  -8669818.36149  19074489.2534   19074494.4174
  19419806.379    -4879529.83249  -3794998.58249  19419808.4724   19419814.1974
  20394237.723   -18968437.75749 -14755535.25549  20394239.8654   20394245.0644
  22318512.175     2673668.77849   2080580.02249  22318512.7034   22318521.6474
  22153965.166   -12443067.77549  -9661999.90949  22153966.4724   22153973.8754
  18034272.756   -21679095.89549 -16871379.30949  18034274.8974   18034280.2164
  21661066.192   -14949934.59349 -11631266.49349  21661068.6224   21661075.4204
 96  5 13 17 42 29.9920000  0  8  9  2 27 26 19  4  7 15
  22031105.651   -13410420.50749 -10020884.81849  22031107.1924   22031114.1504
  19064330.040   -11188668.63749  -8711410.95349  19064331.7784   19064336.7844
  19420693.076    -4874872.65149  -3791369.64549  19420695.0014   19420700.4504
  20381565.876   -19035027.88949 -14807423.69249  20381568.0314   20381573.4384
  22323550.599     2700145.67549   2101211.27149  22323552.6024   22323560.0724
  22119987.136   -12621614.15549  -9801126.87349  22119990.3844   22119996.2144
  18018021.450   -21764495.20149 -16937924.21149  18018023.8444   18018028.9604
  21652954.938   -14992565.98949 -11664485.76049  21652955.8324   21652962.6604
 96  5 13 17 42 59.9920000  0  7  9  2 27 26  4  7 15
  21997971.818   -13584534.34349 -10156557.90149  21997975.2174   21997980.9214
  19054186.828   -11241972.48449  -8752946.42949  19054188.6694   19054193.3514
  19421640.689    -4869884.62849  -3787482.90749  19421643.9724   19421649.7794
  20368983.545   -19101144.32249 -14858943.00149  20368986.5424   20368991.6004
  22085994.614   -12800248.93449  -9940322.70449  22085996.7724   22086003.2694
  18001849.751   -21849479.31349 -17004145.58249  18001851.7154   18001856.9754
  21644934.982   -15034711.62249 -11697326.53049  21644936.2944   21644942.8474
 96  5 13 17 43 29.9920000  0  7  9  2 27 26  4  7 15
  21964843.317   -13758637.35749 -10292222.53949  21964844.5504   21964850.3224
  19044062.542   -11295175.10349  -8794403.02449  19044064.3314   19044069.5184
  19422656.639    -4864556.07049  -3783330.81449  19422657.8994   19422663.7094
  20356498.947   -19166758.31049 -14910070.80249  20356500.8634   20356505.9404
  22051985.408   -12978960.60049 -10079578.46449  22051989.1994   22051995.1194
  17985758.177   -21934038.50949 -17070035.85349  17985760.9464   17985766.0964
  21637009.017   -15076349.33949 -11729771.49349  21637013.1874   21637019.5594
 96  5 13 17 43 59.9920000  0  7  9  2 27 26  4  7 15
  21931716.093   -13932718.48949 -10427870.12149  21931718.4524   21931724.4144
  19033957.311   -11348278.07849  -8835781.97149  19033959.4044   19033964.2344
  19423731.681    -4858901.60049  -3778924.77749  19423733.9274   19423739.6054
  20344104.958   -19231886.05349 -14960819.70849  20344108.0014   20344112.6704
  22017963.143   -13157755.62849 -10218899.16649  22017966.9734   22017972.3634
  17969746.933   -22018179.69849 -17135600.40449  17969749.0614   17969754.5634
  21629183.646   -15117485.48249 -11761825.65249  21629184.3764   21629190.8044
 96  5 13 17 44 29.9920000  0  7  9  2 27 26  4  7 15
  21898596.518   -14106762.66549 -10563488.93149  21898599.0064   21898603.7844
  19023875.732   -11401256.71049  -8877064.03149  19023877.4384   19023882.8324
  19424872.291    -4852907.69049  -3774254.22349  19424874.5524   19424880.3454
  20331804.579   -19296529.15149 -15011190.97049  20331806.4154   20331811.7474
  21983931.539   -13336589.69349 -10358250.30949  21983934.3714   21983942.6004
  17953817.424   -22101891.93649 -17200830.71149  17953819.4134   17953824.6304
  21621453.874   -15158105.44549 -11793477.58549  21621455.2944   21621461.4464
 96  5 13 17 44 59.9920000  0  7  9  2 27 26  4  7 15
  21865480.279   -14280789.16149 -10699093.95249  21865481.9844   21865488.3864
  19013814.252   -11454130.27049  -8918264.20949  19013816.1304   19013821.4234
  19426066.028    -4846629.22849  -3769361.94249  19426069.4904   19426075.1624
  20319587.724   -19360725.67749 -15061214.25149  20319589.8544   20319595.6044
  21949888.143   -13515494.16249 -10497656.29249  21949890.3174   21949897.8374
  17937962.030   -22185211.08349 -17265754.70949  17937964.3654   17937969.4284
  21613816.078   -15198236.66749 -11824748.67049  21613818.9554   21613825.3624
 96  5 13 17 45 29.9920000  0  7  9  2 27 26  4  7 15
  21832372.643   -14454772.22749 -10834665.11849  21832374.5584   21832379.8614
  19003781.600   -11506852.12149  -8959346.17649  19003783.5594   19003788.4784
  19427322.416    -4840039.32549  -3764226.97949  19427323.4414   19427329.2684
  20307457.172   -19424468.72049 -15110884.17249  20307460.2284   20307465.8064
  21915832.167   -13694461.12049 -10637110.97349  21915834.4984   21915840.9284
  17922185.931   -22268111.10249 -17330352.11549  17922188.8904   17922194.0394
  21606277.242   -15237858.89949 -11855623.15549  21606278.6054   21606284.8624
 96  5 13 17 45 59.9920000  0  7  9  2 27 26  4  7 15
  21799270.963   -14628727.88649 -10970214.96649  21799272.6834   21799277.6684
  18993778.676   -11559417.91149  -9000306.54149  18993780.6584   18993785.8784
  19428633.086    -4833140.95049  -3758851.66449  19428636.5024   19428641.9184
  20295411.547   -19487773.40849 -15160212.52149  20295413.9224   20295419.1614
  21881764.132   -13873482.30849 -10776607.91649  21881767.7314   21881774.1914
  17906492.878   -22350583.41849 -17394616.24949  17906494.9014   17906499.9544
  21598832.869   -15276975.96849 -11886104.00649  21598834.9014   21598840.5904
 96  5 13 17 46 29.9920000  0  7  9  2 27 26  4  7 15
  21766164.523   -14802694.28849 -11105773.15649  21766167.8404   21766173.8094
  18983799.825   -11611857.55349  -9041168.60249  18983801.7424   18983806.7714
  19430003.965    -4825951.58849  -3753249.61549  19430004.8204   19430010.0984
  20283448.513   -19550646.78449 -15209204.77949  20283449.2174   20283454.7334
  21847683.949   -14052579.95649 -10916164.43649  21847686.4534   21847693.0014
  17890876.123   -22432649.33449 -17458563.70149  17890878.5264   17890883.6004
  21591480.471   -15315610.76849 -11916209.04649  21591483.2664   21591490.2934
 96  5 13 17 46 59.9920000  0  7  9  2 27 26  4  7 15
  21733060.744   -14976658.12349 -11241329.33449  21733062.4894   21733068.0644
  18973844.843   -11664171.02449  -9081932.34149  18973846.8644   18973852.1724
  19431428.460    -4818455.78949  -3747408.78249  19431430.9554   19431436.4304
  20271567.815   -19613067.43849 -15257844.25549  20271571.8414   20271576.7204
  21813586.210   -14231764.92249 -11055789.00849  21813588.8524   21813593.9844
  17875339.422   -22514292.31649 -17522181.59349  17875342.3084   17875347.4364
  21584222.955   -15353754.12549 -11945931.13949  21584223.8114   21584230.9444
 96  5 13 17 47 29.9920000  0  7  9  2 27 26  4  7 15
  21699957.490   -15150623.45249 -11376886.69949  21699958.7184   21699965.3534
  18963913.511   -11716360.00249  -9122599.07249  18963915.6024   18963920.7324
  19432917.567    -4810629.96949  -3741310.78049  19432920.0394   19432925.7094
  20259776.724   -19675033.30449 -15306129.36349  20259779.8024   20259784.9964
  21779475.364   -14411017.84449 -11195466.53449  21779477.5294   21779484.5254
  17859886.323   -22595499.85649 -17585460.17949  17859888.8904   17859894.2014
  21577059.731   -15391400.24549 -11975265.78449  21577061.0794   21577067.7364
 96  5 13 17 47 59.9920000  0  7  9  2 27 26  4  7 15
  21666845.801   -15324613.02349 -11512462.95449  21666849.7724   21666856.1604
  18953996.149   -11768477.07749  -9163209.77849  18953997.7484   18954003.1354
  19434460.179    -4802519.17749  -3734990.71549  19434463.4884   19434469.4734
  20248067.418   -19736567.61849 -15354078.19349  20248070.1004   20248074.9214
  21745345.522   -14590360.22449 -11335213.77449  21745350.3764   21745356.5694
  17844506.763   -22676321.39449 -17648437.98449  17844509.0674   17844514.2194
  21569981.906   -15428583.57349 -12004239.82549  21569985.5474   21569990.8704
 96  5 13 17 48 29.9920000  0  7  9  2 27 26  4  7 15
  21633734.392   -15498621.97449 -11648054.29749  21633736.9064   21633741.6374
  18944084.685   -11820562.54849  -9203795.86149  18944086.5174   18944091.7594
  19436055.037    -4794149.75449  -3728469.11049  19436056.2464   19436061.9784
  20236436.259   -19797688.38749 -15401704.77949  20236439.5724   20236444.7824
  21711199.398   -14769805.50149 -11475041.19149  21711202.6944   21711209.6984
  17829194.674   -22756785.14649 -17711137.00049  17829197.1444   17829202.1584
  21562990.597   -15465332.86649 -12032875.64249  21562992.5424   21562997.9454
 96  5 13 17 48 59.9920000  0  7  9  2 27 26  4  7 15
  21600626.528   -15672599.79949 -11783621.39849  21600629.0984   21600636.1814
  18934188.015   -11872571.05849  -9244321.97749  18934189.6824   18934194.7884
  19437701.591    -4785492.78149  -3721723.43549  19437703.6224   19437709.0954
  20224887.674   -19858377.90049 -15448995.31449  20224890.1964   20224895.8864
  21677042.568   -14949309.94249 -11614914.70749  21677044.0324   21677051.1314
  17813958.739   -22836853.68949 -17773528.05849  17813961.0904   17813965.9984
  21556084.015   -15501613.73349 -12061146.46849  21556087.9964   21556094.7824
 96  5 13 17 49 29.9920000  0  7  9  2 27 26  4  7 15
  21567533.897   -15846506.37649 -11919132.96349  21567536.4814   21567541.6484
  18924315.182   -11924451.91349  -9284748.61749  18924317.0994   18924322.3244
  19439409.756    -4776511.92849  -3714725.39149  19439412.7324   19439418.1334
  20213427.216   -19918602.95649 -15495923.95049  20213429.8774   20213435.3054
  21642878.805   -15128832.53549 -11754802.36849  21642881.6794   21642889.3054
  17798803.017   -22916495.41349 -17835586.54149  17798805.3134   17798810.4244
  21549276.723   -15537388.02049 -12089022.55549  21549280.6534   21549286.6234
 96  5 13 17 49 59.9920000  0  7  9  2 27 26  4  7 15
  21534445.005   -16020384.61849 -12054622.45549  21534448.9294   21534453.1134
  18914460.034   -11976241.64349  -9325104.24749  18914461.8034   18914467.0144
  19441171.611    -4767256.93649  -3707513.74949  19441173.4364   19441179.2204
  20202047.135   -19978402.76049 -15542521.21049  20202050.8714   20202055.7354
  21608706.228   -15308411.56349 -11894733.99049  21608708.9244   21608715.7844
  17783719.274   -22995760.73949 -17897351.72049  17783721.8364   17783726.8684
  21542557.153   -15572702.31149 -12116540.20049  21542561.2134   21542566.6904
 96  5 13 17 50 29.9920000  0  7  9  2 27 26  4  7 15
  21501360.818   -16194252.31249 -12190103.73049  21501361.7904   21501367.6604
  18904624.732   -12027927.07349  -9365378.60949  18904626.4294   18904631.6534
  19442987.334    -4757713.13849  -3700077.06149  19442990.0014   19442995.4534
  20190748.568   -20037779.38449 -15588788.72049  20190751.3954   20190757.2614
  21574522.914   -15488045.57149 -12034708.46249  21574526.4574   21574532.7384
  17768709.005   -23074641.51949 -17958817.25749  17768711.3924   17768716.6864
  21535926.191   -15607551.34649 -12143695.30949  21535929.2794   21535935.5314
 96  5 13 17 50 59.9910000  0  7  9  2 27 26  4  7 15
  21468279.900   -16368091.05849 -12325562.45449  21468281.1514   21468286.8984
  18894814.702   -12079478.29249  -9405548.38749  18894816.5774   18894821.9064
  19444865.404    -4747851.18349  -3692392.46549  19444866.8634   19444872.0734
  20179535.914   -20096704.33449 -15634704.27549  20179538.8754   20179544.1694
  21540334.375   -15667710.47449 -12174707.01149  21540336.9514   21540343.2594
  17753776.226   -23153117.03549 -18019967.00549  17753778.1084   17753783.1344
  21529389.588   -15641903.73149 -12170463.40449  21529391.2024   21529398.9754
 96  5 13 17 51 29.9910000  0  7  9  2 27 26  4  7 15
  21435198.004   -16541935.43849 -12461025.54649  21435200.8064   21435205.5004
  18885021.020   -12130946.17849  -9445653.23549  18885022.5564   18885027.8404
  19446794.962    -4737699.21449  -3684481.87949  19446798.8574   19446804.1874
  20168404.258   -20155201.29449 -15680286.34049  20168406.7554   20168412.4164
  21506129.036   -15847450.38949 -12314763.98049  21506133.2424   21506139.9494
  17738911.673   -23231226.03949 -18080831.15849  17738914.3474   17738919.3914
  21522942.222   -15675792.78349 -12196870.47749  21522943.1214   21522950.0564
 96  5 13 17 51 59.9910000  0  7  9  2 27 26  4  7 15
  21402119.574   -16715763.47949 -12596475.93449  21402122.2714   21402128.3144
  18875241.517   -12182337.74849  -9485698.61549  18875242.9494   18875248.3194
  19448783.247    -4727259.38249  -3676346.97549  19448785.4884   19448790.5794
  20157354.082   -20213269.51449 -15725534.31749  20157356.5064   20157361.8104
  21471914.783   -16027244.92849 -12454863.53049  21471919.5224   21471925.8084
  17724118.983   -23308962.54549 -18141405.04949  17724121.5444   17724126.4694
  21516581.011   -15709216.73149 -12222915.11849  21516582.1784   21516589.2984
 96  5 13 17 52 29.9910000  0  7  9  2 27 26  4  7 15
  21369051.824   -16889534.94349 -12731882.22049  21369055.0314   21369059.2424
  18865478.643   -12233640.36449  -9525674.68849  18865480.6164   18865485.5754
  19450831.035    -4716499.62949  -3667962.78549  19450832.8184   19450838.1534
  20146391.049   -20270887.96449 -15770431.82649  20146392.1624   20146397.7594
  21437695.598   -16207074.29849 -12594990.21249  21437700.0744   21437705.4214
  17709405.308   -23386285.34649 -18201656.57949  17709407.3794   17709412.3584
  21510313.113   -15742147.46549 -12248575.45349  21510315.7534   21510322.7444
 96  5 13 17 52 59.9910000  0  7  9  2 27 26  4  7 15
  21335988.297   -17063285.23749 -12867272.01449  21335991.4304   21335996.9764
  18855722.451   -12284908.59249  -9565623.96249  18855724.5364   18855729.8474
  19452924.625    -4705484.74249  -3659379.79249  19452928.3494   19452934.7794
  20135499.634   -20328113.50149 -15815023.16849  20135503.0844   20135507.9734
  21403456.934   -16386993.45849 -12735186.86449  21403462.2574   21403466.9014
  17694757.343   -23463257.21449 -18261634.65049  17694760.1264   17694765.3914
  21504128.729   -15774647.89749 -12273900.48449  21504130.9394   21504138.0294
 96  5 13 17 53 29.9910000  0  7  9  2 27 26  4  7 15
  21302944.723   -17236929.54449 -13002579.21749  21302948.0604   21302953.3584
  18845994.058   -12336032.47849  -9605460.75349  18845996.0914   18846001.4814
  19455086.666    -4694139.20449  -3650539.14749  19455088.3134   19455093.1724
  20124699.920   -20384867.97649 -15859247.44649  20124703.0014   20124708.2454
  21369218.708   -16566918.59149 -12875388.15549  21369223.4604   21369229.1424
  17680193.731   -23539790.39449 -18321270.88749  17680196.6214   17680201.5264
  21498043.062   -15806639.83249 -12298829.26849  21498043.9124   21498049.6324
 96  5 13 17 53 59.9910000  0  7  9  2 27 26  4  7 15
  21269906.798   -17410541.39449 -13137861.13849  21269910.1504   21269915.4904
  18836285.458   -12387050.42849  -9645215.00549  18836287.5234   18836292.7144
  19457295.519    -4682522.91749  -3641487.52149  19457298.5024   19457304.0364
  20113978.510   -20441215.31249 -15903154.47749  20113980.5534   20113985.2064
  21334968.236   -16746905.12349 -13015637.29849  21334973.0214   21334978.1254
  17665704.830   -23615934.20249 -18380603.72249  17665706.8014   17665711.8744
  21492040.065   -15838182.16849 -12323407.75149  21492042.0874   21492048.8864
 96  5 13 17 54 29.9910000  0  7  9  2 27 26  4  7 15
  21236887.427   -17584065.27249 -13273074.49549  21236889.4414   21236895.7504
  18826611.975   -12437886.02849  -9684827.16049  18826613.9174   18826618.9604
  19459569.275    -4670579.65149  -3632181.10949  19459571.1454   19459576.2054
  20103345.727   -20497087.85449 -15946691.53249  20103348.0814   20103353.9984
  21300717.431   -16926895.85149 -13155889.70149  21300720.8204   21300727.4384
  17651300.003   -23691629.05549 -18439586.71449  17651302.7044   17651307.6894
  21486135.197   -15869214.27849 -12347588.63049  21486136.5824   21486142.3624
 96  5 13 17 54 59.9910000  0  7  9  2 27 26  4  7 15
  21203872.651   -17757556.53549 -13408262.45249  21203874.6124   21203880.5464
  18816966.244   -12488572.81549  -9724323.36849  18816968.2794   18816973.6724
  19461892.981    -4658368.17149  -3622665.69049  19461895.1274   19461900.4794
  20092793.790   -20552537.53449 -15989899.09149  20092796.0014   20092801.4914
  21266459.491   -17106927.45649 -13296173.98749  21266461.4774   21266468.6154
  17636969.901   -23766935.04349 -18498266.70349  17636972.2384   17636977.5164
  21480315.167   -15899790.04749 -12371413.91849  21480317.8324   21480324.8754
 96  5 13 17 55 29.9910000  0  7  9  2 27 26  4  7 15
  21170869.077   -17930994.96849 -13543409.22749  21170871.3254   21170876.4764
  18807350.458   -12539102.84949  -9763697.41249  18807352.5324   18807357.8084
  19464273.095    -4645858.80049  -3612918.14749  19464275.5814   19464281.1304
  20082326.702   -20607543.61749 -16032760.99749  20082329.1084   20082334.9764
  21232198.030   -17286965.54749 -13436463.31949  21232202.4104   21232208.1804
  17622720.581   -23841813.27049 -18556613.36149  17622723.4244   17622728.2424
  21474588.537   -15929883.63249 -12394863.48949  21474591.1914   21474598.9514
 96  5 13 17 55 59.9910000  0  7  9  2 27 26  4  7 15
  21137871.497   -18104395.22049 -13678526.27949  21137873.7024   21137880.3544
  18797756.094   -12589522.29549  -9802985.29749  18797758.0974   18797763.6744
  19466707.245    -4633067.27349  -3602950.74849  19466709.6824   19466715.7494
  20071938.898   -20662131.99749 -16075297.40649  20071941.2544   20071947.1294
  21197936.985   -17467016.53349 -13576762.70149  21197939.6734   21197945.4234
  17608549.697   -23916282.09749 -18614641.01649  17608552.5174   17608557.2534
  21468949.921   -15959515.20049 -12417953.05649  21468953.6124   21468958.6094
 96  5 13 17 56 29.9910000  0  7  9  2 27 26  4  7 15
  21104880.519   -18277764.84349 -13813619.44149  21104883.1134   21104888.9064
  18788178.346   -12639855.96249  -9842206.33049  18788180.1074   18788185.5414
  19469190.852    -4620018.48549  -3592782.87549  19469192.9394   19469198.2734
  20061626.269   -20716320.42049 -16117522.17449  20061629.9814   20061635.2274
  21163667.339   -17647097.52049 -13717085.48449  21163670.6044   21163677.5084
  17594448.381   -23990385.23349 -18672383.70349  17594451.3224   17594456.0594
  21463393.950   -15988710.18449 -12440702.40449  21463397.3054   21463402.9224
 96  5 13 17 56 59.9910000  0  7  9  2 27 26  4  7 15
  21071908.761   -18451036.64149 -13948636.38549  21071909.5574   21071916.0804
  18778626.574   -12690051.57549  -9881319.79749  18778628.4804   18778633.5294
  19471735.538    -4606645.98049  -3582362.78349  19471737.7024   19471743.1104
  20051401.522   -20770051.68049 -16159390.69549  20051405.1414   20051410.5184
  21129408.773   -17827137.93549 -13857376.63649  21129410.5984   21129417.0264
  17580427.869   -24064063.95749 -18729795.68849  17580430.3774   17580435.4654
  21457932.880   -16017408.57249 -12463064.80749  21457936.1834   21457942.2274
 96  5 13 17 57 29.9910000  0  7  9  2 27 26  4  7 15
  21038961.051   -18624166.29149 -14083542.56949  21038963.7734   21038970.3994
  18769107.688   -12740074.99149  -9920299.08649  18769109.2454   18769114.5054
  19474344.288    -4592927.27449  -3571672.91749  19474348.1094   19474353.5754
  20041272.056   -20823289.37749 -16200874.63349  20041273.6734   20041279.5524
  21095159.500   -18007111.91949 -13997616.03849  21095163.7134   21095168.5954
  17566493.083   -24137292.28049 -18786856.71649  17566495.7024   17566500.6064
  21452573.251   -16045579.54249 -12485016.23449  21452575.7594   21452581.4484
 96  5 13 17 57 59.9910000  0  7  9  2 27 26  4  7 15
  21006032.384   -18797215.96749 -14218386.41749  21006034.1174   21006039.4494
  18759614.230   -12789961.21049  -9959171.46549  18759616.4444   18759621.4304
  19477009.255    -4578934.01349  -3560769.11249  19477011.1634   19477016.6294
  20031226.826   -20876075.61649 -16242006.79249  20031228.8324   20031234.1584
  21060912.453   -18187079.06549 -14137850.11449  21060915.9824   21060922.8614
  17552629.480   -24210146.31349 -18843626.08249  17552632.0154   17552636.9254
  21447301.743   -16073279.28849 -12506600.46149  21447304.0584   21447310.2444
 96  5 13 17 58 29.9910000  0  7  9  2 27 26  4  7 15
  20973117.008   -18970187.28049 -14353169.21749  20973118.3234   20973123.7894
  18750150.387   -12839695.75049  -9997925.66249  18750152.0824   18750157.1324
  19479722.322    -4564669.44949  -3549653.89849  19479725.4704   19479731.3504
  20021269.435   -20928397.69049 -16282777.26149  20021272.9944   20021278.0624
  21026667.023   -18367040.02449 -14278079.38149  21026670.5664   21026676.9984
  17538836.443   -24282626.35649 -18900104.03549  17538839.4894   17538844.4114
  21442121.396   -16100505.82949 -12527815.96949  21442123.0774   21442128.0374
 96  5 13 17 58 59.9910000  0  7  9  2 27 26  4  7 15
  20940214.872   -19143084.90349 -14487894.58049  20940217.4144   20940222.3604
  18740712.684   -12889290.23349 -10036570.70949  18740714.4464   18740719.4944
  19482488.674    -4550131.70749  -3538325.81749  19482491.2284   19482497.6814
  20011399.729   -20980267.17049 -16323195.05449  20011401.9064   20011407.9164
  20992425.652   -18546988.76849 -14418299.12449  20992427.7664   20992433.7464
  17525118.044   -24354719.21649 -18956280.28649  17525120.6484   17525125.7104
  21437031.318   -16127256.09749 -12548660.34349  21437032.1634   21437038.4484
 96  5 13 17 59 29.9910000  0  7  9  2 27 26  4  7 15
  20907321.011   -19315944.91149 -14622590.64149  20907322.6724   20907328.6404
  18731297.363   -12938767.58649 -10075124.49649  18731299.3754   18731304.9094
  19485302.302    -4535349.94549  -3526807.58649  19485304.1724   19485310.6914
  20001607.743   -21031720.12549 -16363288.28949  20001611.0824   20001616.2164
  20958178.539   -18726955.23149 -14558532.67449  20958180.9034   20958186.0194
  17511467.885   -24426452.94849 -19012176.69649  17511470.0434   17511475.1704
  21432026.077   -16153557.75149 -12569155.16849  21432027.8234   21432034.5734
 96  5 13 17 59 59.9910000  0  7  9  2 27 26  4  7 15
  20874433.868   -19488770.15049 -14757259.61349  20874436.1184   20874441.4394
  18721903.187   -12988133.80249 -10113591.68949  18721905.1534   18721910.3584
  19488169.480    -4520290.84449  -3515073.27049  19488171.0434   19488176.6544
  19991895.969   -21082759.55149 -16403059.29249  19991898.5014   19991903.9134
  20923930.796   -18906924.24149 -14698768.20549  20923933.9404   20923939.0664
  17497889.583   -24497805.40349 -19067776.00349  17497892.1304   17497897.0824
  21427108.753   -16179399.15149 -12589291.34849  21427110.6584   21427116.1514
 96  5 13 18  0 29.9910000  0  7  9  2 27 26  4  7 15
  20841552.926   -19661557.40749 -14891898.98149  20841555.7984   20841561.4244
  18712524.006   -13037421.34249 -10151997.56749  18712526.0824   18712531.3484
  19491086.309    -4504947.48649  -3503117.44549  19491089.9164   19491096.0784
  19982254.861   -21133425.14849 -16442538.99949  19982257.1724   19982262.5874
  20889684.199   -19086891.04449 -14839002.02249  20889686.8884   20889694.1254
  17484383.502   -24568779.87549 -19123080.78049  17484386.2654   17484391.2974
  21422275.904   -16204795.74049 -12609080.93649  21422277.3274   21422284.1764
 96  5 13 18  0 59.9900000  0  7  9  2 27 26  4  7 15
  20808686.631   -19834275.21849 -15026484.23549  20808688.0854   20808694.2724
  18703161.271   -13086622.28249 -10190335.96649  18703163.3954   18703168.9424
  19494064.857    -4489307.76349  -3490930.70049  19494066.3134   19494072.4574
  19972683.540   -21183714.98949 -16481725.90449  19972687.5324   19972693.1994
  20855444.296   -19266825.41549 -14979210.56549  20855447.1394   20855452.7074
  17470952.370   -24639361.84549 -19178079.71549  17470954.9324   17470959.8724
  21417530.275   -16229734.45849 -12628513.72949  21417531.7874   21417538.9164
 96  5 13 18  1 29.9900000  0  7  9  2 27 26  4  7 15
  20775846.838   -20006844.55849 -15160953.81649  20775849.6404   20775854.5714
  18693828.876   -13135665.36249 -10228551.36349  18693830.7494   18693836.0814
  19497112.704    -4473290.03249  -3478449.38849  19497114.5054   19497120.3114
  19963202.247   -21233543.81249 -16520553.57849  19963205.4604   19963210.5544
  20821224.653   -19446656.01849 -15119338.25249  20821226.1944   20821232.3034
  17457610.129   -24709475.15449 -19232713.45849  17457612.7274   17457617.9374
  21412884.404   -16254140.73749 -12647531.62749  21412887.6994   21412893.8624
 96  5 13 18  1 59.9900000  0  7  9  2 27 26  4  7 15
  20743035.912   -20179270.23349 -15295311.43449  20743037.7734   20743043.0684
  18684521.394   -13184578.12449 -10266665.21549  18684523.1474   18684528.5164
  19500225.359    -4456929.80949  -3465701.20949  19500227.8984   19500234.4904
  19953806.416   -21282922.56249 -16559030.54349  19953809.1214   19953814.0714
  20787023.092   -19626389.48849 -15259390.25449  20787023.4344   20787029.8124
  17444352.942   -24779142.39449 -19286999.61349  17444355.5344   17444360.6044
  21408336.383   -16278043.52449 -12666157.20149  21408339.6954   21408345.5354
 96  5 13 18  2 29.9900000  0  7  9  2 27 26  4  7 15
  20710272.560   -20351442.71449 -15429471.77149  20710273.6524   20710279.4044
  18675258.000   -13233252.68249 -10304593.45649  18675260.6294   18675266.0614
  19503416.673    -4440163.14149  -3452636.31749  19503418.6744   19503424.0154
  19944516.543   -21331745.69949 -16597074.54949  19944518.4634   19944523.6384
  20752855.570   -19805935.23149 -15399295.98549  20752857.5324   20752864.3944
  17431195.129   -24848288.63649 -19340879.79949  17431197.4084   17431202.6514
  21403900.380   -16301358.35549 -12684324.63149  21403902.4654   21403908.8534
 96  5 13 18  2 59.9900000  0  7  9  2 27 26  4  7 15
  20677580.018   -20523240.05449 -15563339.77649  20677582.5274   20677587.9694
  18666070.096   -13281539.31349 -10342219.40949  18666072.0454   18666077.5494
  19506705.655    -4422878.16449  -3439167.53649  19506707.7574   19506713.2504
  19935358.973   -21379863.65949 -16634569.09149  19935361.3774   19935367.4904
  20718744.205   -19985191.20149 -15538975.90649  20718746.9524   20718752.3324
  17418160.734   -24916782.44249 -19394251.58949  17418163.6294   17418168.3384
  21399600.135   -16323957.80649 -12701934.61449  21399601.8354   21399608.0984
 96  5 13 18  3 29.9900000  0  7  9  2 27 26  4  7 15
  20644877.387   -20695094.16149 -15697252.02049  20644880.6644   20644884.3934
  18656876.174   -13329852.67849 -10379866.20449  18656878.4184   18656883.4414
  19510012.034    -4405500.05849  -3425626.20949  19510015.2264   19510020.4484
  19926258.752   -21427687.80849 -16671834.68249  19926261.3524   19926267.0164
  20684604.687   -20164595.80249 -15678771.64149  20684607.4824   20684612.7064
  17405169.818   -24985051.22249 -19447448.04149  17405172.3154   17405177.1034
  21395353.940   -16346273.26549 -12719323.32849  21395355.3964   21395362.7954
 96  5 13 18  3 59.9900000  0  7  9  2 27 26  4  7 15
  20612188.786   -20866876.83849 -15831108.59849  20612190.9224   20612195.9284
  18647706.354   -13378039.09549 -10417414.07349  18647708.6004   18647714.1284
  19513360.888    -4387905.86049  -3411916.48649  19513363.5694   19513368.4084
  19917237.267   -21475093.15949 -16708773.92949  19917239.7444   19917245.2984
  20650460.606   -20344022.77149 -15818584.81449  20650462.5914   20650468.1754
  17392244.891   -25052970.35749 -19500372.04149  17392247.8534   17392252.8144
  21391184.066   -16368179.75849 -12736393.34149  21391186.7204   21391193.3874
 96  5 13 18  4 29.9900000  0  7  9  2 27 26  4  7 15
  20579510.306   -21038600.07449 -15964918.87249  20579513.0964   20579518.8484
  18638559.564   -13426105.09049 -10454868.10749  18638561.8574   18638567.6324
  19516749.285    -4370097.75949  -3398040.10549  19516751.7854   19516758.0304
  19908292.421   -21522098.21249 -16745401.26149  19908295.1734   19908300.6884
  20616311.690   -20523478.14449 -15958420.12449  20616313.6594   20616320.1814
  17379386.441   -25120545.03949 -19553027.63649  17379389.0074   17379393.9034
  21387092.561   -16389680.45049 -12753147.16949  21387095.7034   21387101.7074
 96  5 13 18  4 59.9900000  0  7  9  2 27 26  4  7 15
  20546840.020   -21210283.66249 -16098698.24049  20546842.2294   20546847.9704
  18629430.451   -13474080.15049 -10492251.28549  18629432.4784   18629438.1234
  19520177.757    -4352083.81049  -3384003.31749  19520179.6134   19520185.2814
  19899418.037   -21568736.11349 -16781742.49549  19899420.7864   19899424.9564
  20582156.897   -20702960.80349 -16098276.66449  20582158.3234   20582164.4244
  17366590.425   -25187787.48249 -19605424.34349  17366593.0714   17366598.0274
  21383076.290   -16410788.29749 -12769594.87049  21383078.9774   21383085.3044
 96  5 13 18  5 29.9900000  0  7  9  2 27 26  4  7 15
  20514199.823   -21381812.86249 -16232357.30349  20514201.5984   20514207.0754
  18620336.063   -13521871.38949 -10529491.22749  18620338.4234   18620343.5644
  19523663.560    -4333762.73849  -3369727.21349  19523666.5964   19523671.8324
  19890629.107   -21614921.07249 -16817730.79749  19890632.1254   19890637.0254
  20548024.277   -20882326.42249 -16238042.02149  20548027.2914   20548032.9194
  17353876.619   -25254599.63049 -19657485.75649  17353879.1704   17353884.2514
  21379155.813   -16431399.53849 -12785655.60749  21379157.1684   21379163.4754
 96  5 13 18  5 59.9900000  0  7  9  2 27 26  4  7 15
  20481580.621   -21553223.29249 -16365923.82949  20481583.2604   20481588.1384
  18611267.389   -13569529.07349 -10566627.09149  18611269.5444   18611274.6444
  19527199.726    -4315179.45349  -3355246.78649  19527202.9954   19527208.4864
  19881913.808   -21660719.08249 -16853417.56949  19881916.9914   19881921.9524
  20513907.423   -21061597.03249 -16377733.33949  20513912.9954   20513919.0944
  17341236.442   -25321023.17049 -19709244.35649  17341239.3834   17341244.4324
  21375319.359   -16451552.60249 -12801359.32149  21375321.3764   21375327.2494
 96  5 13 18  6 29.9900000  0  7  9  2 27 26  4  7 15
  20448977.803   -21724555.35949 -16499429.28449  20448979.7964   20448984.9574
  18602214.794   -13617101.59449 -10603696.60049  18602216.7134   18602222.0104
  19530778.702    -4296376.34249  -3340595.06149  19530781.0894   19530786.7924
  19873262.313   -21706184.86149 -16888845.46849  19873264.8754   19873269.5814
  20479806.846   -21240805.91349 -16517376.54849  20479810.5174   20479815.8654
  17328662.700   -25387101.16349 -19760733.70249  17328665.0664   17328670.0154
  21371563.568   -16471288.85649 -12816738.26149  21371565.6964   21371572.7764
 96  5 13 18  6 59.9900000  0  7  9  2 27 26  4  7 15
  20416395.937   -21895771.84649 -16632844.68149  20416398.7704   20416404.2824
  18593186.969   -13664543.86449 -10640664.61849  18593188.8064   18593194.3184
  19534403.224    -4277319.31449  -3325745.47049  19534406.5674   19534412.5204
  19864682.708   -21751273.49949 -16923979.47449  19864684.5854   19864689.6644
  20445723.471   -21419915.60449 -16656942.47449  20445727.5574   20445732.7124
  17316162.092   -25452790.53449 -19811920.22749  17316164.7264   17316169.7404
  21367892.231   -16490575.66749 -12831766.96849  21367896.3004   21367902.3534
 96  5 13 18  7 29.9900000  0  7  9  2 27 26  4  7 15
  20383833.066   -22066888.04949 -16766181.93749  20383836.0404   20383841.8044
  18584183.187   -13711858.74149 -10677533.36549  18584185.0924   18584190.6204
  19538076.506    -4258029.24749  -3310714.29749  19538077.9444   19538083.5644
  19856174.771   -21795982.59549 -16958817.74549  19856176.8374   19856182.4534
  20411654.398   -21598950.90049 -16796450.42949  20411658.5604   20411663.6684
  17303732.253   -25518111.27549 -19862819.50549  17303734.5164   17303739.5704
  21364306.050   -16509433.39049 -12846461.34349  21364307.5574   21364314.3114
 96  5 13 18  7 59.9900000  0  7  9  2 27 26  4  7 15
  20351308.742   -22237813.11349 -16899370.24549  20351309.9344   20351315.8854
  18575222.773   -13758945.71749 -10714224.53749  18575224.7014   18575230.2314
  19541806.860    -4238416.61149  -3295431.77549  19541810.2744   19541815.9414
  19847759.192   -21840201.48849 -16993274.04349  19847762.5804   19847767.7364
  20377613.617   -21777839.34649 -16935843.94849  20377616.6834   20377621.3784
  17291388.744   -25582975.68649 -19913363.19949  17291391.1944   17291396.2474
  21360816.218   -16527771.96949 -12860751.17149  21360817.9854   21360823.2064
 96  5 13 18  8 29.9900000  0  7  9  2 27 26  4  7 15
  20318799.539   -22408643.98149 -17032485.16349  20318802.2524   20318807.1314
  18566288.329   -13805897.53749 -10750810.38649  18566290.1264   18566295.6854
  19545581.856    -4218587.16849  -3279980.29749  19545583.1804   19545589.6384
  19839422.995   -21884009.74749 -17027410.35549  19839426.4134   19839431.7514
  20343577.264   -21956695.96349 -17075212.66349  20343580.8784   20343585.3914
  17279112.393   -25647487.88449 -19963632.43849  17279115.1384   17279119.9544
  21357406.345   -16545690.92349 -12874714.02149  21357407.2204   21357414.7164
 96  5 13 18  8 59.9900000  0  7  9  2 27 26  4  7 15
  20286327.721   -22579283.42849 -17165450.91549  20286330.7614   20286335.4754
  18557398.251   -13852614.38849 -10787213.14449  18557400.1204   18557405.6284
  19549414.209    -4198437.33249  -3264279.17849  19549418.1584   19549424.2594
  19831186.452   -21927294.13349 -17061138.45349  19831189.5824   19831194.5734
  20309569.620   -22135417.34249 -17214476.01249  20309571.1924   20309576.7994
  17266920.447   -25711557.87049 -20013557.09749  17266922.8764   17266927.6274
  21354095.466   -16563087.82849 -12888270.08449  21354096.3394   21354103.6244
 96  5 13 18  9 29.9900000  0  7  9  2 27 26  4  7 15
  20253889.279   -22749748.07449 -17298280.46449  20253891.1774   20253896.9624
  18548547.761   -13899123.08849 -10823453.70049  18548549.9354   18548555.3424
  19553307.179    -4177989.53849  -3248345.88849  19553308.8194   19553314.8574
  19823040.813   -21970098.54649 -17094492.56449  19823043.5864   19823049.1884
  20275580.340   -22314031.78649 -17353656.03249  20275582.4454   20275587.2024
  17254805.541   -25775221.64449 -20063165.23249  17254808.1184   17254813.1564
  21350879.955   -16579987.62349 -12901438.78849  21350881.1324   21350888.4964
 96  5 13 18  9 59.9900000  0  7  9  2 27 26  4  7 15
  20221474.024   -22920092.71649 -17431016.50149  20221476.4664   20221481.7234
  18539726.869   -13945479.78849 -10859575.81949  18539728.7284   18539733.9804
  19557247.162    -4157283.40249  -3232211.28649  19557249.3714   19557254.8624
  19814973.330   -22012495.88449 -17127529.46549  19814975.8644   19814981.2684
  20241605.804   -22492575.77749 -17492781.15349  20241606.8914   20241611.7684
  17242760.863   -25838516.62249 -20112485.99649  17242763.5154   17242768.2704
  21347747.392   -16596441.71149 -12914260.18449  21347750.2254   21347757.1084
 96  5 13 18 10 29.9900000  0  7  9  2 27 26  4  7 15
  20189079.311   -23090328.71249 -17563667.87649  20189082.1134   20189086.0444
  18530929.343   -13991710.68949 -10895599.90749  18530931.4864   18530936.4654
  19561233.770    -4136327.53649  -3215882.09149  19561237.6344   19561243.8074
  19806976.492   -22054521.61249 -17160276.79549  19806978.9354   19806983.8084
  20207641.864   -22671050.75449 -17631852.51049  20207643.5504   20207648.9634
  17230785.224   -25901447.50849 -20161523.04749  17230788.0754   17230793.0154
  21344697.536   -16612468.43849 -12926748.57349  21344700.7694   21344706.8754
 96  5 13 18 10 59.9890000  0  7  9  2 27 26  4  7 15
  20156711.627   -23260422.99849 -17696208.83549  20156713.0474   20156719.0654
  18522155.458   -14037815.73949 -10931525.92949  18522157.6234   18522162.9274
  19565273.016    -4115105.28449  -3199345.32949  19565274.9364   19565280.9874
  19799048.841   -22096177.97649 -17192736.31249  19799051.8014   19799056.4794
  20173699.314   -22849416.62249 -17770838.84049  20173701.7614   20173707.1304
  17218884.354   -25963987.77749 -20210255.72049  17218887.0624   17218892.1084
  21341731.901   -16628063.33449 -12938900.46949  21341732.4664   21341738.9934
 96  5 13 18 11 29.9890000  0  7  9  2 27 26  4  7 15
  20124383.000   -23430311.87349 -17828589.73049  20124384.9744   20124389.7664
  18513415.056   -14083746.72049 -10967316.31349  18513417.3554   18513422.6294
  19569369.634    -4093579.39349  -3182571.96149  19569371.6744   19569377.7594
  19791202.104   -22137413.08549 -17224867.57349  19791205.5004   19791210.4924
  20139785.182   -23027631.48849 -17909707.49549  20139788.5234   20139794.5384
  17207070.010   -26026072.15749 -20258633.15749  17207072.9254   17207077.7644
  21338854.882   -16643180.46249 -12950680.07749  21338856.2554   21338863.4194
 96  5 13 18 11 59.9890000  0  7  9  2 27 26  4  7 15
  20092092.595   -23599997.35449 -17960812.15349  20092095.4164   20092100.4764
  18504706.770   -14129510.17849 -11002976.16149  18504709.0434   18504714.2814
  19573521.079    -4071764.41049  -3165573.33449  19573522.2734   19573528.6764
  19783437.715   -22178214.52749 -17256660.92749  19783441.5344   19783446.0314
  20105903.396   -23205681.44649 -18048447.68049  20105906.2854   20105912.3184
  17195341.787   -26087705.02949 -20306658.77349  17195344.4544   17195349.5044
  21336066.533   -16657829.46449 -12962094.92249  21336068.2984   21336076.0224
 96  5 13 18 12 29.9890000  0  7  9  2 27 26  4  7 15
  20059849.719   -23769435.22649 -18092841.61749  20059852.0824   20059857.0934
  18496037.003   -14175070.79949 -11038477.96249  18496039.1574   18496044.4654
  19577727.333    -4049653.52649  -3148344.12149  19577729.8444   19577736.7904
  19775763.540   -22218546.31849 -17288088.30349  19775765.8064   19775771.6924
  20072056.289   -23383543.96149 -18187041.79049  20072060.3654   20072065.8214
  17183700.659   -26148878.13949 -20354326.13049  17183703.5554   17183708.5084
  21333370.934   -16671984.91049 -12973125.19249  21333375.3994   21333381.7314
 96  5 13 18 12 59.9890000  0  7  9  2 27 26  4  7 15
  20027613.853   -23938835.08249 -18224841.47949  20027616.1804   20027621.6904
  18487369.152   -14220618.65349 -11073969.80749  18487371.4314   18487376.9134
  19581951.337    -4027458.86749  -3131049.62649  19581954.7134   19581960.6054
  19768139.930   -22258605.58649 -17319303.33249  19768143.3674   19768147.7014
  20038208.376   -23561418.27249 -18325645.08449  20038212.2164   20038217.7534
  17172105.277   -26209812.62249 -20401807.53849  17172108.1214   17172112.9634
  21330733.283   -16685850.91749 -12983929.89749  21330735.7264   21330743.2234
 96  5 13 18 13 29.9890000  0  7  9  2 27 26  4  7 15
  19995399.521   -24108124.01049 -18356754.89249  19995401.5224   19995406.9924
  18478725.798   -14266039.17749 -11109362.43849  18478728.2724   18478733.5094
  19586211.116    -4005082.87549  -3113613.83949  19586212.7464   19586218.7824
  19760589.780   -22298284.21049 -17350221.75649  19760592.1834   19760597.5404
  20004376.213   -23739206.51949 -18464181.31249  20004379.5754   20004386.0274
  17160571.868   -26270424.53449 -20449037.60049  17160574.2824   17160579.1184
  21328171.372   -16699325.38349 -12994429.52649  21328172.7834   21328178.9484
 96  5 13 18 13 59.9890000  0  6  9  2 27 26  4  7
  19963188.223   -24277392.01249 -18488651.99449  19963190.3234   19963195.2264
  18470090.052   -14311421.67049 -11144725.42749  18470092.2964   18470097.7904
  19590491.503    -3982588.34549  -3096085.67149  19590493.4244   19590499.1954
  19753092.344   -22337681.71649 -17380921.13549  19753094.7604   19753099.6934
  19970546.622   -23916983.51349 -18602708.77549  19970549.5454   19970556.1824
  17149078.920   -26330817.39049 -20496096.96449  17149081.7184   17149086.8154
 96  5 13 18 14 29.9890000  0  6  9  2 27 26  4  7
  19930988.312   -24446604.34349 -18620505.73649  19930990.0414   19930995.6644
  18461464.497   -14356748.22749 -11180044.83649  18461466.6284   18461472.2304
  19594799.752    -3959940.28049  -3078437.87749  19594803.0834   19594809.0424
  19745651.612   -22376786.07749 -17411392.10049  19745653.9014   19745659.5614
  19936722.320   -24094734.74749 -18741216.17049  19936724.5374   19936730.9054
  17137632.887   -26390969.18549 -20542968.49249  17137635.1404   17137640.3414
 96  5 13 18 14 59.9890000  0  6  9  2 27 26  4  7
  19898826.659   -24615614.00549 -18752201.54549  19898829.0944   19898834.3044
  18452875.911   -14401882.20749 -11215214.18549  18452878.4564   18452883.4684
  19599171.886    -3936967.36049  -3060536.95649  19599174.1844   19599180.4884
  19738293.771   -22415447.25549 -17441517.70949  19738296.9684   19738302.3824
  19902930.727   -24272310.80549 -18879587.05949  19902933.0524   19902939.0734
  17126263.187   -26450715.29849 -20589523.90549  17126265.9644   17126270.8644
 96  5 13 18 15 29.9890000  0  6  9  2 27 26  4  7
  19866706.029   -24784410.31649 -18883731.10049  19866707.9934   19866713.4614
  18444322.359   -14446833.89649 -11250241.47849  18444324.1514   18444329.6834
  19603605.678    -3913661.48949  -3042376.58049  19603608.8834   19603616.5184
  19731020.367   -22453672.80049 -17471303.86749  19731022.7044   19731028.9654
  19869169.096   -24449723.17549 -19017830.40049  19869173.0934   19869179.0824
  17114974.397   -26510040.31049 -20635751.18149  17114976.8264   17114981.6984
 96  5 13 18 15 59.9890000  0  6  9  2 27 26  4  7
  19834610.281   -24953076.07049 -19015158.93149  19834612.3714   19834616.9324
  18435781.728   -14491713.17549 -11285212.36249  18435783.8994   18435789.3184
  19608083.879    -3890135.07349  -3024044.36249  19608086.1354   19608092.2994
  19723806.798   -22491582.05949 -17500843.57849  19723809.4174   19723814.1574
  19835418.566   -24627087.19749 -19156036.07149  19835422.2974   19835426.9234
  17103745.757   -26569044.94849 -20681728.82349  17103748.4804   17103753.4394
 96  5 13 18 16 29.9890000  0  6  9  2 27 26  4  7
  19802536.286   -25121624.09149 -19146495.02149  19802538.7064   19802543.4624
  18427258.215   -14536506.02449 -11320115.88349  18427260.2154   18427266.0224
  19612597.372    -3866413.47249  -3005560.04449  19612601.2334   19612606.8564
  19716653.117   -22529169.68449 -17530132.65949  19716657.1674   19716661.8214
  19801675.776   -24804411.04149 -19294210.43749  19801678.1234   19801683.8314
  17092581.925   -26627712.15249 -20727443.53049  17092584.6964   17092589.7534
 96  5 13 18 16 59.9890000  0  6  9  2 27 26  4  7
  19770483.685   -25290059.92249 -19277743.68349  19770486.5534   19770491.2864
  18418753.842   -14581198.05649 -11354940.84549  18418755.7834   18418761.0474
  19617146.841    -3842516.39649  -2986939.00449  19617149.0734   19617154.5834
  19709563.451   -22566430.81249 -17559167.31949  19709565.2964   19709572.0514
  19767942.765   -24981674.09649 -19432337.43749  19767946.3244   19767950.9854
  17081482.642   -26686039.67449 -20772893.54349  17081485.2024   17081490.3134
 96  5 13 18 17 29.9890000  0  6  9  2 27 26  4  7
  19738458.615   -25458355.50149 -19408883.06549  19738460.6594   19738466.1014
  18410275.949   -14625750.50849 -11389657.04649  18410277.4664   18410283.0074
  19621725.922    -3818448.00149  -2968184.45449  19621728.2844   19621733.8934
  19702539.295   -22603338.93649 -17587926.90949  19702542.0324   19702548.5764
  19734229.638   -25158833.16349 -19570383.38749  19734233.8854   19734239.1004
  17070450.352   -26744016.13149 -20818069.99549  17070452.6104   17070457.7684
 96  5 13 18 17 59.9890000  0  6  9  2 27 26  4  7
  19706475.662   -25626423.04949 -19539844.75649  19706478.8304   19706483.8744
  18401842.617   -14670064.56249 -11424187.48349  18401844.9214   18401850.4974
  19626351.593    -3794137.81249  -2949241.49949  19626354.0634   19626359.9954
  19695601.505   -22639799.12949 -17616337.48649  19695603.8694   19695610.3874
  19700558.732   -25335777.11049 -19708261.73549  19700562.2904   19700567.8464
  17059497.462   -26801570.27149 -20862917.37649  17059500.2204   17059505.5884
 96  5 13 18 18 29.9890000  0  6  9  2 27 26  4  7
  19674528.800   -25794308.99849 -19670664.95049  19674530.7634   19674535.6174
  18393445.980   -14714190.34349 -11458571.21649  18393448.1734   18393453.4484
  19631015.187    -3769629.87349  -2930144.46149  19631017.8194   19631024.4864
  19688740.418   -22675854.12249 -17644432.30649  19688742.9944   19688748.8274
  19666922.271   -25512530.18849 -19845991.34049  19666927.2794   19666932.5994
  17048614.786   -26858760.68849 -20907481.33649  17048617.4154   17048622.5294
 96  5 13 18 18 59.9890000  0  6  9  2 27 26  4  7
  19642612.224   -25962029.81049 -19801356.45549  19642615.3444   19642620.2964
  18385074.517   -14758179.81249 -11492848.72749  18385076.6714   18385082.4654
  19635710.885    -3744945.04849  -2910909.58549  19635715.6634   19635721.1944
  19681948.940   -22711545.91549 -17672244.11749  19681950.9314   19681957.5434
  19633323.352   -25689106.43549 -19983583.16349  19633325.9544   19633331.2104
  17037792.971   -26915629.43549 -20951794.64149  17037795.8754   17037800.6084
 96  5 13 18 19 29.9890000  0  6  9  2 27 26  4  7
  19610731.732   -26129562.45249 -19931901.33749  19610733.5544   19610738.9144
  18376733.620   -14802015.56249 -11527006.45549  18376735.7754   18376741.2334
  19640453.382    -3720047.26649  -2891508.78049  19640453.6004   19640459.0074
  19675229.779   -22746857.22949 -17699759.45349  19675232.1684   19675238.0374
  19599758.995   -25865487.47549 -20121022.87749  19599762.1074   19599767.1944
  17027037.716   -26972146.13649 -20995833.63049  17027040.9444   17027046.1044
 96  5 13 18 19 59.9890000  0  6  9  2 27 26  4  7
  19578896.460   -26296855.63049 -20062259.62849  19578899.2194   19578904.6094
  18368430.230   -14845648.50749 -11561006.16249  18368432.2874   18368437.8214
  19645245.338    -3694859.63249  -2871882.13749  19645247.2214   19645252.7354
  19668590.434   -22781742.60749 -17726942.88849  19668593.4094   19668598.7904
  19566240.719   -26041629.82049 -20258276.60049  19566243.0684   19566247.7054
  17016362.341   -27028248.24849 -21039549.56249  17016365.1424   17016370.2334
 96  5 13 18 20 29.9890000  0  6  9  2 27 26  4  7
  19547109.808   -26463899.15949 -20192423.37049  19547112.0314   19547116.6664
  18360165.493   -14889080.43249 -11594849.22049  18360167.5284   18360173.0224
  19650093.850    -3669366.96249  -2852017.76549  19650096.4814   19650103.8654
  19662031.732   -22816212.76149 -17753802.76449  19662034.5004   19662039.7014
  19532767.042   -26217536.76749 -20395346.88949  19532768.1904   19532774.9014
  17005768.102   -27083920.27949 -21082930.35849  17005770.9284   17005776.0124
 96  5 13 18 20 59.9880000  0  6  9  2 27 26  4  7
  19515349.893   -26630797.35249 -20322473.87749  19515351.1774   19515357.1304
  18351918.767   -14932416.43949 -11628617.54549  18351921.1484   18351926.2224
  19654983.848    -3643685.13049  -2832006.00249  19654985.1494   19654991.1154
  19655530.658   -22850377.71849 -17780424.82549  19655532.8584   19655539.4344
  19499315.350   -26393320.52949 -20532321.19249  19499318.0384   19499323.2514
  16995237.408   -27139263.02549 -21126054.57649  16995239.7164   16995244.8064
 96  5 13 18 21 29.9880000  0  6  9  2 27 26  4  7
  19483599.346   -26797643.92449 -20452484.15049  19483602.5374   19483607.4854
  18343677.869   -14975726.34349 -11662365.53049  18343679.4094   18343684.9044
  19659885.717    -3617909.17849  -2811920.88549  19659889.4064   19659896.5414
  19649069.728   -22884323.24149 -17806875.90949  19649073.1874   19649079.4544
  19465866.392   -26569091.07349 -20669285.20349  19465869.7384   19465875.8624
  16984748.516   -27194378.68549 -21169001.84049  16984751.3034   16984756.2904
 96  5 13 18 21 59.9880000  0  6  9  2 27 26  4  7
  19451890.658   -26964275.49649 -20582326.89149  19451893.5444   19451898.3824
  18335469.003   -15018860.50149 -11695976.56949  18335471.0134   18335476.6974
  19664836.017    -3591903.44549  -2791656.73249  19664838.5594   19664845.3244
  19642680.251   -22917904.04949 -17833042.78849  19642683.1024   19642688.5974
  19432448.447   -26744703.03749 -20806125.63549  19432452.7324   19432457.7374
  16974328.030   -27249141.12649 -21211673.87249  16974330.4534   16974335.4314
 96  5 13 18 22 29.9880000  0  6  9  2 27 26  4  7
  19420240.571   -27130601.11549 -20711931.22549  19420242.7834   19420247.5584
  18327309.096   -15061741.05549 -11729389.99949  18327311.3594   18327316.9714
  19669841.961    -3565600.96149  -2771161.35449  19669844.5614   19669849.6834
  19636374.032   -22951041.61049 -17858864.30249  19636377.3184   19636382.6064
  19399078.294   -26920071.01649 -20942775.96249  19399080.9084   19399086.8194
  16963987.977   -27303477.09949 -21254013.58949  16963990.8134   16963995.8984
 96  5 13 18 22 59.9880000  0  6  9  2 27 26  4  7
  19388642.498   -27296650.71849 -20841320.48049  19388644.6094   19388649.0894
  18319192.624   -15104393.26049 -11762625.49449  18319194.8034   18319200.2144
  19674895.404    -3539034.74049  -2750460.46149  19674899.3164   19674905.8484
  19630152.394   -22983744.41149 -17884347.02749  19630154.5324   19630159.0884
  19365746.350   -27095222.93249 -21079257.92949  19365750.0584   19365755.5054
  16953723.282   -27357419.59049 -21296046.69749  16953726.0294   16953731.1354
 96  5 13 18 23 29.9880000  0  6  9  2 27 26  4  7
  19357088.699   -27462466.74949 -20970527.73749  19357090.5654   19357095.8084
  18311112.203   -15146855.55249 -11795713.00949  18311114.4034   18311119.9884
  19679996.662    -3512235.71249  -2729578.17049  19679998.5624   19680004.9434
  19624005.119   -23016047.62449 -17909518.39649  19624006.7094   19624012.8874
  19332452.289   -27270188.36149 -21215594.57849  19332455.9964   19332462.0964
  16943525.281   -27411011.91249 -21337806.94449  16943527.4984   16943532.7234
 96  5 13 18 23 59.9880000  0  6  9  2 27 26  4  7
  19325570.050   -27628097.07649 -21099590.28449  19325572.7334   19325577.8774
  18303057.898   -15189180.91349 -11828693.82849  18303060.2344   18303065.5324
  19685131.934    -3485244.57349  -2708546.19449  19685135.4274   19685141.3424
  19617922.692   -23048003.39249 -17934419.02549  19617925.8764   19617931.6194
  19299188.900   -27444993.29749 -21351806.17649  19299190.8554   19299196.1574
  16933387.724   -27464284.09149 -21379317.73249  16933390.2464   16933395.2994
 96  5 13 18 24 29.9880000  0  6  9  2 27 26  4  7
  19294095.367   -27793494.00349 -21228470.96449  19294097.8224   19294103.4134
  18295039.115   -15231320.68849 -11861530.03449  18295041.3364   18295047.3884
  19690314.156    -3458017.86549  -2687330.66349  19690316.8124   19690323.7094
  19611915.260   -23079571.45949 -17959017.54449  19611917.8564   19611924.8004
  19265966.924   -27619569.95149 -21487839.88349  19265971.1184   19265975.8284
  16923323.497   -27517169.66549 -21420527.26449  16923326.4814   16923331.3294
 96  5 13 18 24 59.9880000  0  6  9  2 27 26  4  7
  19262674.237   -27958617.78049 -21357138.80249  19262676.3264   19262681.4604
  18287066.239   -15273219.67649 -11894178.61049  18287068.6514   18287074.1064
  19695549.991    -3430505.73649  -2665892.72249  19695550.9324   19695558.7724
  19605990.745   -23110708.20249 -17983279.97749  19605993.8134   19605998.9784
  19232800.472   -27793860.00049 -21623650.26749  19232805.0464   19232809.3584
  16913342.647   -27569619.45149 -21461397.22549  16913345.8284   16913350.6694
 96  5 13 18 25 29.9880000  0  6  9  2 27 26  4  7
  19231286.834   -28123556.19849 -21485662.19849  19231289.5734   19231294.3264
  18279123.180   -15314959.51349 -11926703.17449  18279125.8184   18279130.9844
  19700819.481    -3402809.71149  -2644311.49249  19700821.9044   19700828.3854
  19600125.026   -23141534.73949 -18007300.68849  19600127.7584   19600133.1064
  19199671.798   -27967953.76449 -21759307.70149  19199674.9664   19199680.6894
  16903427.489   -27621725.09949 -21501999.02749  16903430.2924   16903435.4884
 96  5 13 18 25 59.9880000  0  6  9  2 27 26  4  7
  19199928.894   -28288343.80549 -21614068.08949  19199931.2344   19199936.7994
  18271201.728   -15356585.64949 -11959139.13649  18271204.2064   18271209.8714
  19706113.405    -3374988.20249  -2622632.49549  19706116.5974   19706124.7144
  19594307.260   -23172109.94649 -18031125.55149  19594309.7944   19594315.7124
  19166570.539   -28141904.50949 -21894853.68749  19166573.7414   19166579.0284
  16893569.430   -27673529.46449 -21542366.06749  16893572.1494   16893577.2804
 96  5 13 18 26 29.9880000  0  6  9  2 27 26  4  7
  19168603.805   -28452954.89949 -21742336.43749  19168606.7824   19168611.7994
  18263305.616   -15398078.48049 -11991471.23749  18263307.9504   18263314.1494
  19711434.302    -3347026.42849  -2600844.18049  19711437.2794   19711443.9904
  19588543.073   -23202398.91049 -18054727.37649  19588545.8694   19588551.8664
  19133497.905   -28315695.77349 -22030275.40349  19133502.1604   19133508.2544
  16883770.436   -27725024.19749 -21582491.83649  16883772.9444   16883778.2384
 96  5 13 18 26 59.9880000  0  6  9  2 27 26  4  7
  19137328.759   -28617311.08149 -21870406.15549  19137330.9024   19137335.9294
  18255447.817   -15439372.42949 -12023648.36249  18255450.4764   18255456.0824
  19716795.434    -3318856.31849  -2578893.53049  19716797.7044   19716804.2324
  19582846.040   -23232333.36849 -18078052.96249  19582849.7654   19582854.8154
  19100470.947   -28489260.40649 -22165520.52349  19100474.3094   19100479.2704
  16874040.214   -27776158.58449 -21622336.82149  16874042.7684   16874048.0564
 96  5 13 18 27 29.9880000  0  6  9  2 27 26  4  7
  19106114.671   -28781342.66649 -21998222.93249  19106116.6594   19106121.9594
  18247637.741   -15480416.16749 -12055630.51649  18247640.2484   18247646.0544
  19722204.504    -3290439.97349  -2556751.00149  19722206.0634   19722211.9844
  19577228.083   -23261856.07049 -18101057.70149  19577231.7464   19577237.0314
  19067495.065   -28662545.78049 -22300548.04349  19067499.0344   19067504.2664
  16864384.807   -27826897.29649 -21661873.48449  16864387.3594   16864392.3954
 96  5 13 18 27 59.9880000  0  6  9  2 27 26  4  7
  19074967.829   -28945018.99249 -22125762.89849  19074970.0354   19074975.0894
  18239877.966   -15521196.45149 -12087407.37949  18239880.3734   18239885.8184
  19727662.536    -3261743.81649  -2534390.43749  19727666.5314   19727673.8404
  19571696.621   -23290927.41749 -18123710.73249  19571700.2424   19571705.8124
  19034580.555   -28835512.71449 -22435327.42049  19034584.1374   19034589.5264
  16854808.313   -27877222.85449 -21701088.21049  16854810.5674   16854815.7644
 96  5 13 18 28 29.9880000  0  6  9  2 27 26  4  7
  19043869.395   -29108444.50449 -22253107.41649  19043870.6764   19043876.5134
  18232147.689   -15561822.55049 -12119064.09549  18232149.4374   18232154.9924
  19733157.304    -3232875.68949  -2511895.85749  19733159.7644   19733167.0024
  19566229.663   -23319653.74349 -18146094.90549  19566232.8294   19566238.8554
  19001710.964   -29008255.12249 -22569931.84149  19001712.2974   19001718.3194
  16845288.777   -27927247.51349 -21740068.47149  16845291.4234   16845296.5424
 96  5 13 18 28 59.9880000  0  6  9  2 27 26  4  7
  19012818.988   -29271613.30449 -22380251.89949  19012821.1644   19012826.2894
  18224449.747   -15602273.15449 -12150584.05949  18224451.8644   18224457.3454
  19738687.118    -3203818.10749  -2489253.67149  19738689.7224   19738696.2764
  19560827.401   -23348041.56949 -18168215.30649  19560830.3964   19560836.9644
  18968879.580   -29180770.38249 -22704359.25849  18968883.9934   18968889.2704
  16835828.721   -27976958.75249 -21778804.50849  16835831.6834   16835836.7554
 96  5 13 18 29 29.9880000  0  6  9  2 27 26  4  7
  18981816.071   -29434530.62349 -22507200.43149  18981818.2934   18981824.3784
  18216786.612   -15642542.86349 -12181963.07149  18216788.7714   18216794.0984
  19744257.596    -3174549.00949  -2466446.65949  19744259.6494   19744265.6634
  19555493.985   -23376070.35849 -18190055.95549  19555497.1434   19555503.4724
  18936095.880   -29353051.44049 -22838604.18349  18936100.0504   18936105.5054
  16826433.946   -28026332.81149 -21817277.80449  16826436.0314   16826441.0174
 96  5 13 18 29 59.9880000  0  6  9  2 27 26  4  7
  18950860.731   -29597200.34149 -22633956.01949  18950864.1404   18950869.0544
  18209155.600   -15682642.39549 -12213209.47349  18209158.3014   18209163.4074
  19749871.466    -3145046.99449  -2443458.15549  19749874.3914   19749879.7634
  19550226.826   -23403746.26649 -18211621.63349  19550230.7534   19550236.4624
  18903360.013   -29525089.08749 -22972659.44249  18903362.0314   18903367.4774
  16817108.611   -28075338.43149 -21855464.00349  16817110.8114   16817115.6034
 96  5 13 18 30 29.9870000  0  6  9  2 27 26  4  7
  18919939.079   -29759697.49249 -22760577.14849  18919941.7914   18919946.3284
  18201543.686   -15722644.93649 -12244380.29449  18201545.9004   18201551.1284
  19755511.969    -3115406.59049  -2420361.82949  19755514.3004   19755519.9964
  19545013.785   -23431147.04149 -18232972.92049  19545016.6244   19545021.3634
  18870653.143   -29696958.34049 -23106583.48949  18870656.6894   18870661.4064
  16807838.324   -28124048.25649 -21893419.71449  16807841.5964   16807846.3974
 96  5 13 18 30 59.9870000  0  6  9  2 27 26  4  7
  18889049.082   -29922030.01349 -22887069.99949  18889051.2914   18889056.3304
  18193951.235   -15762546.25049 -12275472.23649  18193953.1694   18193958.3224
  19761182.862    -3085613.72349  -2397146.68849  19761183.6144   19761190.6044
  19539853.165   -23458270.37449 -18254108.01649  19539855.9994   19539860.6014
  18837977.837   -29868665.80549 -23240381.46349  18837981.2984   18837986.6334
  16798626.303   -28172463.73849 -21931146.06549  16798628.5704   16798633.3004
 96  5 13 18 31 29.9870000  0  7  9  2 27 26  4 24  7
  18858198.089   -30084152.15449 -23013398.90749  18858200.3044   18858204.7784
  18186380.081   -15802331.56649 -12306473.78149  18186382.2164   18186387.5094
  19766881.144    -3055654.00549  -2373801.53249  19766884.8254   19766891.9634
  19534748.982   -23485089.22049 -18275005.84649  19534751.9044   19534757.5314
  18805344.867   -30040158.48049 -23374012.06749  18805347.5604   18805352.5394
  21042149.500    -7485976.20659  -5808248.51959  21042152.3144   21042160.2884
  16789474.797   -28220553.41549 -21968618.54249  16789477.1984   16789482.0234
 96  5 13 18 31 59.9870000  0  7  9  2 27 26  4 24  7
  18827398.216   -30246004.26249 -23139517.40749  18827400.5624   18827406.0314
  18178841.971   -15841944.82249 -12337341.25849  18178843.7074   18178849.3864
  19772618.503    -3025507.95349  -2350311.18849  19772621.7784   19772627.9774
  19529708.201   -23511581.49949 -18295649.21649  19529710.6624   19529715.9994
  18772759.769   -30211386.30049 -23507436.29849  18772763.9574   18772769.1014
  21006368.167    -7673983.98449  -5954747.94849  21006376.6154   21006383.4784
  16780390.757   -28268290.01849 -22005815.90049  16780393.1314   16780398.1074
 96  5 13 18 32 29.9870000  0  7  9  2 27 26  4 24  7
  18796646.131   -30407608.84449 -23265443.02549  18796648.5714   18796653.1354
  18171335.181   -15881390.83149 -12368078.39949  18171337.3354   18171342.9954
  19778381.650    -2995224.08249  -2326713.44749  19778383.3634   19778391.4304
  19524722.734   -23537780.34049 -18316063.93149  19524726.1254   19524731.5484
  18740221.979   -30382382.11949 -23640679.73149  18740224.2944   18740228.9954
  20970580.996    -7862066.98249  -6101305.98849  20970584.2284   20970592.0184
  16771364.645   -28315726.50849 -22042779.39449  16771366.3984   16771371.3374
 96  5 13 18 32 59.9870000  0  7  9  2 27 26  4 24  7
  18765960.264   -30568862.19549 -23391094.96549  18765962.7134   18765967.4064
  18163880.551   -15920563.63849 -12398602.67049  18163883.3714   18163888.3914
  19784193.052    -2964695.51549  -2302925.03149  19784193.5654   19784200.8134
  19519811.197   -23563592.18849 -18336177.08449  19519814.1894   19519819.5344
  18707746.835   -30553036.27649 -23773656.94949  18707749.5484   18707755.1434
  20934793.167    -8050138.12749  -6247854.81049  20934795.4434   20934802.8674
  16762413.792   -28362760.15849 -22079428.99449  16762416.2714   16762421.0474
 96  5 13 18 33 29.9870000  0  7  9  2 27 26  4 24  7
  18735324.987   -30729852.05549 -23516541.59149  18735327.4644   18735332.0274
  18156462.141   -15959548.36649 -12428980.37949  18156464.9894   18156470.2144
  19790026.300    -2934035.77449  -2279034.39749  19790028.2284   19790034.8454
  19514953.448   -23589117.72549 -18356067.14149  19514955.8394   19514961.7354
  18675318.803   -30723443.74349 -23906441.94049  18675322.7764   18675327.3364
  20898987.912    -8238303.12649  -6394476.77249  20898988.2824   20898997.1414
  16753521.440   -28409487.12449 -22115839.62049  16753524.2664   16753529.1154
 96  5 13 18 33 59.9870000  0  7  9  2 27 26  4 24  7
  18704733.285   -30890613.35249 -23641810.10649  18704735.8774   18704740.7734
  18149078.235   -15998353.37149 -12459218.04949  18149080.5544   18149085.7844
  19795879.733    -2903270.32349  -2255061.39049  19795883.0514   19795889.7654
  19510145.652   -23614380.83449 -18375752.70149  19510149.1034   19510154.7174
  18642933.829   -30893635.38749 -24039058.75349  18642936.2354   18642941.2074
  20863157.732    -8426584.84449  -6541189.68049  20863160.8354   20863166.8274
  16744683.384   -28455934.38949 -22152032.29249  16744685.7094   16744690.3624
 96  5 13 18 34 29.9870000  0  7  9  2 27 26  4 24  7
  18674196.987   -31051084.44449 -23766852.49049  18674198.8384   18674203.9764
  18141743.313   -16036899.58049 -12489254.05549  18141745.4034   18141750.9334
  19801770.692    -2872310.95649  -2230937.28249  19801774.1064   19801780.0464
  19505404.580   -23639300.18149 -18395170.40049  19505407.0324   19505411.6844
  18610603.205   -31063529.12049 -24171443.42849  18610606.5404   18610611.4764
  20827322.444    -8614892.87249  -6687923.11749  20827327.1044   20827333.6214
  16735912.054   -28502023.91649 -22187946.20549  16735915.0974   16735919.9074
 96  5 13 18 34 59.9870000  0  7  9  2 27 26  4 24  7
  18643699.256   -31211350.13349 -23891734.81649  18643701.2914   18643706.3914
  18134441.088   -16075273.67349 -12519155.95049  18134442.9364   18134448.6304
  19807686.299    -2841226.00549  -2206715.33049  19807689.1774   19807696.7924
  19500713.995   -23663949.15549 -18414377.41249  19500716.6194   19500721.4654
  18578316.277   -31233193.69249 -24303649.54749  18578320.0984   18578325.2354
  20791470.933    -8803285.76049  -6834722.69149  20791476.2924   20791483.0254
  16727196.103   -28547830.71649 -22223639.81449  16727198.3614   16727203.0844
 96  5 13 18 35 29.9870000  0  7  9  2 27 26  4 24  7
  18613257.884   -31371316.51549 -24016383.91149  18613260.4464   18613266.3974
  18127186.581   -16113393.65349 -12548859.82949  18127188.7134   18127194.4824
  19813643.216    -2809930.43949  -2182329.27749  19813644.0514   19813651.2984
  19496090.618   -23688239.42649 -18433304.92749  19496093.4404   19496098.5504
  18546091.641   -31402545.32649 -24435611.81949  18546093.8634   18546098.9504
  20755624.533    -8991655.53349  -6981504.20949  20755629.1724   20755637.6134
  16718548.180   -28593273.18449 -22259049.53049  16718551.0544   16718555.8694
 96  5 13 18 35 59.9870000  0  7  9  2 27 26  4 24  7
  18582866.443   -31531027.29449 -24140833.83949  18582868.6534   18582873.0974
  18119968.860   -16151324.42349 -12578416.28049  18119970.8384   18119976.4114
  19819629.320    -2778466.39149  -2157811.92549  19819631.3634   19819638.7204
  19491528.645   -23712216.64849 -18451988.50249  19491531.5094   19491536.3954
  18513915.419   -31571622.60649 -24567360.30949  18513919.5654   18513924.5514
  20719780.172    -9180035.23049  -7128293.48849  20719783.3904   20719791.3864
  16709962.954   -28638391.44049 -22294206.61149  16709965.3114   16709970.0554
 96  5 13 18 36 29.9870000  0  7  9  2 27 26  4 24  7
  18552524.082   -31690475.65949 -24265079.28149  18552526.8624   18552531.9254
  18112782.486   -16189087.21749 -12607841.84549  18112784.6044   18112790.3334
  19825644.961    -2746846.34249  -2133173.03049  19825649.1314   19825656.1414
  19487025.165   -23735883.02749 -18470429.86749  19487028.8194   19487033.2124
  18481791.598   -31740435.74349 -24698902.97649  18481795.5714   18481800.3344
  20683925.202    -9368445.81649  -7275106.82349  20683928.6884   20683937.1964
  16701434.923   -28683202.32849 -22329124.18249  16701438.1354   16701442.8924
 96  5 13 18 36 59.9870000  0  7  9  2 27 26  4 24  7
  18522249.140   -31849574.05949 -24389052.02749  18522251.6024   18522256.4634
  18105637.390   -16226634.77249 -12637099.70149  18105639.7494   18105645.5734
  19831704.316    -2715018.60649  -2108372.29349  19831705.9224   19831712.1354
  19482592.237   -23759178.43049 -18488582.15549  19482594.9134   19482600.0714
  18449728.265   -31908930.67949 -24830197.69549  18449731.4274   18449736.7624
  20648075.689    -9556841.73649  -7421908.74349  20648078.6134   20648086.4324
  16692978.906   -28727642.29249 -22363752.72349  16692981.4574   16692986.4134
 96  5 13 18 37 29.9870000  0  7  9  2 27 26  4 24  7
  18492031.527   -32008366.17249 -24512786.10249  18492033.9224   18492039.2994
  18098521.107   -16264031.22949 -12666239.81049  18098523.5244   18098529.5674
  19837787.192    -2683039.47149  -2083453.59849  19837791.0944   19837798.7554
  19478214.724   -23782177.91849 -18506503.86849  19478219.1454   19478224.1204
  18417714.738   -32077167.08649 -24961290.95949  18417717.0784   18417722.1984
  20612213.013    -9745294.97549  -7568755.34449  20612216.4724   20612225.1574
  16684582.180   -28771766.77849 -22398135.43549  16684584.7954   16684589.6434
 96  5 13 18 37 59.9870000  0  7  9  2 27 26  4 24  7
  18461884.282   -32166790.94049 -24636233.93449  18461886.8214   18461891.9064
  18091448.570   -16301199.62949 -12695202.20849  18091450.8234   18091456.3004
  19843917.944    -2650835.42349  -2058359.63749  19843919.7524   19843926.2624
  19473905.631   -23804822.21249 -18524148.79349  19473909.3054   19473914.7994
  18385762.326   -32245073.59849 -25092127.16649  18385765.1774   18385770.8224
  20576350.941    -9933752.26049  -7715605.08449  20576354.5184   20576362.3244
  16676257.700   -28815513.33949 -22432223.65549  16676260.1234   16676265.0834
 96  5 13 18 38 29.9870000  0  7  9  2 27 26  4 24  7
  18431801.640   -32324874.24049 -24759415.69049  18431804.5014   18431809.4524
  18084417.301   -16338148.57149 -12723993.60949  18084419.5514   18084425.3314
  19850089.087    -2618412.19849  -2033094.89949  19850089.3334   19850096.6204
  19469660.802   -23827132.15049 -18541533.19049  19469664.3294   19469670.0274
  18353870.251   -32412662.41149 -25222715.81949  18353874.5114   18353879.6474
  20540483.893   -10122235.67749  -7862475.18849  20540486.8194   20540495.5484
  16667998.743   -28858912.20749 -22466040.94749  16668001.4224   16668006.3544
 96  5 13 18 38 59.9870000  0  7  9  2 27 26  4 24  7
  18401779.869   -32482642.89949 -24882352.26649  18401782.4764   18401787.1584
  18077424.386   -16374898.65249 -12752630.04749  18077426.3134   18077431.7924
  19856294.162    -2585786.63449  -2007672.48149  19856298.3294   19856305.8544
  19465471.656   -23849143.13649 -18558684.62649  19465474.8364   19465480.9304
  18322037.232   -32579944.33249 -25353065.33049  18322042.1354   18322047.1364
  20504612.612   -10310741.80949  -8009363.00349  20504615.4914   20504623.7354
  16659803.870   -28901977.08049 -22499597.98149  16659806.6764   16659811.5674
 96  5 13 18 39 29.9870000  0  7  9  2 27 26  4 24  7
  18371813.519   -32640119.26649 -25005061.08349  18371815.5534   18371820.7364
  18070467.468   -16411454.63549 -12781115.24349  18070470.3434   18070475.5584
  19862541.228    -2552971.97649  -1982102.71149  19862543.1394   19862549.8974
  19461340.089   -23870860.25849 -18575607.09949  19461341.8104   19461349.1324
  18290265.184   -32746916.88049 -25483173.77149  18290268.4114   18290273.2164
  20468739.358   -10499250.32849  -8156252.66849  20468742.7334   20468751.5764
  16651671.418   -28944711.37649 -22532897.42549  16651674.3914   16651679.3474
 96  5 13 18 39 59.9870000  0  7  9  2 27 26  4 24  7
  18341903.775   -32797291.34649 -25127532.78949  18341906.4984   18341911.5814
  18063550.241   -16447804.41949 -12809439.76549  18063552.8594   18063558.6254
  19868819.918    -2519974.21449  -1956390.29449  19868822.5274   19868829.0184
  19457267.827   -23892260.30749 -18592282.47949  19457271.3584   19457276.5444
  18258555.200   -32913551.44749 -25613018.85249  18258558.1894   18258564.0614
  20432875.490   -10687728.18449  -8303118.44449  20432877.4004   20432885.3064
  16643604.455   -28987105.08749 -22565931.47249  16643607.2644   16643612.0764
 96  5 13 18 40 29.9860000  0  7  9  2 27 26  4 24  7
  18312072.181   -32954057.54949 -25249688.23949  18312074.8534   18312079.8714
  18056685.493   -16483879.07849 -12837549.89549  18056688.0894   18056693.6674
  19875143.903    -2486736.13649  -1930490.58549  19875146.8324   19875154.6004
  19453271.612   -23913259.92249 -18608645.85049  19453274.2994   19453280.8344
  18226927.260   -33079760.00749 -25742531.97749  18226931.0944   18226935.1404
  20397033.938   -10876072.77049  -8449880.36549  20397036.3304   20397043.7414
  16635616.123   -29029086.36249 -22598644.15049  16635618.5124   16635623.4704
 96  5 13 18 40 59.9860000  0  7  9  2 27 26  4 24  7
  18282298.779   -33110519.15349 -25371606.34349  18282301.3714   18282306.2774
  18049855.354   -16519772.01549 -12865518.43349  18049857.6014   18049863.9444
  19881489.024    -2453390.16449  -1904506.82749  19881492.9594   19881500.1524
  19449327.656   -23933980.47649 -18624791.77349  19449332.2154   19449336.6484
  18195357.911   -33245655.97049 -25871801.52749  18195361.3194   18195365.8694
  20361195.612   -11064392.68249  -8596623.08149  20361200.4874   20361208.3854
  16627686.078   -29070757.95249 -22631115.51749  16627688.5174   16627693.7044
 96  5 13 18 41 29.9860000  0  7  9  2 27 26  4 24  7
  18252580.519   -33266690.52549 -25493298.29349  18252582.9794   18252588.3404
  18043055.313   -16555504.75949 -12893362.14849  18043057.8064   18043063.9374
  19887848.239    -2419974.53349  -1878468.78949  19887852.0254   19887859.1154
  19445432.868   -23954448.15749 -18640740.65549  19445435.8524   19445442.9074
  18163848.643   -33411241.14149 -26000828.89049  18163851.2564   18163856.5174
  20325359.317   -11252718.10649  -8743370.08149  20325362.9084   20325370.9324
  16619807.291   -29112163.12649 -22663379.28449  16619809.7254   16619814.5334
 96  5 13 18 41 59.9860000  0  7  9  2 27 26  4 24  7
  18222921.548   -33422547.30849 -25614745.10149  18222924.5134   18222928.6804
  18036290.025   -16591059.06949 -12921066.80749  18036292.3734   18036297.7674
  19894225.145    -2386469.77749  -1852361.29849  19894227.1724   19894235.5794
  19441587.878   -23974653.79749 -18656485.33849  19441591.6124   19441596.9754
  18132401.152   -33576496.78649 -26129599.47549  18132404.3444   18132409.2484
  20289520.993   -11441047.90549  -8890120.48949  20289524.8934   20289532.8074
  16611977.246   -29153306.37549 -22695438.95549  16611980.2854   16611985.3384
 96  5 13 18 42 29.9860000  0  7  9  2 27 26  4 24  7
  18193324.827   -33578079.24549 -25735938.78649  18193327.5424   18193332.2264
  18029562.592   -16626409.10749 -12948612.29849  18029565.3044   18029570.9384
  19900621.615    -2352851.31049  -1826165.21849  19900625.2484   19900632.3424
  19437794.114   -23994594.57849 -18672023.64149  19437797.1864   19437803.2034
  18101016.990   -33741419.77949 -26258110.85449  18101020.4394   18101025.5654
  20253682.459   -11629382.07549  -9036874.30149  20253686.2674   20253693.8414
  16604200.346   -29194179.69549 -22727288.28649  16604202.2624   16604207.0314
 96  5 13 18 42 59.9860000  0  7  9  2 27 26  4 24  7
  18163773.888   -33733372.28549 -25856946.32449  18163776.3404   18163780.6474
  18022860.664   -16661630.94549 -12976057.88849  18022862.3724   18022868.7494
  19907030.329    -2319181.58349  -1799929.18549  19907032.8764   19907040.3814
  19434034.752   -24014354.87649 -18687421.31249  19434036.8124   19434042.4654
  18069684.701   -33906074.59849 -26386413.27349  18069687.5894   18069692.2684
  20217827.989   -11817795.19249  -9183689.63049  20217832.8774   20217839.6364
  16596460.769   -29234845.23049 -22758975.70449  16596463.7294   16596468.8604
 96  5 13 18 43 29.9860000  0  7  9  2 27 26  4 24  7
  18134297.594   -33888269.77349 -25977645.62849  18134300.1694   18134305.3784
  18016208.715   -16696585.94849 -13003295.56449  18016211.0544   18016217.0374
  19913481.846    -2285275.63849  -1773509.11049  19913484.4944   19913492.0574
  19430340.047   -24033763.33149 -18702544.82149  19430343.4324   19430348.9684
  18038429.346   -34070322.86249 -26514398.90049  18038432.2874   18038437.1894
  20181989.580   -12006134.38749  -9330447.35049  20181992.8154   20182000.0014
  16588792.045   -29275147.09049 -22790379.74049  16588794.7834   16588799.8654
 96  5 13 18 43 59.9860000  0  7  9  2 27 26  4 24  7
  18104858.517   -34042970.89149 -26098191.93449  18104861.5284   18104866.3724
  18009570.148   -16731473.35149 -13030480.57149  18009572.1884   18009578.1784
  19919942.813    -2251325.83549  -1747054.85049  19919945.0694   19919953.1104
  19426674.787   -24053023.49949 -18717552.78049  19426677.9054   19426684.1434
  18007207.531   -34234388.14449 -26642241.93549  18007211.5324   18007216.1764
  20146127.549   -12194589.53049  -9477295.42749  20146131.0714   20146138.6614
  16581156.737   -29315270.21649 -22821644.51449  16581159.5524   16581164.4514
 96  5 13 18 44 29.9860000  0  7  9  2 27 26  4 24  7
  18075442.451   -34197555.84349 -26218647.71049  18075444.8284   18075450.1224
  18002929.256   -16766370.00049 -13057672.78149  18002931.7294   18002937.7894
  19926393.891    -2217424.78349  -1720638.58349  19926396.2614   19926404.0564
  19423021.265   -24072222.58449 -18732513.14449  19423024.0624   19423030.5054
  17976005.725   -34398358.03849 -26770010.64649  17976008.9794   17976013.9574
  20110229.223   -12383239.09449  -9624294.99849  20110232.4724   20110240.0124
  16573540.192   -29355293.56749 -22852831.54449  16573543.3624   16573548.4804
 96  5 13 18 44 59.9860000  0  7  9  2 27 26  4 24  7
  18046081.772   -34351847.35549 -26338874.83949  18046084.0354   18046089.2174
  17996318.152   -16801108.84849 -13084742.02449  17996320.4134   17996326.8204
  19932866.324    -2183413.43849  -1694136.36649  19932869.6194   19932876.0544
  19419414.044   -24091183.10649 -18747287.61149  19419417.0034   19419422.1544
  17944854.144   -34562058.50449 -26897569.40749  17944858.4904   17944862.6314
  20074327.137   -12571903.16049  -9771305.88249  20074330.8584   20074338.3844
  16565976.322   -29395044.52849 -22883806.31749  16565978.8894   16565984.2064
 96  5 13 18 45 29.9860000  0  7  9  2 27 26  4 24  7
  18016796.262   -34505741.44749 -26458792.28849  18016798.7424   18016803.6204
  17989759.501   -16835576.41349 -13111599.87949  17989762.4134   17989768.1954
  19939376.347    -2149202.08149  -1667478.30849  19939380.8414   19939386.3434
  19415873.024   -24109791.70349 -18761787.84849  19415876.2894   19415881.9304
  17913774.564   -34725389.24449 -27024840.06949  17913776.9124   17913781.7394
  20038441.936   -12760474.51749  -9918244.50249  20038445.8154   20038454.1774
  16558481.109   -29434430.83549 -22914496.94549  16558484.1804   16558489.2494
 96  5 13 18 45 59.9860000  0  7  9  2 27 26  4 24  7
  17987595.219   -34659195.62349 -26578366.93949  17987597.9294   17987602.7674
  17983262.663   -16869719.81149 -13138205.12949  17983265.0394   17983271.2324
  19945927.163    -2114774.97649  -1640652.10949  19945930.5204   19945937.5944
  19412402.957   -24128022.34549 -18775993.58249  19412406.8954   19412412.3874
  17882776.569   -34888280.56949 -27151768.32849  17882779.8654   17882784.4504
  20002586.655   -12948901.14749 -10065070.37149  20002590.8104   20002597.1924
  16551062.605   -29473416.78949 -22944875.60349  16551065.4444   16551070.6414
 96  5 13 18 46 29.9860000  0  7  9  2 27 26  4 24  7
  17958512.440   -34812028.09749 -26697457.16549  17958514.6704   17958519.8024
  17976864.282   -16903343.91149 -13164405.74449  17976866.6164   17976872.0764
  19952554.720    -2079948.15049  -1613514.46449  19952558.5664   19952565.3654
  19409040.728   -24145688.98149 -18789759.83249  19409044.2674   19409050.1824
  17851900.347   -35050535.73149 -27278200.88049  17851904.0154   17851908.4864
  19966793.938   -13136996.11849 -10211637.80349  19966797.3254   19966802.9644
  16543757.079   -29511808.10949 -22974790.91949  16543759.6514   16543764.7334
 96  5 13 18 46 59.9860000  0  7  9  2 27 26  4 24  7
  17929483.678   -34964573.50449 -26816323.68349  17929486.3964   17929491.0434
  17970499.891   -16936787.78649 -13190465.92249  17970502.3964   17970508.4634
  19959197.092    -2045044.21449  -1586316.73049  19959200.2054   19959208.2684
  19405723.503   -24163128.73249 -18803349.29349  19405726.1064   19405732.4854
  17821083.098   -35212482.49949 -27404393.13349  17821086.0944   17821091.4504
  19931000.493   -13325086.60149 -10358201.74349  19931004.3454   19931010.7484
  16536504.342   -29549921.86249 -23004489.94749  16536506.8264   16536511.8094
 96  5 13 18 47 29.9860000  0  7  9  2 27 26  4 24  7
  17900480.239   -35116987.91149 -26935088.12849  17900482.7544   17900487.3994
  17964137.067   -16970222.79449 -13216519.18949  17964140.1334   17964145.6664
  19965821.572    -2010226.86749  -1559186.47849  19965824.2464   19965832.5274
  19402414.194   -24180516.91749 -18816898.57849  19402417.4854   19402423.0544
  17790290.726   -35374291.94049 -27530478.37249  17790294.6364   17790299.5274
  19895177.237   -13513331.57649 -10504886.04749  19895182.0924   19895189.7214
  16529272.100   -29587929.06649 -23034105.94749  16529274.2844   16529279.4444
 96  5 13 18 47 59.9860000  0  7  9  2 27 26  4 24  7
  17871483.662   -35269367.29249 -27053825.27749  17871486.2934   17871490.7474
  17957754.137   -17003765.81049 -13242656.62249  17957757.0674   17957762.3934
  19972409.563    -1975604.99949  -1532208.52549  19972412.9484   19972420.9224
  19399090.935   -24197981.49749 -18830507.38149  19399093.7574   19399100.3224
  17759504.068   -35536079.00649 -27656546.17049  17759507.5794   17759512.9114
  19859302.729   -13701853.44349 -10651786.12249  19859306.9874   19859314.0844
  16522036.689   -29625947.37549 -23063730.60349  16522039.7424   16522044.7624
 96  5 13 18 48 29.9860000  0  7  9  2 27 26  4 24  7
  17842611.391   -35421088.87049 -27172049.85949  17842614.1084   17842618.9704
  17951466.906   -17036808.15549 -13268403.92249  17951469.6484   17951474.9714
  19979081.504    -1940555.69849  -1504897.54549  19979083.4154   19979089.7194
  19395872.810   -24214896.89249 -18843688.25849  19395874.9614   19395880.9564
  17728837.024   -35697239.33149 -27782125.61749  17728839.9184   17728844.8294
  19823492.673   -13890040.00949 -10798424.93849  19823497.0154   19823503.5154
  16514914.995   -29663376.03649 -23092895.80249  16514917.3614   16514922.2854
 96  5 13 18 48 59.9860000  0  7  9  2 27 26  4 24  7
  17813848.737   -35572238.23549 -27289828.55649  17813851.0914   17813856.2884
  17945254.561   -17069457.25749 -13293844.78649  17945256.6314   17945262.1524
  19985814.087    -1905178.68449  -1477331.16849  19985815.4334   19985823.2224
  19392737.897   -24231363.71249 -18856519.58249  19392742.1684   19392747.9614
  17698272.078   -35857858.40849 -27907283.30249  17698275.1604   17698280.0014
  19787729.423   -14077984.45749 -10944875.07249  19787732.9694   19787739.4784
  16507880.214   -29700342.83449 -23121701.10249  16507882.6254   16507887.7024
 96  5 13 18 49 29.9860000  0  7  9  2 27 26  4 24  7
  17785210.640   -35722732.92549 -27407097.11649  17785213.1164   17785217.9054
  17939132.320   -17101628.05849 -13318912.95949  17939134.5304   17939140.1984
  19992623.033    -1869397.86049  -1449450.16649  19992624.8684   19992632.1024
  19389706.190   -24247300.37449 -18868937.80649  19389709.6644   19389715.4284
  17667828.825   -36017838.29049 -28031942.91249  17667831.6564   17667836.9814
  19752025.950   -14265607.84849 -11091075.04349  19752029.0624   19752035.9514
  16500946.827   -29736779.07349 -23150092.98149  16500949.4204   16500954.2174
 96  5 13 18 49 59.9850000  0  8  9  2 27 26  5  4 24  7
  17756620.432   -35872976.13849 -27524169.71649  17756622.6454   17756627.6274
  17933028.741   -17133702.14149 -13343905.76549  17933030.9464   17933036.6744
  19999439.061    -1833588.78349  -1421547.14349  19999439.0934   19999446.9764
  19386700.510   -24263095.43749 -18881245.68649  19386703.3714   19386709.3964
  20490761.154   -10469693.01959  -7369774.38959  20490763.7194   20490770.7784
  17637438.813   -36177540.25949 -28156385.98049  17637441.4184   17637446.7654
  19716309.417   -14453304.50049 -11237332.11549  19716310.5774   19716318.0774
  16494040.869   -29773068.70549 -23178370.61949  16494043.5284   16494048.6334
 96  5 13 18 50 29.9850000  0  8  9  2 27 26  5  4 24  7
  17728102.377   -36022839.06449 -27640945.99849  17728104.5984   17728109.7134
  17926971.518   -17165531.21849 -13368707.66049  17926974.2094   17926980.0274
  20006287.071    -1797600.55149  -1393504.51749  20006287.3794   20006294.8734
  19383751.212   -24278590.90649 -18893320.13549  19383755.4724   19383761.1014
  20460080.463   -10630920.92149  -7495406.44249  20460082.7754   20460090.9044
  17607130.476   -36336804.87849 -28280488.25049  17607134.1764   17607139.4824
  19680604.879   -14640927.65549 -11383531.90949  19680607.1804   19680614.4274
  16487195.348   -29809045.83049 -23206404.74749  16487197.1994   16487201.9414
 96  5 13 18 50 59.9850000  0  8  9  2 27 26  5  4 24  7
  17699626.260   -36172481.27149 -27757550.28349  17699628.8564   17699634.0274
  17920930.450   -17197281.27949 -13393447.98249  17920932.5704   17920937.7734
  20013135.486    -1761610.53449  -1365460.49649  20013136.5394   20013144.0684
  19380826.256   -24293967.62949 -18905302.05449  19380829.2684   19380834.7534
  20429381.649   -10792245.79349  -7621114.03349  20429384.5984   20429391.0344
  17576878.638   -36495780.80549 -28404365.56649  17576881.8394   17576887.0284
  19644884.479   -14828635.15249 -11529797.40149  19644887.2204   19644895.8724
  16480380.397   -29844855.33749 -23234308.25849  16480383.2714   16480388.1534
 96  5 13 18 51 29.9850000  0  8  9  2 27 26  5  4 24  7
  17671185.417   -36321937.39349 -27874009.56749  17671187.8724   17671193.0854
  17914895.726   -17228990.00149 -13418156.09249  17914898.2434   17914903.7894
  20019975.428    -1725657.43849  -1337445.25549  20019978.3354   20019985.7274
  19377912.067   -24309273.72549 -18917228.92249  19377915.4384   19377922.4284
  20398652.552   -10953725.72949  -7746942.46949  20398654.9054   20398661.4564
  17546673.499   -36654513.79949 -28528053.57149  17546676.1754   17546681.1184
  19609140.605   -15016465.12149 -11676158.33849  19609144.8484   19609152.9764
  16473594.478   -29880516.76649 -23262096.38749  16473596.7704   16473601.7214
 96  5 13 18 51 59.9850000  0  8  9  2 27 26  5  4 24  7
  17642795.699   -36471126.02449 -27990260.41749  17642798.5694   17642803.1644
  17908883.594   -17260586.29349 -13442776.60149  17908885.4324   17908891.6114
  20026820.735    -1689685.19149  -1309415.09649  20026824.1914   20026831.4154
  19375027.307   -24324446.73549 -18929052.10349  19375028.7144   19375034.5334
  20367900.681   -11115322.63949  -7872862.06549  20367904.5274   20367910.3634
  17516525.450   -36812936.61449 -28651499.89149  17516529.4834   17516533.9914
  19573392.450   -15204332.57849 -11822548.49749  19573394.8074   19573401.9884
  16466849.960   -29915961.55849 -23289715.70949  16466852.0074   16466857.1434
 96  5 13 18 52 29.9850000  0  8  9  2 27 26  5  4 24  7
  17614457.027   -36620050.48549 -28106305.42149  17614459.0614   17614464.3834
  17902887.442   -17292092.12949 -13467326.61249  17902890.5414   17902896.0724
  20033658.701    -1653747.54549  -1281411.90049  20033662.5724   20033670.6604
  19372154.893   -24339530.69349 -18940805.87449  19372157.9914   19372164.1614
  20337119.879   -11277086.78749  -7998911.97649  20337120.8904   20337128.1794
  17486430.513   -36971091.01249 -28774737.04149  17486433.6074   17486438.6564
  19537631.721   -15392242.81949 -11968971.97949  19537636.7794   19537644.7744
  16460139.147   -29951226.35749 -23317194.77949  16460141.3524   16460146.1124
 96  5 13 18 52 59.9850000  0  8  9  2 27 26  5  4 24  7
  17586184.272   -36768621.27149 -28222074.83149  17586187.0994   17586191.3934
  17896927.047   -17323419.57949 -13491737.63149  17896928.8794   17896935.0544
  20040506.916    -1617767.40849  -1253375.58849  20040509.7354   20040517.3654
  19369314.681   -24354459.30949 -18952438.60249  19369318.0774   19369323.3504
  20306316.398   -11438950.31949  -8125039.31049  20306320.2864   20306325.8604
  17456398.716   -37128909.66949 -28897712.57649  17456402.0374   17456406.9444
  19501883.075   -15580111.74549 -12115363.26949  19501886.4184   19501893.5434
  16453474.680   -29986248.06049 -23344484.42349  16453476.8584   16453481.8924
 96  5 13 18 53 29.9850000  0  8  9  2 27 26  5  4 24  7
  17557973.968   -36916869.81749 -28337593.14749  17557976.5544   17557981.1984
  17890994.429   -17354589.58549 -13516025.97349  17890997.7894   17891002.8964
  20047358.525    -1581768.81649  -1225324.91249  20047360.8784   20047368.5024
  19366501.440   -24369245.50349 -18963960.36049  19366504.3864   19366509.8104
  20275492.814   -11600931.90249  -8251258.62649  20275495.0214   20275501.9144
  17426426.280   -37286416.74949 -29020445.32649  17426429.2024   17426434.4344
  19466133.981   -15767970.38249 -12261746.53049  19466137.8974   19466145.3684
  16446847.007   -30021074.71749 -23371622.08649  16446849.6234   16446854.6894
 96  5 13 18 53 59.9850000  0  8  9  2 27 26  5  4 24  7
  17529860.238   -37064607.11249 -28452713.08949  17529862.7694   17529867.6084
  17885131.140   -17385410.88149 -13540042.60749  17885132.3844   17885138.2624
  20054242.573    -1545583.31249  -1197128.60249  20054245.9474   20054254.3004
  19363751.785   -24383687.75649 -18975214.10249  19363755.8354   19363762.5924
  20244684.671   -11762834.67649  -8377416.53649  20244685.3354   20244692.4424
  17396551.362   -37443411.57249 -29142778.92249  17396554.1704   17396558.9944
  19430424.470   -15955628.24749 -12407973.33949  19430427.2334   19430434.2274
  16440289.997   -30055531.58149 -23398471.59849  16440292.7234   16440297.7314
 96  5 13 18 54 29.9850000  0  8  9  2 27 26  5  4 24  7
  17501802.762   -37212049.53549 -28567603.26649  17501805.4044   17501810.3294
  17879289.855   -17416104.56349 -13563959.78649  17879291.6604   17879297.2294
  20061125.481    -1509418.22049  -1168948.18849  20061128.4124   20061136.0854
  19361030.479   -24397993.68849 -18986361.62949  19361033.8834   19361039.4824
  20213854.214   -11924842.85049  -8503656.58049  20213856.8754   20213864.8114
  17366730.447   -37600113.14449 -29264883.99949  17366734.6424   17366739.9524
  19394711.110   -16143300.89449 -12554211.68249  19394714.5314   19394721.8134
  16433763.125   -30089829.66549 -23425197.38349  16433765.9654   16433770.9944
 96  5 13 18 54 59.9850000  0  8  9  2 27 26  5  4 24  7
  17473777.516   -37359323.66349 -28682362.29949  17473780.2184   17473784.9994
  17873449.966   -17446795.04749 -13587874.47749  17873451.6844   17873457.3644
  20067984.668    -1473379.49249  -1140866.25449  20067986.2264   20067993.3694
  19358316.500   -24412259.79749 -18997478.11749  19358318.4624   19358324.1564
  20182985.978   -12087063.20049  -8630061.95249  20182987.2064   20182994.6444
  17336949.420   -37756621.18049 -29386838.27349  17336952.1974   17336957.0724
  19358974.048   -16331107.30449 -12700554.23649  19358976.1404   19358983.3104
  16427246.633   -30124074.90749 -23451881.98849  16427249.4694   16427254.2574
 96  5 13 18 55 29.9850000  0  8  9  2 27 26  5  4 24  7
  17445899.805   -37505821.31149 -28796516.29049  17445902.1014   17445907.5254
  17867723.896   -17476881.23849 -13611318.28449  17867726.4204   17867732.3154
  20074933.955    -1436855.21549  -1112405.96849  20074936.8264   20074945.0174
  19355724.641   -24425880.02849 -19008091.31549  19355727.0794   19355732.4404
  20152192.950   -12248879.03849  -8756152.12649  20152194.9734   20152200.3534
  17307321.112   -37912317.27949 -29508159.86549  17307324.1754   17307329.2284
  19323328.473   -16518428.13349 -12846518.42949  19323330.4244   19323336.3154
  16420858.371   -30157645.88549 -23478041.20049  16420861.1244   16420866.0184
 96  5 13 18 55 59.9850000  0  7  9  2 26  5  4 24  7
  17418104.805   -37651884.79049 -28910331.97349  17418107.3034   17418112.3824
  17862048.791   -17506705.75849 -13634558.20149  17862050.7634   17862056.4894
  19353186.848   -24439215.96849 -19018482.97949  19353189.2174   19353194.6864
  20121408.578   -12410639.20449  -8882198.92249  20121413.1394   20121419.8624
  17277779.507   -38067550.45049 -29629120.74649  17277784.4714   17277788.8424
  19287713.856   -16705583.17849 -12992353.45149  19287716.5564   19287722.1274
  16414536.578   -30190866.10549 -23503927.09549  16414539.4734   16414544.5894
 96  5 13 18 56 29.9850000  0  7  9  2 26  5  4 24  7
  17390328.586   -37797849.86249 -29024070.96649  17390331.1174   17390336.4874
  17856361.902   -17536591.23049 -13657845.61749  17856364.0174   17856369.7164
  19350634.223   -24452620.63049 -19028928.21849  19350638.4474   19350644.1394
  20090575.402   -12572688.78549  -9008471.23749  20090575.1064   20090583.9764
  17248264.121   -38222665.70149 -29749989.72349  17248266.8904   17248272.0604
  19252066.481   -16892911.12749 -13138323.19249  19252068.6984   19252075.7684
  16408217.702   -30224073.28149 -23529802.81549  16408220.2524   16408225.1864
 96  5 13 18 56 59.9850000  0  7  9  2 26  5  4 24  7
  17362604.588   -37943542.77349 -29137597.89849  17362606.8594   17362611.9964
  17850697.409   -17566361.77749 -13681043.47349  17850698.7414   17850705.1384
  19348101.223   -24465936.32949 -19039304.13049  19348104.6234   19348110.7094
  20059710.111   -12734876.52649  -9134851.22949  20059713.6644   20059719.8784
  17218803.081   -38377483.31549 -29870626.78449  17218805.7074   17218810.9484
  19216416.209   -17080245.79349 -13284298.17049  19216419.6334   19216427.5404
  16401929.818   -30257114.91549 -23555549.54749  16401932.5834   16401937.5654
 96  5 13 18 57 29.9850000  0  7  9  2 26  5  4 24  7
  17335011.633   -38088544.37449 -29250586.13749  17335014.0374   17335018.5934
  17845131.595   -17595606.06549 -13703831.24249  17845133.9934   17845140.0594
  19345659.792   -24478765.63449 -19049301.03849  19345662.8104   19345669.2324
  20028896.125   -12896799.28949  -9261024.71649  20028898.5404   20028907.2444
  17189474.968   -38531603.29349 -29990720.22649  17189478.1244   17189482.6124
  19180842.353   -17267185.80649 -13429965.62449  19180846.8334   19180853.0324
  16395747.770   -30289600.41449 -23580862.93049  16395750.8014   16395755.9794
 96  5 13 18 57 59.9850000  0  7  9  2 26  5  4 24  7
  17307512.703   -38233052.36249 -29363189.74549  17307515.1044   17307519.9014
  17839627.738   -17624530.11349 -13726369.48749  17839629.4794   17839635.8454
  19343272.512   -24491310.07649 -19059075.97849  19343276.0024   19343283.1724
  19998094.599   -13058666.31849  -9387154.78849  19998097.1904   19998104.2094
  17160239.616   -38685234.77449 -30110433.03249  17160243.0514   17160247.4364
  19145305.454   -17453941.58449 -13575489.53049  19145307.6014   19145314.5234
  16389627.832   -30321761.38849 -23605923.43749  16389631.0024   16389635.9194
 96  5 13 18 58 29.9850000  0  7  9  2 26  5  4 24  7
  17280025.301   -38377499.79649 -29475746.16149  17280027.9854   17280032.5104
  17834098.455   -17653585.80249 -13749010.30849  17834100.7354   17834106.6724
  19340857.294   -24504012.67749 -19068974.15649  19340858.5994   19340865.2174
  19967218.228   -13220917.27849  -9513584.02049  19967219.5524   19967228.6014
  17131014.655   -38838807.62249 -30230100.13349  17131018.8274   17131024.0754
  19109716.512   -17640964.73349 -13721221.77549  19109719.1364   19109724.8004
  16383483.582   -30354052.10249 -23631085.03249  16383486.2014   16383491.0544
 96  5 13 18 58 59.9850000  0  7  9  2 26  5  4 24  7
  17252675.282   -38521224.90549 -29587739.73149  17252677.9174   17252682.5364
  17828667.704   -17682129.07949 -13771251.85349  17828668.9974   17828674.7094
  19338535.677   -24516208.03549 -19078477.10049  19338538.5114   19338545.0224
  19936399.292   -13382877.90749  -9639786.98849  19936401.2444   19936409.6114
  17101931.791   -38991643.33049 -30349192.85649  17101934.8364   17101939.8864
  19074203.364   -17827580.35649 -13866636.48949  19074206.7064   19074213.1214
  16377444.313   -30385789.12649 -23655815.19249  16377446.7764   16377451.7404
 96  5 13 18 59 29.9850000  0  7  9  2 26  5  4 24  7
  17225444.532   -38664324.36649 -29699245.77749  17225446.7224   17225451.6444
  17823316.156   -17710247.03949 -13793161.98349  17823318.9594   17823324.1684
  19336295.464   -24527979.22949 -19087649.50549  19336298.0214   19336304.4434
  19905618.319   -13544636.46649  -9765832.51049  19905618.9924   19905627.2914
  17072971.023   -39143831.82149 -30467781.24949  17072974.4034   17072979.3554
  19038753.629   -18013874.06849 -14011800.34449  19038755.2254   19038762.3714
  16371495.796   -30417048.13349 -23680172.86449  16371498.3974   16371503.5734
 96  5 13 18 59 59.9840000  0  7  9  2 26  5  4 24  7
  17198238.442   -38807291.85149 -29810648.98849  17198240.9584   17198245.5204
  17817950.427   -17738441.78949 -13815131.94449  17817953.1754   17817958.8424
  19334038.627   -24539837.73649 -19096889.95149  19334042.8034   19334049.6094
  19874780.147   -13706681.72949  -9892101.45549  19874784.0304   19874790.6714
  17044043.824   -39295848.46649 -30586235.74249  17044046.6384   17044051.4384
  19003271.214   -18200331.07349 -14157091.44349  19003274.0204   19003281.4714
  16365544.528   -30448318.28749 -23704539.22749  16365547.9214   16365552.8284
 96  5 13 19  0 29.9840000  0  7  9  2 26  5  4 24  7
  17171049.730   -38950167.34049 -29921980.51149  17171052.1944   17171056.7834
  17812566.282   -17766739.51749 -13837182.14249  17812567.8334   17812574.6314
  19331756.928   -24551822.99749 -19106229.16449  19331760.3414   19331767.2914
  19843881.053   -13869065.29549 -10018634.01049  19843883.7364   19843889.1534
  17015141.599   -39447726.01749 -30704581.84349  17015145.1964   17015150.1674
  18967748.811   -18386995.21949 -14302543.94349  18967753.0574   18967759.6644
  16359589.152   -30479616.42349 -23728927.38949  16359592.1494   16359597.1244
 96  5 13 19  0 59.9840000  0  7  9  2 26  5  4 24  7
  17143935.097   -39092655.04349 -30033009.86849  17143938.1464   17143942.9794
  17807220.284   -17794832.90049 -13859073.12249  17807222.0224   17807228.7334
  19329509.302   -24563643.41049 -19115439.94949  19329511.7904   19329518.2714
  19812972.756   -14031490.25749 -10145198.81849  19812974.3614   19812981.2994
  16986322.528   -39599173.27049 -30822592.66349  16986325.9574   16986330.6964
  18932246.690   -18573564.44049 -14447922.48849  18932251.6004   18932256.8494
  16353681.410   -30510662.83249 -23753119.41049  16353684.0144   16353689.2104
 96  5 13 19  1 29.9840000  0  7  9  2 26  5  4 24  7
  17116920.930   -39234617.53849 -30143629.96849  17116923.5444   17116928.3344
  17801938.711   -17822586.76249 -13880699.52449  17801940.2134   17801947.1644
  19327313.340   -24575179.28849 -19124428.99949  19327316.4994   19327323.0384
  19782078.843   -14193835.83049 -10271701.77849  19782081.3704   19782088.6964
  16957607.982   -39750068.67349 -30940173.45949  16957611.5054   16957616.2884
  18896787.351   -18759907.37449 -14593124.71849  18896790.9994   18896796.0174
  16347838.543   -30541366.02349 -23777043.97949  16347841.7924   16347846.6594
 96  5 13 19  1 59.9840000  0  7  9  2 26  5  4 24  7
  17089975.516   -39376216.11449 -30253966.49949  17089978.0454   17089983.4354
  17796688.061   -17850179.75849 -13902200.58549  17796689.8424   17796696.4814
  19325136.460   -24586622.38349 -19133345.77149  19325138.9804   19325145.9004
  19751169.458   -14356261.46849 -10398267.12749  19751172.8124   19751179.1094
  16928967.269   -39900580.89249 -31057455.67249  16928969.7044   16928974.5314
  18861339.928   -18946183.65649 -14738275.00549  18861344.3894   18861351.1434
  16342028.527   -30571901.65049 -23800837.98349  16342030.8394   16342035.7974
 96  5 13 19  2 29.9840000  0  7  9  2 26  5  4 24  7
  17063077.694   -39517564.92149 -30364108.40949  17063080.4604   17063084.8104
  17791450.131   -17877705.65949 -13923649.37949  17791452.6524   17791458.5194
  19322957.841   -24598070.35949 -19142266.33449  19322961.4364   19322967.1464
  19720224.306   -14518882.56749 -10524984.79649  19720226.3504   19720233.9404
  16900374.920   -40050829.47849 -31174532.46749  16900378.5624   16900383.3144
  18825888.813   -19132486.85349 -14883446.26049  18825891.3314   18825897.8654
  16336227.734   -30602384.77149 -23824591.06949  16336230.1714   16336234.9614
 96  5 13 19  2 59.9840000  0  7  9  2 26  5  4 24  7
  17036290.428   -39658331.75549 -30473796.82149  17036293.2054   17036297.7214
  17786287.442   -17904834.44449 -13944788.71449  17786290.2454   17786295.6274
  19320843.007   -24609179.82349 -19150923.11749  19320846.5244   19320852.9114
  19689308.247   -14681350.11649 -10651582.79149  19689309.9734   19689317.6594
  16871900.245   -40200466.21549 -31291132.48649  16871903.8094   16871908.3484
  18790498.754   -19318460.94049 -15028361.05949  18790501.3184   18790506.8414
  16330500.611   -30632479.48849 -23848041.49949  16330503.0414   16330508.2494
 96  5 13 19  3 29.9840000  0  7  9  2 26  5  4 24  7
  17009659.676   -39798277.69249 -30582845.58949  17009662.2474   17009666.9774
  17781240.826   -17931347.26949 -13965448.09049  17781244.9314   17781250.6314
  19318839.221   -24619709.07849 -19159127.78549  19318843.1914   19318850.3474
  19658468.034   -14843415.93049 -10777867.76649  19658469.9084   19658476.8814
  16843590.347   -40349238.86149 -31407059.19249  16843593.2424   16843597.7734
  18755215.558   -19503872.20049 -15172837.31049  18755218.8214   18755225.5324
  16324897.349   -30661927.01949 -23870987.63649  16324899.4974   16324904.3764
 96  5 13 19  3 59.9840000  0  7  9  2 26  5  4 24  7
  16983161.756   -39937525.69449 -30691350.50849  16983164.3074   16983169.0014
  17776292.094   -17957360.53249 -13985718.20349  17776294.2544   17776301.0954
  19316924.169   -24629773.31849 -19166970.12049  19316928.5884   19316934.9144
  19627685.123   -15005186.38949 -10903922.58549  19627686.0104   19627693.0394
  16815421.212   -40497264.10149 -31522403.51249  16815424.5884   16815429.5224
  18720016.271   -19688844.36549 -15316971.41049  18720019.2874   18720026.8744
  16319396.508   -30690827.62049 -23893507.59649  16319399.7094   16319404.7684
 96  5 13 19  4 29.9840000  0  7  9  2 26  5  4 24  7
  16956685.632   -40076658.15949 -30799765.39249  16956688.4844   16956692.9234
  17771329.513   -17983445.84549 -14006044.43149  17771330.3554   17771336.6864
  19314991.047   -24639931.27549 -19174885.47149  19314995.2654   19315001.6654
  19596843.754   -15167248.00249 -11030204.27549  19596846.3944   19596853.0374
  16787284.430   -40645127.42549 -31637621.65349  16787287.1954   16787291.8594
  18684789.737   -19873954.17449 -15461212.75049  18684794.0084   18684800.2274
  16313889.889   -30719766.47949 -23916057.36049  16313892.8894   16313897.7634
 96  5 13 19  4 59.9840000  0  7  9  2 26  5  4 24  7
  16930265.166   -40215502.19449 -30907955.53449  16930267.4474   16930272.2234
  17766380.178   -18009449.11949 -14026306.74649  17766383.3434   17766388.8504
  19313069.817   -24650027.34249 -19182752.58849  19313074.2214   19313080.0184
  19565984.089   -15329416.60349 -11156569.33149  19565986.9584   19565992.9044
  16759208.820   -40792662.93549 -31752584.36249  16759212.3524   16759217.1054
  18649568.098   -20059047.50349 -15605441.25649  18649572.3034   18649579.5234
  16308409.246   -30748572.62849 -23938503.71449  16308411.3754   16308416.3294
 96  5 13 19  5 29.9840000  0  7  9  2 26  5  4 24  7
  16903891.601   -40354093.41349 -31015948.67749  16903894.0774   16903898.9844
  17761439.753   -18035409.21849 -14046535.43249  17761442.3414   17761448.1134
  19311149.260   -24660120.11549 -19190617.15049  19311153.6314   19311160.0604
  19535093.360   -15491747.22749 -11283060.63649  19535097.5904   19535103.3524
  16731182.872   -40939939.94949 -31867345.64149  16731186.4494   16731191.4204
  18614338.071   -20244182.45549 -15749702.21349  18614342.2474   18614349.1724
  16302941.987   -30777304.55249 -23960892.23449  16302943.9994   16302948.9444
 96  5 13 19  5 59.9840000  0  7  9  2 26  5  4 24  7
  16877586.411   -40492327.76149 -31123663.73149  16877588.9984   16877593.9144
  17756532.651   -18061202.61249 -14066634.18349  17756533.3664   17756540.3254
  19309247.665   -24670114.94649 -19198405.39349  19309251.8054   19309257.6914
  19504187.851   -15654167.29849 -11409621.65349  19504188.9504   19504195.1534
  16703221.619   -41086877.75949 -31981842.60449  16703224.9704   16703229.6464
  18579121.006   -20429251.44049 -15893911.74149  18579124.3944   18579131.6534
  16297503.817   -30805879.83149 -23983158.69149  16297506.5274   16297511.1614
 96  5 13 19  6 29.9840000  0  7  9  2 26  5  4 24  7
  16851357.663   -40630159.09349 -31231064.75149  16851360.5634   16851365.5854
  17751662.067   -18086798.14549 -14086578.78249  17751663.8674   17751669.0234
  19307371.027   -24679978.62049 -19206091.42549  19307375.0804   19307381.1674
  19473265.795   -15816652.21549 -11536233.17749  19473269.5934   19473274.9844
  16675332.059   -41233438.28449 -32096045.58649  16675335.4584   16675340.1164
  18543923.118   -20614222.63949 -16038045.09549  18543925.6374   18543932.4124
  16292102.048   -30834262.05249 -24005274.71949  16292105.4544   16292110.2804
 96  5 13 19  6 59.9840000  0  7  9  2 26  5  4 24  7
  16825226.677   -40767480.84849 -31338068.69249  16825229.3784   16825233.8294
  17746842.818   -18112117.79849 -14106308.41549  17746845.0774   17746851.6344
  19305533.945   -24689637.36649 -19213617.78049  19305535.2694   19305542.7264
  19442353.312   -15979098.10749 -11662814.28849  19442356.2154   19442362.8094
  16647534.994   -41379512.04849 -32209869.27449  16647538.3374   16647543.0994
  18508756.206   -20799023.53149 -16182045.73149  18508758.7844   18508765.5204
  16286756.673   -30862357.14849 -24027167.00549  16286759.0224   16286763.7864
 96  5 13 19  7 29.9840000  0  7  9  2 26  5  4 24  7
  16799218.605   -40904154.66249 -31444567.74949  16799221.0104   16799225.7614
  17742100.678   -18137035.94449 -14125725.17049  17742103.5484   17742109.7144
  19303758.371   -24698967.08249 -19220887.74649  19303761.3114   19303766.6134
  19411469.559   -16141393.96249 -11789278.50849  19411471.9094   19411478.6804
  16619857.531   -41524959.82949 -32323205.17749  16619860.8104   16619865.5434
  18473647.532   -20983521.62149 -16325810.40849  18473650.8344   18473656.4774
  16281486.752   -30890049.36249 -24048745.35449  16281489.4944   16281494.1174
 96  5 13 19  7 59.9840000  0  7  9  2 26  5  4 24  7
  16773290.667   -41040405.85249 -31550737.49249  16773293.5814   16773298.1344
  17737392.143   -18161782.16349 -14145007.97349  17737394.6524   17737400.9014
  19302001.292   -24708202.35549 -19228084.11149  19302003.9734   19302010.5624
  19380573.922   -16303758.00749 -11915795.85649  19380575.5714   19380581.9584
  16592259.594   -41669986.76649 -32436213.15349  16592262.7234   16592267.8894
  18438553.821   -21167937.21249 -16469510.81249  18438556.4064   18438563.7734
  16276250.299   -30917566.53149 -24070187.31449  16276253.1304   16276258.2874
 96  5 13 19  8 29.9840000  0  7  9  2 26  5  4 24  7
  16747405.753   -41176432.28749 -31656732.09349  16747408.3994   16747412.7964
  17732676.765   -18186570.86549 -14164323.86849  17732677.7684   17732684.5904
  19300222.020   -24717551.51049 -19235369.21049  19300225.3154   19300230.8514
  19349630.875   -16466361.22349 -12042499.56949  19349632.7144   19349639.8494
  16564709.378   -41814762.60849 -32549025.46149  16564713.2474   16564717.6284
  18403441.858   -21352447.85849 -16613285.27849  18403445.9004   18403451.7224
  16271009.175   -30945106.51949 -24091647.04549  16271012.4124   16271017.3184
 96  5 13 19  8 59.9840000  0  7  9  2 26  5  4 24  7
  16721596.471   -41312060.10249 -31762416.08549  16721599.0924   16721603.7234
  17727988.769   -18211204.82149 -14183519.20649  17727989.9464   17727996.1174
  19298453.898   -24726842.61649 -19242609.09549  19298456.9644   19298463.0114
  19318675.544   -16629032.43049 -12169256.28449  19318677.4954   19318684.5284
  16537241.503   -41959106.27049 -32661501.01349  16537245.2714   16537250.0064
  18368352.040   -21536851.82649 -16756976.62349  18368354.8754   18368361.6004
  16265796.409   -30972502.00349 -24112994.18349  16265799.3594   16265804.0384
 96  5 13 19  9 29.9830000  0  7  9  2 26  5  4 24  7
  16695893.727   -41447126.86949 -31867662.90349  16695896.4174   16695901.2314
  17723367.561   -18235484.15549 -14202438.19349  17723370.1094   17723376.0294
  19296731.400   -24735898.69249 -19249665.82849  19296733.5554   19296739.7084
  19287737.892   -16791615.75749 -12295944.50149  19287738.5634   19287745.1374
  16509890.525   -42102844.26249 -32773504.61549  16509892.7834   16509897.4314
  18333318.493   -21720949.69449 -16900429.45449  18333320.8774   18333328.7694
  16260642.420   -30999585.52149 -24134098.23249  16260645.1524   16260650.4984
 96  5 13 19  9 59.9830000  0  7  9  2 26  5  4 24  7
  16670290.141   -41581676.79549 -31972506.98149  16670292.7154   16670297.6464
  17718811.516   -18259425.10449 -14221093.50849  17718813.8224   17718819.7204
  19295048.312   -24744742.62849 -19256557.24549  19295050.2624   19295056.5774
  19256807.428   -16954143.10449 -12422589.10149  19256810.7554   19256817.4894
  16482645.290   -42246010.51349 -32885062.69649  16482649.2074   16482653.8844
  18298337.769   -21904778.33049 -17043672.47549  18298341.0704   18298347.8514
  16255544.296   -31026374.19249 -24154972.51749  16255547.7864   16255552.6154
 96  5 13 19 10 29.9830000  0  7  9  2 26  5  4 24  7
  16644776.250   -41715752.73849 -32076981.72949  16644778.9084   16644783.9724
  17714311.576   -18283075.92749 -14239522.75849  17714313.1944   17714319.3664
  19293399.310   -24753407.10249 -19263308.85049  19293402.1704   19293407.8334
  19225883.511   -17116655.47649 -12549222.03949  19225886.7224   19225893.2864
  16455503.110   -42388645.00349 -32996206.42949  16455506.5584   16455511.4294
  18263399.123   -22088379.38449 -17186738.17449  18263402.2684   18263409.5254
  16250496.250   -31052903.81849 -24175644.97049  16250499.3074   16250504.4874
 96  5 13 19 10 59.9830000  0  7  9  2 26  5  4 24  7
  16619346.155   -41849388.95749 -32181113.82349  16619349.0354   16619353.7514
  17709857.442   -18306473.30749 -14257754.51049  17709860.9844   17709866.9924
  19291776.616   -24761935.43149 -19269954.35649  19291779.3404   19291785.1934
  19194951.029   -17279200.95449 -12675880.75449  19194954.5354   19194960.5604
  16428455.188   -42530789.53749 -33106968.36749  16428457.4824   16428462.3764
  18228493.063   -22271809.88749 -17329670.97349  18228497.2484   18228503.4894
  16245490.003   -31079215.45749 -24196147.54649  16245492.3104   16245497.3194
 96  5 13 19 11 29.9830000  0  7  9  2 26  5  4 24  7
  16594020.407   -41982476.16149 -32284818.12149  16594023.4154   16594028.0374
  17705468.171   -18329541.61749 -14275729.85049  17705470.9154   17705477.2674
  19290199.648   -24770224.29149 -19276413.24749  19290202.5184   19290208.7164
  19164037.014   -17441655.93649 -12802468.95949  19164039.6194   19164047.2354
  16401520.346   -42672326.73849 -33217257.06749  16401523.9484   16401528.8594
  18193640.062   -22454967.22249 -17472390.92149  18193643.2244   18193649.5484
  16240545.559   -31105197.94249 -24216393.64749  16240548.0664   16240553.2014
 96  5 13 19 11 59.9830000  0  7  9  2 26  5  4 24  7
  16568771.839   -42115160.82749 -32388208.74849  16568774.3764   16568778.8474
  17701104.525   -18352466.48949 -14293593.40949  17701109.0714   17701114.8274
  19288633.812   -24778444.72749 -19282818.84249  19288637.5164   19288645.8144
  19133113.755   -17604161.66649 -12929096.71249  19133115.5674   19133123.5704
  16374670.741   -42813420.81449 -33327200.47049  16374674.5184   16374679.3954
  18158809.908   -22638004.39249 -17615017.21849  18158811.4394   18158818.9844
  16235632.113   -31131015.23449 -24236511.01649  16235635.2334   16235640.4074
 96  5 13 19 12 29.9830000  0  7  9  2 26  5  4 24  7
  16543625.121   -42247306.93549 -32491179.72449  16543627.6774   16543632.5294
  17696795.041   -18375124.85249 -14311249.30949  17696797.1974   17696803.6404
  19287105.384   -24786475.25949 -19289076.47049  19287108.4834   19287116.5274
  19102208.581   -17766582.43349 -13055658.27449  19102208.3164   19102214.0814
  16347930.107   -42953944.82949 -33436699.66649  16347933.4584   16347938.5614
  18124028.234   -22820775.19749 -17757435.96649  18124031.9054   18124038.2794
  16230773.487   -31156548.99649 -24256407.45649  16230776.2414   16230781.4164
 96  5 13 19 12 59.9830000  0  7  9  2 26  5  4 24  7
  16518581.104   -42378914.17949 -32593730.81049  16518583.4854   16518588.4174
  17692534.240   -18397514.46449 -14328695.79449  17692536.7214   17692543.2174
  19285610.845   -24794329.40049 -19295196.64649  19285614.0574   19285622.0234
  19071313.891   -17928918.83049 -13182154.06849  19071316.6984   19071322.7774
  16321297.927   -43093900.90749 -33545756.31949  16321300.8424   16321305.7864
  18089300.945   -23003269.97049 -17899639.62249  18089303.1774   18089311.1184
  16225966.424   -31181810.17749 -24276091.49449  16225969.1374   16225974.3294
 96  5 13 19 13 29.9830000  0  7  9  2 26  5  4 24  7
  16493597.307   -42510203.91549 -32696034.48149  16493599.8974   16493604.4994
  17688285.422   -18419841.22949 -14346093.29649  17688287.7644   17688294.2874
  19284112.913   -24802211.89149 -19301338.91749  19284113.9664   19284122.2464
  19040397.400   -18091381.05249 -13308747.91549  19040400.4324   19040407.9554
  16294729.503   -43233514.79549 -33654546.32549  16294733.2804   16294738.1194
  18054585.981   -23185696.05649 -18041789.74749  18054589.7024   18054596.2794
  16221170.223   -31207014.01849 -24295730.84549  16221173.2064   16221178.3054
 96  5 13 19 13 59.9830000  0  7  9  2 26  5  4 24  7
  16468691.588   -42641083.61849 -32798018.65349  16468694.4494   16468698.9944
  17684072.134   -18441979.44249 -14363343.89249  17684074.6914   17684081.1004
  19282624.687   -24810024.44849 -19307426.70349  19282628.3344   19282635.7184
  19009475.843   -18253879.13349 -13435369.70949  19009478.6224   19009485.8064
  16268244.450   -43372699.05449 -33763001.56549  16268247.1624   16268251.9104
  18019902.083   -23367959.34549 -18183813.03149  18019907.1764   18019913.0774
  16216404.594   -31232060.93549 -24315247.92749  16216406.9474   16216411.8784
 96  5 13 19 14 29.9830000  0  7  9  2 26  5  4 24  7
  16443869.380   -42771523.76349 -32899660.31249  16443872.2384   16443877.1284
  17679902.756   -18463895.73149 -14380421.54749  17679904.5034   17679911.4184
  19281159.341   -24817724.77649 -19313427.04449  19281162.9884   19281170.1934
  18978551.075   -18416393.29449 -13562004.02649  18978553.7464   18978560.1144
  16241847.150   -43511409.81249 -33871087.84549  16241851.2624   16241855.9744
  17985254.061   -23550038.98849 -18325693.22249  17985257.8484   17985263.8484
  16211674.685   -31256912.18449 -24334612.53649  16211677.6504   16211682.7204
 96  5 13 19 14 59.9830000  0  7  9  2 26  5  4 24  7
  16419101.158   -42901682.60449 -33001082.76849  16419103.9564   16419108.3074
  17675740.055   -18485760.57649 -14397459.11049  17675743.6984   17675750.6684
  19279682.840   -24825480.30049 -19319470.37849  19279687.4264   19279694.0174
  18947589.518   -18579089.78749 -13688780.42649  18947592.7584   18947599.6744
  16215512.662   -43649803.76249 -33978927.25349  16215515.9904   16215520.7504
  17950606.838   -23732111.94649 -18467568.19249  17950610.4414   17950616.5674
  16206953.495   -31281725.69849 -24353947.73649  16206956.0564   16206960.9254
 96  5 13 19 15 29.9830000  0  7  9  2 26  5  4 24  7
  16394410.377   -43031434.92249 -33102188.45249  16394412.9484   16394417.4144
  17671614.087   -18507454.40249 -14414363.42349  17671615.9574   17671621.7804
  19278218.636   -24833175.92749 -19325467.04549  19278222.8974   19278230.3784
  18916618.722   -18741856.34749 -13815611.43449  18916619.7574   18916625.9344
  16189259.299   -43787764.73049 -34086429.27649  16189262.8424   16189267.6534
  17915983.063   -23914065.01249 -18609349.74649  17915985.8894   17915991.3594
  16202261.461   -31306377.97049 -24373157.29749  16202264.7044   16202269.7094
 96  5 13 19 15 59.9830000  0  7  9  2 26  5  4 24  7
  16369884.543   -43160317.19449 -33202616.17949  16369887.1814   16369891.9274
  17667598.866   -18528551.29149 -14430802.57849  17667601.0794   17667607.1324
  19276847.687   -24840387.60449 -19331086.59749  19276850.8244   19276857.6274
  18885713.833   -18904252.13349 -13942153.51649  18885718.0044   18885723.2964
  16163174.445   -43924843.84749 -34193244.14549  16163177.5104   16163182.1254
  17881466.448   -24095450.94449 -18750689.37549  17881469.0264   17881474.9194
  16197685.569   -31330429.16649 -24391898.48749  16197688.1264   16197692.9854
 96  5 13 19 16 29.9830000  0  7  9  2 26  5  4 24  7
  16345453.847   -43288702.15549 -33302656.38549  16345456.2934   16345460.6834
  17663619.211   -18549459.56749 -14447094.77749  17663622.1614   17663628.4324
  19275491.542   -24847519.38249 -19336643.90949  19275493.9924   19275500.9894
  18854810.070   -19066659.87449 -14068704.93649  18854811.9854   18854817.2614
  16137184.708   -44061419.45349 -34299666.66049  16137187.9684   16137192.5634
  17846985.609   -24276647.75549 -18891881.64449  17846988.5514   17846994.7264
  16193146.648   -31354281.41049 -24410484.65049  16193148.7074   16193153.6314
 96  5 13 19 16 59.9830000  0  7  9  2 26  5  4 24  7
  16321112.215   -43416620.73049 -33402333.18549  16321114.5364   16321118.8334
  17659677.900   -18570176.77049 -14463238.10249  17659680.5864   17659685.5094
  19274141.154   -24854613.84249 -19342172.12049  19274144.0104   19274150.6464
  18823898.716   -19229090.78249 -14195274.38749  18823902.4644   18823908.8344
  16111285.319   -44197519.96449 -34405718.98649  16111288.9764   16111293.5544
  17812537.169   -24457662.39449 -19032931.95249  17812542.1084   17812548.6244
  16188640.126   -31377959.02849 -24428934.74749  16188643.5994   16188648.1864
 96  5 13 19 17 29.9830000  0  7  9  2 26  5  4 24  7
  16296837.000   -43544184.23949 -33501733.30649  16296839.7054   16296844.1014
  17655756.106   -18590789.46649 -14479299.98249  17655758.2414   17655764.1104
  19272779.863   -24861769.64249 -19347748.15249  19272782.9344   19272789.3564
  18792967.474   -19391642.02749 -14321937.59849  18792968.8754   18792975.8384
  16085457.062   -44333252.22949 -34511484.35849  16085459.7694   16085464.4834
  17778112.028   -24638578.38849 -19173905.39849  17778115.2494   17778121.6204
  16184147.633   -31401569.25349 -24447332.32849  16184150.6754   16184155.3074
 96  5 13 19 17 59.9830000  0  7  9  2 26  5  4 24  7
  16272609.146   -43671504.29949 -33600943.73349  16272611.7974   16272615.9474
  17651831.422   -18611399.84649 -14495360.06649  17651835.9934   17651842.6834
  19271389.045   -24869079.17249 -19353443.96449  19271391.6504   19271397.6594
  18761993.225   -19554406.30349 -14448766.82949  18761996.2634   18762002.2364
  16059679.362   -44468709.44049 -34617035.40649  16059683.1574   16059687.7334
  17743684.825   -24819493.75549 -19314878.34949  17743688.4444   17743694.1144
  16179647.292   -31425218.33349 -24465760.18249  16179649.9194   16179654.9754
 96  5 13 19 18 29.9830000  0  7  9  2 26  5  4 24  7
  16248491.427   -43798243.41349 -33699701.46849  16248494.0634   16248498.4794
  17647983.970   -18631631.84549 -14511125.28549  17647985.4294   17647991.6744
  19270037.734   -24876177.12349 -19358974.90549  19270041.3044   19270047.5934
  18731044.759   -19717037.95649 -14575492.71849  18731048.8074   18731054.7134
  16034026.005   -44603525.74949 -34722087.04249  16034028.5394   16034033.2454
  17709323.672   -25000061.62549 -19455580.52949  17709326.8524   17709332.6734
  16175207.707   -31448549.28449 -24483940.14449  16175210.4674   16175215.2454
 96  5 13 19 18 59.9830000  0  7  9  2 26  5  4 24  7
  16224562.054   -43923993.55249 -33797688.57849  16224564.2944   16224568.9914
  17644285.564   -18651062.47149 -14526266.06949  17644288.2624   17644294.6004
  19268808.600   -24882639.87749 -19364010.89849  19268810.9084   19268817.6374
  18700201.396   -19879125.27949 -14701794.45749  18700203.6494   18700210.4914
  16008570.890   -44737286.34049 -34826316.05349  16008574.7724   16008579.2424
  17675107.990   -25179871.09749 -19595691.75149  17675111.0524   17675116.4414
  16170908.922   -31471139.21749 -24501542.69849  16170911.7784   16170916.6684
 96  5 13 19 19 29.9820000  0  7  9  2 26  5  4 24  7
  16200787.530   -44048929.22949 -33895041.04549  16200790.1624   16200794.6094
  17640697.878   -18669913.68149 -14540955.36549  17640701.1484   17640707.5984
  19267663.717   -24888658.28249 -19368700.64049  19267665.9434   19267672.4564
  18669422.280   -20040867.06249 -14827826.93949  18669425.0724   18669431.8754
  15983282.778   -44870177.99449 -34929867.96449  15983286.2864   15983290.9134
  17640998.390   -25359117.95649 -19735364.58249  17641000.4204   17641007.0354
  16166711.997   -31493196.65749 -24518730.32149  16166714.5364   16166719.4254
 96  5 13 19 19 59.9820000  0  7  9  2 26  5  4 24  7
  16177074.005   -44173542.15349 -33992142.00649  16177076.8894   16177081.7434
  17637124.689   -18688690.33449 -14555586.56449  17637128.1314   17637134.3114
  19266503.842   -24894740.53049 -19373440.12649  19266508.2434   19266514.9894
  18638614.803   -20202777.73649 -14953991.01849  18638614.9504   18638621.0624
  15958066.911   -45002688.90349 -35033123.19049  15958070.0504   15958074.6644
  17606895.219   -25538314.19949 -19874997.97149  17606900.3524   17606907.1314
  16162520.540   -31515221.70049 -24535892.70049  16162523.5784   16162528.4904
 96  5 13 19 20 29.9820000  0  7  9  2 26  5  4 24  7
  16153418.453   -44297855.21849 -34089009.31849  16153421.0024   16153425.6844
  17633557.791   -18707439.64449 -14570196.44349  17633560.2784   17633567.0384
  19265323.255   -24900949.42649 -19378278.31049  19265326.9844   19265333.1734
  18607761.417   -20364893.96149 -15080315.26649  18607766.2784   18607772.6554
  15932915.390   -45134859.65049 -35136113.35549  15932919.0584   15932923.9294
  17572800.887   -25717489.75049 -20014615.22749  17572804.7484   17572810.7944
  16158326.028   -31537264.31849 -24553068.76649  16158328.7314   16158333.5354
 96  5 13 19 20 59.9820000  0  7  9  2 26  5  4 24  7
  16129869.869   -44421602.92449 -34185436.08749  16129872.7334   16129877.1694
  17630040.424   -18725915.36749 -14584593.14049  17630044.6134   17630050.4304
  19264165.659   -24907033.59049 -19383019.29049  19264168.2944   19264175.7604
  18576926.066   -20526942.98149 -15206587.15149  18576929.4424   18576935.3324
  15907875.837   -45266448.23549 -35238649.89049  15907878.5474   15907883.2304
  17538761.361   -25896375.77449 -20154006.88549  17538764.3084   17538770.6374
  16154173.458   -31559085.74649 -24570072.47949  16154176.2674   16154181.2054
 96  5 13 19 21 29.9820000  0  7  9  2 26  5  4 24  7
  16106472.150   -44544557.25449 -34281244.64249  16106475.0794   16106479.5594
  17626623.341   -18743882.25049 -14598593.35249  17626626.0134   17626631.6084
  19263074.965   -24912765.52149 -19387485.79949  19263078.4304   19263085.3354
  18546146.487   -20688694.42649 -15332627.15749  18546147.5744   18546154.4414
  15882987.771   -45397230.25249 -35340557.92949  15882991.6104   15882996.1764
  17504817.569   -26074750.51449 -20293000.13949  17504820.3214   17504826.9304
  16150104.312   -31580470.01249 -24586735.54949  16150107.0984   16150111.9584
 96  5 13 19 21 59.9820000  0  7  9  2 26  5  4 24  7
  16083178.722   -44666966.31449 -34376628.31549  16083181.6504   16083186.1354
  17623256.524   -18761575.08349 -14612380.01249  17623258.7084   17623265.2194
  19262007.010   -24918390.62649 -19391869.07249  19262008.4864   19262014.4214
  18515377.136   -20850388.79549 -15458622.68949  18515378.6984   18515385.8194
  15858209.383   -45527445.52849 -35442024.35649  15858212.4214   15858217.1714
  17470924.800   -26252857.97549 -20431785.13149  17470928.1224   17470933.8684
  16146072.181   -31601658.64649 -24603246.18749  16146074.7294   16146079.7694
 96  5 13 19 22 29.9820000  0  7  9  2 26  5  4 24  7
  16060005.598   -44788741.99749 -34471518.44149  16060008.4664   16060012.8344
  17619957.545   -18778903.98149 -14625883.08949  17619960.7464   17619968.5254
  19260972.010   -24923820.32349 -19396100.07349  19260974.5574   19260982.3874
  18484635.654   -21011929.02349 -15584498.10649  18484638.1574   18484644.3584
  15833551.257   -45657019.97249 -35542991.42249  15833555.1154   15833559.8024
  17437097.763   -26430617.08349 -20570298.66849  17437100.7954   17437107.1904
  16142093.490   -31622564.61349 -24619536.55849  16142096.5144   16142101.4484
 96  5 13 19 22 59.9820000  0  7  9  2 26  5  4 24  7
  16036952.311   -44909887.09749 -34565917.20749  16036955.1984   16036959.7034
  17616731.742   -18795860.93949 -14639096.34249  17616734.6424   17616740.1994
  19259979.371   -24929039.80449 -19400167.27649  19259981.3644   19259987.9414
  18453926.660   -21173314.28249 -15710252.78049  18453929.1164   18453932.9284
  15809017.814   -45785947.58649 -35643454.47549  15809020.9734   15809025.3424
  17403339.558   -26608015.61749 -20708531.24949  17403342.7354   17403349.4934
  16138173.356   -31643170.87949 -24635593.39749  16138175.3364   16138180.2974
 96  5 13 19 23 29.9820000  0  7  9  2 26  5  4 24  7
  16014012.055   -45030439.74949 -34659854.32949  16014014.7944   16014019.1384
  17613566.025   -18812497.07849 -14652059.61449  17613568.4154   17613574.6794
  19259012.917   -24934109.16549 -19404117.50649  19259017.6504   19259025.2134
  18423232.575   -21334607.45549 -15835935.70749  18423235.4904   18423240.4924
  15784600.635   -45914255.54249 -35743434.68149  15784604.6734   15784609.1434
  17369645.682   -26785079.48349 -20846503.04849  17369648.9004   17369655.1784
  16134304.727   -31663497.43649 -24651432.28749  16134307.2734   16134312.3704
 96  5 13 19 23 59.9820000  0  7  9  2 26  5  4 24  7
  15991177.713   -45150434.43549 -34753356.67049  15991180.5324   15991184.9504
  17610450.440   -18828865.46649 -14664814.24749  17610453.6754   17610460.3144
  19258066.186   -24939081.51649 -19407992.14149  19258070.6144   19258077.4884
  18392546.784   -21495854.15649 -15961582.42049  18392550.7364   18392556.1964
  15760296.554   -46041974.97149 -35842956.28949  15760300.1894   15760305.1494
  17336010.790   -26961833.70049 -20984233.56949  17336014.3174   17336020.3064
  16130483.414   -31683579.58549 -24667080.72349  16130486.0574   16130490.8044
 96  5 13 19 24 29.9820000  0  7  9  2 26  5  4 24  7
  15968448.619   -45269875.21849 -34846427.39549  15968451.3484   15968456.0204
  17607387.028   -18844971.59749 -14677364.51949  17607389.3254   17607394.6934
  19257139.501   -24943957.99649 -19411792.07449  19257142.3574   19257149.6484
  18361871.158   -21657064.17349 -16087200.52549  18361873.1684   18361878.9114
  15736104.234   -46169110.11649 -35942022.60849  15736107.3674   15736111.9244
  17302436.861   -27138265.75249 -21121713.04649  17302440.0044   17302446.2764
  16126707.533   -31703418.90749 -24682539.93849  16126710.6354   16126715.2614
 96  5 13 19 24 59.9820000  0  7  9  2 26  5  4 24  7
  15945820.915   -45388786.98749 -34939085.90649  15945823.3934   15945828.0024
  17604368.775   -18860835.87349 -14689726.33649  17604369.7154   17604376.0784
  19256225.021   -24948768.14849 -19415540.31949  19256228.7374   19256233.9184
  18331194.725   -21818269.14149 -16212814.73049  18331196.0544   18331202.3514
  15712020.464   -46295672.09949 -36040642.30449  15712023.5824   15712028.0784
  17268922.637   -27314383.50749 -21258947.61949  17268925.9094   17268931.5484
  16122972.187   -31723047.48849 -24697834.94449  16122975.1404   16122980.1254
 96  5 13 19 25 29.9820000  0  7  9  2 26  5  4 24  7
  15923292.311   -45507175.91149 -35031337.00249  15923295.1364   15923299.3524
  17601392.681   -18876462.79349 -14701903.18649  17601396.5934   17601402.8114
  19255317.496   -24953534.49049 -19419254.42649  19255320.3804   19255328.4024
  18300519.203   -21979477.06049 -16338431.21749  18300520.9644   18300525.8524
  15688044.398   -46421668.73949 -36138821.47849  15688047.0924   15688051.7714
  17235463.756   -27490209.99549 -21395955.23549  17235467.3674   17235472.8274
  16119273.711   -31742485.89949 -24712981.76049  16119276.6434   16119281.3314
 96  5 13 19 25 59.9820000  0  7  9  2 26  5  4 24  7
  15900861.706   -45625047.27249 -35123184.81249  15900864.4184   15900868.8634
  17598467.961   -18891841.53249 -14713886.66749  17598469.5694   17598475.7614
  19254420.267   -24958245.25249 -19422925.23149  19254423.6764   19254431.5264
  18269842.964   -22140666.51349 -16464033.32549  18269846.4464   18269852.4154
  15664174.551   -46547104.12249 -36236563.31249  15664177.5924   15664182.0184
  17202056.863   -27665762.84649 -21532749.62849  17202060.6354   17202067.1664
  16115607.244   -31761753.16249 -24727995.22049  16115610.0314   16115614.9364
 96  5 13 19 26 29.9820000  0  7  9  2 26  5  4 24  7
  15878530.324   -45742400.63849 -35214628.98549  15878533.1414   15878537.7184
  17595590.702   -18906958.76249 -14725666.36649  17595593.6574   17595600.0354
  19253535.606   -24962892.80249 -19426546.78249  19253539.7914   19253546.1794
  18239176.266   -22301819.73949 -16589607.20049  18239180.3304   18239185.8814
  15640410.696   -46671978.80449 -36333868.23349  15640414.6934   15640419.0494
  17168703.669   -27841039.98849 -21669329.17649  17168706.3984   17168712.6224
  16111975.930   -31780836.25549 -24742865.17349  16111978.7174   16111983.6974
 96  5 13 19 26 59.9820000  0  7  9  2 26  5  4 24  7
  15856301.502   -45859214.42049 -35305652.70449  15856304.2504   15856308.6344
  17592767.813   -18921795.78649 -14737227.72049  17592769.0914   17592776.8304
  19252665.742   -24967474.51449 -19430117.02249  19252667.5944   19252675.1184
  18208525.522   -22462900.40349 -16715124.52949  18208527.4704   18208534.4514
  15616757.854   -46796280.62649 -36430726.76349  15616760.8324   15616764.9514
  17135403.972   -28016026.04849 -21805681.90249  17135407.6204   17135413.5314
  16108384.081   -31799711.35049 -24757573.04949  16108386.9464   16108391.8474
 96  5 13 19 27 29.9820000  0  7  9  2 26  5  4 24  7
  15834174.220   -45975494.44749 -35396260.50849  15834176.6804   15834181.3054
  17589992.347   -18936374.87449 -14748588.09649  17589995.0574   17590002.0004
  19251804.022   -24971999.56749 -19433643.10649  19251806.5734   19251814.0724
  18177884.653   -22623913.90049 -16840589.52749  18177887.6144   18177892.8904
  15593210.555   -46920022.23549 -36527148.76249  15593213.7634   15593217.8304
  17102158.536   -28190731.12849 -21941815.69249  17102161.9094   17102168.0174
  16104830.935   -31818383.54549 -24772122.81549  16104833.8384   16104838.7834
 96  5 13 19 27 59.9820000  0  7  9  2 26  5  4 24  7
  15812110.249   -46091439.24549 -35486607.10049  15812113.0854   15812117.4564
  17587227.134   -18950907.47549 -14759912.24349  17587230.0044   17587236.4624
  19250916.665   -24976666.72749 -19437279.93849  19250920.3554   19250924.5794
  18147220.245   -22785059.73749 -16966157.65149  18147222.9574   18147228.5504
  15569733.251   -47043397.96849 -36623285.66749  15569735.8384   15569739.7684
  17068930.534   -28365344.76249 -22077878.22049  17068933.9724   17068940.4394
  16101276.670   -31837058.54249 -24786674.76949  16101280.0954   16101284.8744
 96  5 13 19 28 29.9820000  0  7  9  2 26  5  4 24  7
  15790142.830   -46206880.31549 -35576561.17749  15790145.5624   15790150.0194
  17584497.805   -18965251.86049 -14771089.74149  17584500.3784   17584506.8054
  19250030.673   -24981325.20649 -19440910.01449  19250032.0924   19250040.1114
  18116556.300   -22946194.83849 -17091717.40349  18116558.6904   18116565.6334
  15546352.200   -47166261.44049 -36719023.40549  15546355.8894   15546360.2954
  17035750.386   -28539707.71049 -22213745.41149  17035754.5124   17035760.1034
  16097752.259   -31855579.68849 -24801106.83749  16097755.1404   16097760.4524
 96  5 13 19 28 59.9810000  0  7  9  2 26  5  4 24  7
  15768191.607   -46322234.87249 -35666447.83649  15768194.2554   15768198.8154
  17581723.354   -18979833.18249 -14782451.86249  17581725.0894   17581732.2144
  19249062.989   -24986406.67849 -19444869.68049  19249067.7864   19249072.7254
  18085812.001   -23107755.66249 -17217608.89849  18085815.2614   18085821.8134
  15522990.202   -47289032.23449 -36814688.92249  15522993.0834   15522997.9164
  17002540.156   -28714235.21849 -22349740.82249  17002543.0604   17002548.9394
  16094171.774   -31874395.51549 -24815768.52749  16094174.6724   16094179.6274
 96  5 13 19 29 29.9810000  0  7  9  2 26  5  4 24  7
  15746332.315   -46437104.11649 -35755956.33249  15746335.1674   15746339.9924
  17578983.071   -18994235.82549 -14793674.75349  17578985.2684   17578992.7034
  19248094.282   -24991491.86249 -19448832.25549  19248097.7954   19248104.8594
  18055063.144   -23269349.37549 -17343526.02649  18055064.0764   18055070.1544
  15499724.825   -47411289.55849 -36909954.33749  15499728.4454   15499732.8924
  16969371.148   -28888536.06249 -22485559.62649  16969374.2064   16969380.7354
  16090610.480   -31893111.40449 -24830352.35249  16090613.4124   16090618.4224
 96  5 13 19 29 59.9810000  0  7  9  2 26  5  4 24  7
  15724565.655   -46551491.43949 -35845089.30149  15724568.3884   15724572.9534
  17576276.947   -19008446.88549 -14804748.34949  17576281.6254   17576288.6844
  19247128.961   -24996583.05649 -19452799.49449  19247129.7044   19247136.8474
  18024304.611   -23430974.28949 -17469467.44949  18024308.5164   18024314.2454
  15476557.361   -47533038.39549 -37004823.52449  15476560.2014   15476564.8564
  16936245.958   -29062607.97849 -22621200.03149  16936249.5334   16936255.6054
  16087067.474   -31911729.71349 -24844860.13049  16087070.5364   16087075.6624
 96  5 13 19 30 29.9810000  0  7  9  2 26  5  4 24  7
  15702884.550   -46665424.74349 -35933868.49549  15702887.6044   15702891.9424
  17573607.164   -19022482.83249 -14815685.51149  17573610.1774   17573616.5824
  19246152.481   -25001705.35549 -19456790.97749  19246155.2874   19246162.4484
  17993540.593   -23592653.16549 -17595450.92249  17993542.0824   17993548.1444
  15453481.791   -47654298.38549 -37099311.79249  15453485.0304   15453489.5034
  16903162.269   -29236468.73849 -22756675.89649  16903165.3634   16903170.9044
  16083539.298   -31930270.28849 -24859307.34749  16083542.5114   16083547.0944
 96  5 13 19 30 59.9810000  0  7  9  2 26  5  4 24  7
  15681279.644   -46778961.68649 -36022338.83249  15681282.0774   15681286.4004
  17570964.717   -19036371.28749 -14826507.72949  17570967.0524   17570973.1264
  19245159.888   -25006913.39749 -19460849.29349  19245162.9604   19245171.6014
  17962756.715   -23754423.74049 -17721505.85549  17962759.0204   17962764.6064
  15430497.343   -47775087.86649 -37193433.43149  15430499.7584   15430504.3064
  16870110.803   -29410154.82649 -22892015.66849  16870113.8054   16870119.7314
  16080019.173   -31948769.79649 -24873722.55849  16080021.9504   16080026.9084
 96  5 13 19 31 29.9810000  0  7  9  2 26  5  4 24  7
  15659756.986   -46892063.76249 -36110470.31449  15659759.6414   15659763.9724
  17568352.843   -19050094.28849 -14837201.03349  17568356.9574   17568361.8184
  19244159.004   -25012168.99849 -19464944.65249  19244163.6154   19244171.3814
  17931962.378   -23916251.84149 -17847605.62149  17931963.3974   17931969.1814
  15407606.035   -47895376.34049 -37287164.67549  15407609.4734   15407613.8654
  16837096.423   -29583638.82849 -23027197.96649  16837100.6724   16837106.3114
  16076513.031   -31967191.83949 -24888077.41149  16076516.0514   16076521.1394
 96  5 13 19 31 59.9810000  0  7  9  2 26  5  4 24  7
  15638313.200   -47004750.39249 -36198278.07149  15638315.9434   15638320.2814
  17565763.937   -19063697.75549 -14847801.19349  17565767.1604   17565774.1014
  19243143.530   -25017515.02449 -19469110.48349  19243146.4754   19243153.2814
  17901147.234   -24078178.72649 -17973782.35449  17901149.6194   17901155.3744
  15384800.710   -48015218.72449 -37380548.31849  15384804.0694   15384808.8514
  16804116.865   -29756947.27749 -23162243.46849  16804121.1924   16804127.1044
  16073017.186   -31985565.42149 -24902394.49749  16073019.8594   16073024.7724
 96  5 13 19 32 29.9810000  0  7  9  2 26  5  4 24  7
  15616931.419   -47117110.68449 -36285831.53549  15616934.3724   15616938.9334
  17563178.985   -19077288.85949 -14858391.71449  17563180.5094   17563187.7204
  19242091.114   -25023050.87349 -19473424.21849  19242093.9504   19242100.0924
  17870296.510   -24240297.53949 -18100108.63749  17870299.4424   17870305.0444
  15362066.137   -48134695.37049 -37473646.97449  15362068.7734   15362073.2104
  16771151.949   -29930181.02749 -23297230.76249  16771155.5354   16771161.5254
  16069512.158   -32003985.22049 -24916747.59749  16069514.9214   16069519.5124
 96  5 13 19 32 59.9810000  0  7  9  2 26  5  4 24  7
  15595681.650   -47228779.36049 -36372846.08249  15595684.5314   15595689.0084
  17560663.844   -19090507.87649 -14868692.29749  17560665.5764   17560671.2294
  19241066.842   -25028427.34349 -19477613.76049  19241070.0884   19241077.5444
  17839480.224   -24402242.58049 -18226299.51649  17839482.4684   17839488.5584
  15339465.590   -48253457.25249 -37566188.66749  15339469.0394   15339473.5104
  16738268.320   -30102987.41349 -23431885.05749  16738272.2414   16738277.7864
  16066064.393   -32022100.58549 -24930863.47649  16066067.7194   16066072.7944
 96  5 13 19 33 29.9810000  0  7  9  2 26  5  4 24  7
  15574537.875   -47339891.51649 -36459426.98349  15574540.7434   15574545.2264
  17558189.944   -19103499.20649 -14878815.45649  17558193.0174   17558200.9074
  19240046.033   -25033791.82149 -19481793.97649  19240049.3834   19240056.9844
  17808670.256   -24564151.56549 -18352462.31049  17808672.9324   17808678.7624
  15316973.610   -48371657.89549 -37658293.04349  15316976.2564   15316980.6904
  16705440.303   -30275503.06249 -23566312.81249  16705443.5874   16705448.9164
  16062647.860   -32040054.76649 -24944853.76449  16062651.0444   16062656.1994
 96  5 13 19 33 59.9810000  0  7  9  2 26  5  4 24  7
  15553458.289   -47450668.38149 -36545746.61949  15553460.6084   15553465.1674
  17555725.980   -19116454.36249 -14888910.42549  17555727.3634   17555735.1934
  19238984.755   -25039374.37749 -19486144.11149  19238987.6864   19238995.3294
  17777827.766   -24726223.01149 -18478751.68349  17777830.4794   17777836.3014
  15294549.555   -48489493.95849 -37750113.32649  15294552.6184   15294557.1564
  16672629.093   -30447924.09249 -23700666.83249  16672632.5974   16672637.8694
  16059223.795   -32058046.73049 -24958873.49049  16059226.9954   16059232.5804
 96  5 13 19 34 29.9810000  0  7  9  2 26  5  4 24  7
  15532443.397   -47561102.90049 -36631799.48749  15532445.8524   15532450.0814
  17553272.478   -19129345.12749 -14898955.22849  17553275.7994   17553282.4374
  19237881.805   -25045166.18349 -19490657.31049  19237885.3354   19237892.5544
  17746961.029   -24888426.34049 -18605143.83449  17746964.5244   17746970.1534
  15272201.093   -48606934.10049 -37841625.09449  15272204.4864   15272208.7984
  16639842.181   -30620221.74249 -23834924.71049  16639845.4734   16639850.4874
  16055796.319   -32076066.22349 -24972914.66149  16055798.5754   16055803.4924
 96  5 13 19 34 59.9810000  0  7  9  2 26  5  4 24  7
  15511513.923   -47671086.36249 -36717500.88649  15511516.5854   15511520.9694
  17550852.478   -19142064.81949 -14908866.72349  17550854.8564   17550861.3684
  19236757.156   -25051071.51449 -19495258.95949  19236761.5924   19236768.6444
  17716091.052   -25050652.06749 -18731553.43549  17716093.5214   17716099.7284
  15249946.445   -48723885.97149 -37932756.39849  15249949.3654   15249953.9404
  16607102.109   -30792269.37849 -23968987.77049  16607105.7824   16607110.8844
  16052378.197   -32094024.20849 -24986907.91349  16052381.2554   16052386.4584
 96  5 13 19 35 29.9810000  0  7  9  2 26  5  4 24  7
  15490667.202   -47780636.10449 -36802864.31749  15490669.8434   15490674.1924
  17548461.472   -19154639.18549 -14918664.96549  17548461.9794   17548468.8304
  19235611.054   -25057097.05649 -19499954.28449  19235614.4734   19235622.4944
  17685210.783   -25212925.11249 -18857999.90049  17685213.8634   17685219.9974
  15227780.116   -48840366.48349 -38023520.40949  15227783.9804   15227788.2934
  16574409.169   -30964073.90849 -24102861.39449  16574412.4234   16574418.4134
  16048968.361   -32111944.29449 -25000871.63049  16048971.0214   16048976.2714
 96  5 13 19 35 59.9810000  0  7  9  2 26  5  4 24  7
  15469978.253   -47889356.81349 -36887581.75349  15469980.8144   15469985.4854
  17546164.720   -19166685.00349 -14928051.36849  17546170.3264   17546176.4154
  19234520.912   -25062836.28849 -19504426.52249  19234523.1564   19234530.6344
  17654397.651   -25374854.42849 -18984178.52549  17654399.7734   17654405.8044
  15205778.564   -48955990.74049 -38113617.20749  15205781.1964   15205785.6124
  16541835.989   -31135245.26649 -24236241.63749  16541839.4574   16541845.0704
  16045637.348   -32129446.83149 -25014509.98649  16045640.7174   16045645.6994
 96  5 13 19 36 29.9810000  0  7  9  2 26  5  4 24  7
  15449479.803   -47997077.63549 -36971520.05849  15449482.0444   15449486.8304
  17544004.031   -19178058.30449 -14936913.74649  17544006.2354   17544010.7314
  19233514.907   -25068118.73049 -19508542.81249  19233518.3524   19233525.3734
  17623677.569   -25536285.30949 -19109968.77149  17623680.4214   17623687.5874
  15183969.632   -49070591.72949 -38202916.66049  15183973.5834   15183978.0094
  16509414.956   -31305622.75749 -24369003.29149  16509417.8454   16509423.5104
  16042414.428   -32146383.86349 -25027707.69049  16042417.2584   16042422.5894
 96  5 13 19 36 59.9810000  0  7  9  2 26  5  4 24  7
  15429138.965   -48103969.00449 -37054812.03349  15429141.5104   15429146.2794
  17541930.673   -19188937.57549 -14945391.14449  17541935.6254   17541943.1274
  19232565.149   -25073109.32249 -19512431.68749  19232568.6624   19232575.7274
  17593019.126   -25697398.29749 -19235511.30949  17593021.9094   17593026.8694
  15162325.896   -49184334.32149 -38291547.22949  15162329.0124   15162333.6514
  16477109.437   -31475383.68849 -24501284.50349  16477113.3534   16477119.2924
  16039268.877   -32162916.07049 -25040589.94449  16039271.5804   16039276.3964
 96  5 13 19 37 29.9810000  0  6  9  2  5  4 24  7
  15408913.469   -48210253.20949 -37137630.88849  15408916.3494   15408921.0164
  17539917.456   -19199534.10249 -14953648.23549  17539918.0974   17539925.7694
  17562378.624   -25858415.54549 -19360979.23549  17562381.2004   17562386.6984
  15140806.248   -49297416.42049 -38379663.12749  15140810.0604   15140814.5234
  16444881.811   -31644744.56749 -24633253.98049  16444885.3024   16444890.4474
  16036163.951   -32179230.37749 -25053302.40749  16036166.9094   16036171.7304
 96  5 13 19 37 59.9810000  0  6  9  2  5  4 24  7
  15388766.625   -48316126.40349 -37220129.48049  15388769.5004   15388773.9564
  17537915.135   -19210044.50849 -14961838.22149  17537918.7204   17537924.8444
  17531716.759   -26019546.68549 -19486535.90649  17531719.2464   17531724.9384
  15119377.242   -49410029.51249 -38467413.56849  15119380.5134   15119384.8714
  16412690.609   -31813909.82049 -24765071.02549  16412693.8744   16412699.7924
  16033065.647   -32195512.42049 -25065989.72349  16033068.6874   16033073.7924
 96  5 13 19 38 29.9810000  0  6  9  2  5  4 24  7
  15368736.819   -48421383.46849 -37302147.96549  15368739.5734   15368744.1314
  17535975.351   -19220258.05949 -14969796.89549  17535975.2134   17535980.4254
  17501070.475   -26180590.10749 -19612024.24449  17501074.0094   17501078.8214
  15098076.486   -49521964.94949 -38554635.96449  15098079.8494   15098084.3954
  16380578.396   -31982661.40449 -24896565.72749  16380581.7474   16380587.3594
  16030014.124   -32211547.95949 -25078484.95349  16030017.3794   16030022.2404
 96  5 13 19 38 59.9800000  0  6  9  2  5  4 24  7
  15348801.469   -48526144.65449 -37383780.05249  15348804.1384   15348808.8814
  17534061.977   -19230281.52849 -14977607.45049  17534067.5674   17534073.6314
  17470420.018   -26341656.82049 -19737530.72349  17470423.2764   17470428.7844
  15076879.658   -49633356.10849 -38641434.24549  15076882.8544   15076887.4904
  16348523.930   -32151108.76149 -25027823.36549  16348526.9414   16348532.3334
  16026989.795   -32227441.45349 -25090869.50449  16026992.8694   16026997.4874
 96  5 13 19 39 29.9800000  0  6  9  2  5  4 24  7
  15328889.696   -48630782.55149 -37465316.08049  15328892.3204   15328896.9854
  17532128.119   -19240467.81749 -14985544.88449  17532130.2394   17532135.8444
  17439695.105   -26503125.46949 -19863350.39649  17439697.4974   17439703.0914
  15055715.645   -49744573.92849 -38728097.46849  15055718.9884   15055723.1244
  16316455.229   -32319620.43849 -25159131.13349  16316459.9554   16316466.2264
  16023920.192   -32243575.39149 -25103441.42049  16023922.4944   16023927.5834
 96  5 13 19 39 59.9800000  0  6  9  2  5  4 24  7
  15308996.062   -48735323.60949 -37546776.63649  15308998.6894   15309003.5064
  17530148.600   -19250857.72049 -14993640.96649  17530152.2304   17530159.2634
  17408887.258   -26665020.06149 -19989501.98049  17408890.3814   17408895.0014
  15034576.555   -49855658.16949 -38814656.58649  15034579.9784   15034584.4474
  16284370.889   -32488233.93649 -25290518.22549  16284374.2724   16284380.3294
  16020790.977   -32260020.21349 -25116255.57649  16020793.2364   16020797.9204
 96  5 13 19 40 29.9800000  0  6  9  2  5  4 24  7
  15289277.636   -48838944.05949 -37627519.84249  15289280.4774   15289285.3704
  17528288.932   -19260634.92949 -15001259.62949  17528291.7984   17528297.7414
  17378158.163   -26826500.79249 -20115331.07349  17378160.9614   17378166.1784
  15013619.801   -49965786.16449 -38900470.59149  15013623.5644   15013628.0114
  16252423.242   -32656122.45649 -25421340.41349  16252425.5364   16252431.9414
  16017756.116   -32275965.84349 -25128680.74949  16017759.1234   16017763.8774
 96  5 13 19 40 59.9800000  0  6  9  2  5  4 24  7
  15269644.851   -48942115.90349 -37707913.49049  15269647.3674   15269652.3034
  17526455.316   -19270282.44049 -15008777.24649  17526456.2034   17526462.1534
  17347416.130   -26988049.14649 -20241212.85849  17347419.6034   17347424.4444
  14992756.327   -50075428.69249 -38985906.30749  14992759.1824   14992763.6984
  16220518.731   -32823773.24449 -25551977.35849  16220522.9134   16220528.6894
  16014722.669   -32291907.42649 -25141102.77349  16014725.3334   16014730.4304
 96  5 13 19 41 29.9800000  0  6  9  2  5  4 24  7
  15250145.266   -49044585.14149 -37787759.64649  15250148.2344   15250153.0254
  17524686.151   -19279565.46349 -15016010.82449  17524689.0114   17524696.1524
  17316709.091   -27149417.14649 -20366954.09849  17316712.0334   17316716.3184
  14972029.930   -50184343.20249 -39070774.73149  14972033.4324   14972037.6094
  16188707.001   -32990956.14349 -25682249.69449  16188708.9894   16188714.8224
  16011731.156   -32307623.64449 -25153349.17949  16011734.8084   16011739.3504
 96  5 13 19 41 59.9800000  0  6  9  2  5  4 24  7
  15230762.201   -49146445.54149 -37867131.38449  15230764.9034   15230769.6334
  17522968.482   -19288599.43249 -15023050.35149  17522970.4914   17522976.9554
  17286019.563   -27310694.16549 -20492624.44949  17286022.4074   17286026.6754
  14951419.319   -50292654.56549 -39155173.17349  14951422.5424   14951426.8714
  16156959.516   -33157776.38449 -25812239.45249  16156964.1444   16156970.1204
  16008765.799   -32323210.92449 -25165495.12049  16008768.5774   16008773.1274
 96  5 13 19 42 29.9800000  0  6  9  2  5  4 24  7
  15211498.392   -49247680.23949 -37946015.57249  15211500.7744   15211505.3174
  17521299.826   -19297368.39049 -15029883.39149  17521301.9654   17521308.9174
  17255348.461   -27471868.69749 -20618214.94449  17255351.1394   17255355.4784
  14930925.636   -50400351.07249 -39239092.51249  14930928.3874   14930933.0234
  16125288.033   -33324218.52749 -25941934.59349  16125291.5184   16125297.7234
  16005827.878   -32338649.24749 -25177524.99249  16005830.7724   16005835.4944
 96  5 13 19 42 59.9800000  0  6  9  2  5  4 24  7
  15192278.500   -49348679.78449 -38024716.51049  15192281.0444   15192285.7834
  17519611.131   -19306240.48349 -15036796.78049  17519614.3174   17519620.9304
  17224625.467   -27633320.90849 -20744021.79749  17224628.4424   17224632.8924
  14910477.699   -50507804.59749 -39322822.50349  14910480.6224   14910485.1084
  16093614.569   -33490659.15949 -26071628.53849  16093618.0474   16093624.1224
  16002845.365   -32354325.47749 -25189740.24249  16002847.6704   16002852.7564
 96  5 13 19 43 29.9800000  0  6  9  2  5  4 24  7
  15173074.256   -49449598.38749 -38103354.38849  15173076.8914   15173081.3734
  17517874.899   -19315360.25949 -15043903.16849  17517878.1134   17517885.2824
  17193823.684   -27795189.52549 -20870153.14849  17193825.3094   17193830.0854
  14890047.888   -50615162.66849 -39406478.12149  14890051.3524   14890055.5394
  16061915.234   -33657244.58949 -26201435.32349  16061918.3584   16061924.5124
  15999790.927   -32370371.36149 -25202243.53849  15999794.3474   15999799.4244
 96  5 13 19 43 59.9800000  0  6  9  2  5  4 24  7
  15153923.523   -49550237.38049 -38181774.38949  15153926.2174   15153930.5904
  17516132.817   -19324524.78049 -15051044.43549  17516134.4634   17516142.4944
  17162978.261   -27957274.46249 -20996453.03849  17162981.5874   17162986.8634
  14869677.516   -50722209.81249 -39489891.45449  14869680.5414   14869685.0044
  16030228.215   -33823759.55349 -26331187.19849  16030231.5394   16030237.9754
  15996709.278   -32386570.09849 -25214865.94049  15996711.6734   15996716.3624
 96  5 13 19 44 29.9800000  0  6  9  2  5  4 24  7
  15134908.851   -49650159.16649 -38259635.53149  15134911.5464   15134916.1554
  17514466.678   -19333285.61249 -15057871.13049  17514467.5644   17514475.1834
  17132177.133   -28119134.67649 -21122577.84349  17132180.6304   17132185.1154
  14849456.418   -50828471.16449 -39572692.49249  14849459.6424   14849464.0744
  15998642.811   -33989744.55649 -26460526.12849  15998645.6904   15998651.7874
  15993683.383   -32402468.39449 -25227254.24349  15993686.6714   15993691.3384
 96  5 13 19 44 59.9800000  0  6  9  2  5  4 24  7
  15115933.852   -49749873.13049 -38337334.72049  15115936.5644   15115941.0874
  17512780.442   -19342127.45949 -15064760.95349  17512785.8754   17512792.3244
  17101326.526   -28281260.22849 -21248909.38549  17101328.2544   17101334.0234
  14829291.686   -50934436.60249 -39655262.93349  14829295.2174   14829299.6824
  15967063.047   -34155688.78949 -26589833.26549  15967067.4684   15967073.5664
  15990626.024   -32418538.02649 -25239776.04049  15990628.5604   15990633.5374
 96  5 13 19 45 29.9800000  0  6  9  2  5  4 24  7
  15097075.619   -49848973.58349 -38414555.85549  15097078.1704   15097083.0024
  17511160.301   -19350661.31449 -15071410.79049  17511161.1414   17511168.1394
  17070496.464   -28443271.44949 -21375151.85049  17070499.2274   17070504.0404
  14809254.164   -51039735.05649 -39737313.65549  14809257.5644   14809261.9924
  15935567.231   -34321204.59349 -26718806.57349  15935570.8554   15935576.9074
  15987613.369   -32434367.27249 -25252110.52449  15987616.1714   15987621.4204
 96  5 13 19 45 59.9800000  0  6  9  2  5  4 24  7
  15078334.689   -49947457.91849 -38491296.90449  15078337.2514   15078342.1094
  17509590.931   -19358891.09949 -15077823.68249  17509595.3114   17509602.4874
  17039688.901   -28605166.67249 -21501303.93649  17039691.0374   17039696.9704
  14789344.284   -51144364.59349 -39818843.14549  14789347.4584   14789351.9374
  15904155.405   -34486278.90949 -26847435.87249  15904158.5684   15904163.6824
  15984644.510   -32449970.39649 -25264268.82449  15984646.6914   15984652.1164
 96  5 13 19 46 29.9800000  0  6  9  2  5  4 24  7
  15059697.057   -50045398.77549 -38567614.45449  15059699.6914   15059704.3794
  17508073.330   -19366880.76049 -15084049.46249  17508075.5464   17508082.6664
  17008890.227   -28767015.11849 -21627419.55149  17008892.4184   17008897.3214
  14769547.262   -51248397.08649 -39899907.39649  14769550.5604   14769554.8134
  15872813.112   -34650980.68249 -26975774.87249  15872816.5264   15872822.5704
  15981701.198   -32465432.67049 -25276317.35949  15981704.5494   15981709.9204
 96  5 13 19 46 59.9800000  0  6  9  2  5  4 24  7
  15041203.555   -50142582.54549 -38643342.07649  15041206.5484   15041211.2274
  17506632.253   -19374439.62649 -15089939.56749  17506636.7344   17506644.2614
  16978136.419   -28928624.34149 -21753348.77949  16978138.8374   16978144.7234
  14749897.514   -51351658.59449 -39980370.89849  14749900.6914   14749904.8124
  15841575.827   -34815133.48349 -27103686.10949  15841579.5584   15841585.0674
  15978819.237   -32480582.07949 -25288122.12249  15978821.5284   15978827.2304
 96  5 13 19 47 29.9800000  0  6  9  2  5  4 24  7
  15022799.024   -50239298.46449 -38718705.13149  15022801.8274   15022806.3204
  17505216.176   -19381894.95949 -15095748.98649  17505217.7674   17505224.4894
  16947372.110   -29090297.15749 -21879327.56049  16947374.7814   16947379.0804
  14730334.909   -51454459.21349 -40060475.25349  14730338.0514   14730342.4294
  15810385.291   -34979043.50349 -27231408.16349  15810388.1244   15810393.8814
  15975932.031   -32495753.86749 -25299944.31049  15975934.8084   15975939.6424
 96  5 13 19 47 59.9800000  0  6  9  2  5  4 24  7
  15004524.821   -50335330.07649 -38793534.95549  15004527.6024   15004532.3724
  17503860.013   -19389026.00249 -15101305.70249  17503860.4584   17503867.4924
  16916640.673   -29251786.73649 -22005163.54949  16916643.5604   16916648.7894
  14710906.902   -51556554.65349 -40140030.11949  14710909.8774   14710914.2474
  15779284.258   -35142477.84549 -27358759.55549  15779287.6954   15779293.5364
  15973079.233   -32510744.44749 -25311625.29949  15973082.1564   15973087.4604
 96  5 13 19 48 29.9790000  0  6  9  2  5  4 24  7
  14986350.931   -50430834.45449 -38867953.96149  14986353.6694   14986358.4874
  17502536.465   -19395977.81749 -15106722.76349  17502537.5364   17502545.5174
  16885914.837   -29413256.68249 -22130984.24449  16885916.1994   16885922.2564
  14691582.509   -51658103.35849 -40219158.96949  14691585.7954   14691590.3274
  15748243.400   -35305599.11649 -27485867.00149  15748246.9364   15748252.5964
  15970231.184   -32525708.07949 -25323285.29349  15970234.5354   15970239.5504
 96  5 13 19 48 59.9790000  0  6  9  2  5  4 24  7
  14968273.256   -50525832.90649 -38941978.72649  14968275.8914   14968281.1204
  17501239.850   -19402775.22049 -15112019.50049  17501244.3064   17501250.6934
  16855186.649   -29574730.12549 -22256807.65749  16855189.1244   16855194.9114
  14672357.430   -51759133.29349 -40297883.57849  14672360.5334   14672365.1054
  15717258.391   -35468427.39949 -27612746.14249  15717261.6964   15717267.0224
  15967387.280   -32540657.47949 -25334934.19649  15967389.9484   15967395.2394
 96  5 13 19 49 29.9790000  0  6  9  2  5  4 24  7
  14950309.918   -50620232.97449 -39015537.22749  14950312.7564   14950317.3404
  17500001.752   -19409301.45149 -15117104.94649  17500002.6644   17500010.1664
  16824482.091   -29736085.58949 -22382539.16049  16824485.0914   16824489.3734
  14653255.786   -51859510.92749 -40376099.90349  14653259.3114   14653263.9304
  15686354.924   -35630822.22149 -27739287.52449  15686359.1674   15686364.5434
  15964568.282   -32555465.52849 -25346472.95349  15964571.5754   15964577.1774
 96  5 13 19 49 59.9790000  0  6  9  2  5  4 24  7
  14932426.751   -50714209.30349 -39088765.53949  14932429.5014   14932434.2014
  17498780.433   -19415708.17149 -15122097.25749  17498783.5514   17498791.2674
  16793765.943   -29897502.79149 -22508318.74849  16793768.4204   16793773.0404
  14634248.873   -51959395.74249 -40453932.21349  14634251.9704   14634256.2314
  15655506.144   -35792937.50849 -27865611.08649  15655509.0374   15655515.0454
  15961747.434   -32570296.61149 -25358029.66149  15961749.8324   15961754.8744
 96  5 13 19 50 29.9790000  0  6  9  2  5  4 24  7
  14914649.294   -50807628.27849 -39161559.55349  14914652.4704   14914657.1594
  17497605.747   -19421871.94949 -15126900.27649  17497610.9604   17497617.6104
  16763058.129   -30058869.75549 -22634059.21049  16763061.6414   16763065.6414
  14615357.742   -52058668.42149 -40531287.54149  14615360.9774   14615365.4174
  15624734.159   -35954640.92649 -27991613.71649  15624738.2714   15624743.6994
  15958946.373   -32585012.68949 -25369496.75549  15958949.7614   15958954.6934
 96  5 13 19 50 59.9790000  0  6  9  2  5  4 24  7
  14896955.072   -50900613.28649 -39234015.40649  14896958.0194   14896962.5674
  17496451.929   -19427943.26749 -15131631.25249  17496456.0364   17496461.8144
  16732338.427   -30220302.60449 -22759850.99549  16732341.2994   16732346.3254
  14596560.251   -52157450.75049 -40608260.77049  14596563.1524   14596567.5724
  15594019.261   -36116049.80549 -28117386.83249  15594023.0664   15594028.6644
  15956144.956   -32599734.50549 -25380968.31549  15956147.9794   15956153.0714
 96  5 13 19 51 29.9790000  0  6  9  2  5  4 24  7
  14879349.496   -50993132.45749 -39306108.26749  14879352.1674   14879356.6534
  17495322.822   -19433887.14649 -15136262.93249  17495324.6764   17495331.5994
  16701609.093   -30381785.98049 -22885682.15749  16701611.3334   16701617.7954
  14577860.598   -52255715.61649 -40684830.78449  14577864.1264   14577868.4754
  15563365.598   -36277137.60849 -28242909.75649  15563369.1584   15563374.8204
  15953347.345   -32614437.17849 -25392424.96149  15953350.1354   15953355.4874
 96  5 13 19 51 59.9790000  0  6  9  2  5  4 24  7
  14861841.990   -51085132.08049 -39377796.28749  14861845.0764   14861849.7304
  17494220.809   -19439669.60649 -15140768.82849  17494225.2234   17494230.9714
  16670878.194   -30543279.36949 -23011521.12649  16670880.4534   16670884.7274
  14559261.774   -52353452.80749 -40760989.62749  14559265.5724   14559269.7114
  15532776.396   -36437881.19849 -28368164.46549  15532780.2544   15532786.3454
  15950559.428   -32629085.60849 -25403839.34149  15950562.6784   15950567.9014
 96  5 13 19 52 29.9790000  0  6  9  2  5  4 24  7
  14844444.528   -51176555.29749 -39449035.16449  14844447.8754   14844452.5904
  17493161.406   -19445247.89149 -15145115.61149  17493162.8514   17493170.0514
  16640158.006   -30704711.97049 -23137312.72049  16640161.0894   16640167.0544
  14540771.402   -52450619.64649 -40836704.03949  14540775.0934   14540779.5254
  15502264.249   -36598227.95749 -28493109.95549  15502267.4334   15502273.3504
  15947794.807   -32643613.81349 -25415160.04149  15947798.1574   15947803.5484
 96  5 13 19 52 59.9790000  0  6  9  2  5  4 24  7
  14827150.553   -51267438.90949 -39519853.56849  14827153.3714   14827157.9324
  17492130.844   -19450658.45349 -15149331.69349  17492132.9294   17492140.0744
  16609443.968   -30866119.82749 -23263085.03749  16609446.3264   16609451.0054
  14522381.711   -52547260.24749 -40912008.39349  14522385.0574   14522389.2884
  15471820.177   -36758212.43849 -28617773.15049  15471823.4864   15471828.9874
  15945042.916   -32658075.82649 -25426429.16149  15945046.3994   15945051.2614
 96  5 13 19 53 29.9790000  0  6  9  2  5  4 24  7
  14809955.879   -51357797.67849 -39590263.00249  14809958.8314   14809963.4474
  17491130.864   -19455907.22749 -15153421.72549  17491134.5384   17491142.1154
  16578730.250   -31027513.88749 -23388846.60049  16578733.4644   16578739.0574
  14504085.001   -52643407.75149 -40986928.51949  14504088.5254   14504092.9934
  15441440.814   -36917853.79549 -28742168.98149  15441444.6474   15441449.9894
  15942298.545   -32672498.61749 -25437667.72749  15942301.2594   15942307.0584
 96  5 13 19 53 59.9790000  0  6  9  2  5  4 24  7
  14792874.144   -51447563.76449 -39660210.60749  14792876.7614   14792881.2564
  17490175.787   -19460926.86149 -15157333.21149  17490180.3084   17490186.4974
  16548039.761   -31188800.20749 -23514524.21249  16548041.9124   16548047.6974
  14485899.486   -52738976.07449 -41061397.33349  14485902.3844   14485906.9554
  15411141.520   -37077080.28749 -28866241.53349  15411144.7994   15411150.7054
  15939576.227   -32686805.07249 -25448815.63649  15939579.1244   15939583.9474
 96  5 13 19 54 29.9790000  0  6  9  2  5  4 24  7
  14775893.057   -51536800.30349 -39729745.57949  14775895.6374   14775900.2044
  17489255.610   -19465770.38149 -15161107.45149  17489258.1894   17489264.6004
  16517355.781   -31350040.46249 -23640165.93749  16517358.0394   16517363.4674
  14467819.887   -52833986.71449 -41135431.59349  14467822.7294   14467827.1604
  15380912.482   -37235934.51749 -28990024.01349  15380915.9004   15380921.6404
  15936864.193   -32701054.64049 -25459919.22549  15936867.4904   15936872.3144
 96  5 13 19 54 59.9790000  0  6  9  2  5  4 24  7
  14759016.410   -51625485.98749 -39798851.31249  14759019.2104   14759023.9394
  17488372.543   -19470412.41149 -15164724.68649  17488374.1434   17488381.7274
  16486685.510   -31511217.38949 -23765758.31449  16486687.4484   16486692.7374
  14449851.349   -52928409.00149 -41209007.39649  14449854.7004   14449859.0274
  15350755.245   -37394407.02049 -29113509.04349  15350759.3924   15350765.0814
  15934164.915   -32715239.19949 -25470972.15349  15934168.4254   15934173.8064
 96  5 13 19 55 29.9790000  0  6  9  2  5  4 24  7
  14742243.633   -51713626.30949 -39867532.08549  14742246.7534   14742251.4764
  17487529.155   -19474838.75449 -15168173.86149  17487531.8894   17487538.6614
  16456029.013   -31672318.14449 -23891291.32549  16456031.5274   16456036.2754
  14432000.084   -53022218.97549 -41282106.07249  14432003.3574   14432007.5984
  15320671.863   -37552503.97949 -29236701.44249  15320674.3654   15320680.1394
  15931482.406   -32729340.81249 -25481960.45049  15931484.5034   15931490.0074
 96  5 13 19 55 59.9790000  0  6  9  2  5  4 24  7
  14725580.623   -51801193.51049 -39935766.27749  14725583.3594   14725587.9614
  17486736.426   -19479009.08649 -15171423.53749  17486737.9274   17486746.5264
  16425390.000   -31833324.06549 -24016750.46549  16425392.8934   16425398.4424
  14414276.284   -53115358.99749 -41354682.70749  14414279.3834   14414283.5994
  15290665.450   -37710181.30849 -29359566.86149  15290669.3654   15290674.9954
  15928820.179   -32743327.72749 -25492859.36649  15928823.0004   15928828.1394
 96  5 13 19 56 29.9790000  0  6  9  2  5  4 24  7
  14709022.104   -51888208.47149 -40003570.14649  14709025.1694   14709029.8164
  17485985.859   -19482939.98249 -15174486.64449  17485991.7404   17485996.6644
  16394764.952   -31994262.81049 -24142157.23849  16394767.3414   16394772.4334
  14396672.610   -53207863.84449 -41426764.39749  14396676.1034   14396680.5314
  15260739.485   -37867447.08849 -29482111.58749  15260742.7524   15260748.5034
  15926175.419   -32757228.01249 -25503690.77749  15926178.1014   15926183.2704
 96  5 13 19 56 59.9790000  0  6  9  2  5  4 24  7
  14692595.760   -51974528.00249 -40070832.12849  14692598.7254   14692603.8714
  17485312.465   -19486494.35249 -15177256.37149  17485313.7144   17485321.8874
  16364178.329   -32154991.47749 -24267400.33449  16364181.7344   16364186.6174
  14379211.948   -53299619.58249 -41498262.37249  14379215.9544   14379219.9754
  15230916.765   -38024166.16849 -29604230.32149  15230920.5994   15230925.8474
  15923572.639   -32770906.01149 -25514348.98149  15923575.0704   15923580.4614
 96  5 13 19 57 29.9790000  0  6  9  2  5  4 24  7
  14676293.932   -52060195.52749 -40137586.04649  14676296.7464   14676301.4144
  17484699.034   -19489719.45149 -15179769.51349  17484700.1494   17484708.4324
  16333623.612   -32315564.04949 -24392521.78249  16333625.6044   16333630.7704
  14361883.502   -53390683.24549 -41569221.06549  14361886.9184   14361891.1274
  15201193.116   -38180363.45849 -29725942.45949  15201196.8234   15201202.5664
  15921001.888   -32784410.80549 -25524872.22149  15921005.4924   15921010.0124
 96  5 13 19 57 59.9780000  0  6  9  2  5  4 24  7
  14660098.843   -52145302.56549 -40203903.22049  14660101.5884   14660106.2574
  17484121.960   -19492738.33849 -15182121.97749  17484125.7274   17484133.4824
  16303077.087   -32476082.07349 -24517600.72149  16303080.3654   16303085.3844
  14344662.795   -53481178.22749 -41639736.62449  14344666.1634   14344670.4894
  15171552.515   -38336127.53949 -29847317.03249  15171555.7964   15171561.1784
  15918446.178   -32797844.74849 -25535340.24249  15918449.2194   15918454.0624
 96  5 13 19 58 29.9780000  0  6  9  2  5  4 24  7
  14644037.004   -52229705.47549 -40269671.73249  14644040.1834   14644044.8844
  17483611.947   -19495417.36449 -15184209.62749  17483616.2184   17483623.5474
  16272571.926   -32636392.31249 -24642517.76049  16272573.9684   16272578.5384
  14327575.666   -53570973.81649 -41709707.20849  14327578.7344   14327583.0804
  15142017.156   -38491334.83049 -29968257.74849  15142020.9424   15142026.8704
  15915931.764   -32811055.49749 -25545634.35949  15915935.3204   15915940.1064
 96  5 13 19 58 59.9780000  0  6  9  2  5  4 24  7
  14628103.982   -52313435.25949 -40334915.72649  14628106.7704   14628111.5724
  17483161.211   -19497798.95349 -15186065.49849  17483163.0384   17483169.8634
  16242099.295   -32796524.02749 -24767295.68149  16242102.2034   16242106.6284
  14310615.712   -53660097.04149 -41779153.86449  14310619.1574   14310623.4624
  15112579.890   -38646027.25949 -30088797.26649  15112583.8824   15112589.1754
  15913455.132   -32824076.04249 -25555780.25549  15913457.9124   15913462.7264
 96  5 13 19 59 29.9780000  0  6  9  2  5  4 24  7
  14612274.071   -52396624.28049 -40399738.34449  14612276.6444   14612281.5274
  17482739.586   -19500009.34849 -15187787.97349  17482743.2014   17482750.3524
  16211636.612   -32956606.26649 -24892035.05649  16211638.9124   16211644.3134
  14293762.384   -53748661.84449 -41848165.38549  14293765.5394   14293770.3074
  15083216.809   -38800332.11249 -30209034.78249  15083220.5714   15083226.1174
  15910988.842   -32837035.24749 -25565878.36549  15910991.8644   15910997.0674
 96  5 13 19 59 59.9780000  0  6  9  2  5  4 24  7
  14596587.042   -52479057.80349 -40463972.26749  14596589.9464   14596594.7764
  17482394.929   -19501829.34449 -15189206.24349  17482396.5834   17482404.6964
  16181225.343   -33116416.08049 -25016562.14249  16181228.7944   16181233.1284
  14277059.670   -53836432.59349 -41916558.16249  14277063.7954   14277067.7304
  15053967.224   -38954044.24949 -30328810.44249  15053970.1364   15053975.4884
  15908576.031   -32849714.09949 -25575758.01749  15908578.5134   15908584.0964
 96  5 13 20  0 29.9780000  0  6  9  2  5  4 24  7
  14581020.554   -52560864.27049 -40527717.57449  14581023.1094   14581027.6354
  17482101.315   -19503368.20949 -15190405.44349  17482104.2624   17482111.1644
  16150843.848   -33276078.60849 -25140974.47049  16150845.3274   16150850.0404
  14260487.399   -53923523.09449 -41984420.87749  14260490.9264   14260494.9714
  15024805.186   -39107286.94049 -30448220.30649  15024808.9694   15024814.6464
  15906190.927   -32862248.31849 -25585524.97049  15906193.6554   15906199.1074
 96  5 13 20  0 59.9780000  0  6  9  2  5  4 24  7
  14565587.770   -52641962.70949 -40590911.16849  14565590.5134   14565595.2104
  17481877.880   -19504540.74349 -15191319.18249  17481881.4954   17481888.8424
  16120499.283   -33435535.88749 -25265226.85549  16120501.6334   16120506.6334
  14244058.190   -54009858.58249 -42051695.26249  14244061.9224   14244065.9044
  14995749.285   -39259978.16549 -30567200.44749  14995752.6464   14995758.3154
  15903847.838   -32874559.76049 -25595118.32149  15903850.4734   15903855.6134
 96  5 13 20  1 29.9780000  0  6  9  2  5  4 24  7
  14550290.682   -52722346.48049 -40653547.88149  14550293.9414   14550298.4284
  17481726.700   -19505337.11649 -15191939.82049  17481728.2224   17481736.7694
  16090196.476   -33594779.91449 -25389313.08049  16090198.5444   16090204.2914
  14227775.754   -54095420.80349 -42118367.10649  14227779.4514   14227783.8974
  14966801.732   -39412096.11849 -30685733.88549  14966805.6304   14966811.1904
  15901547.919   -32886645.50149 -25604535.81049  15901550.7134   15901555.9234
 96  5 13 20  1 59.9780000  0  6  9  2  5  4 24  7
  14535086.020   -52802248.64549 -40715809.31849  14535089.0484   14535093.4854
  17481601.681   -19505990.17049 -15192448.78149  17481605.3644   17481612.4564
  16059891.671   -33754031.35049 -25513405.07149  16059894.3684   16059899.2654
  14211598.227   -54180439.34749 -42184615.30649  14211601.1544   14211605.2254
  14937921.677   -39563866.49949 -30803996.49449  14937924.5474   14937930.4844
  15899248.592   -32898733.19249 -25613954.82349  15899251.0534   15899256.2524
 96  5 13 20  2 29.9780000  0  6  9  2  5  4 24  7
  14519956.598   -52881754.68149 -40777762.07849  14519959.3704   14519963.9524
  17481488.165   -19506599.87049 -15192923.96649  17481488.7224   17481496.8834
  16029568.461   -33913379.91649 -25637572.74049  16029571.6094   16029576.8234
  14195501.586   -54265022.45049 -42250524.19849  14195505.5924   14195509.9604
  14909090.354   -39715369.87449 -30922051.03649  14909094.7854   14909100.0634
  15896928.655   -32910918.13249 -25623449.60549  15896932.1554   15896936.7044
 96  5 13 20  2 59.9780000  0  6  9  2  5  4 24  7
  14504930.123   -52960718.95249 -40839292.69249  14504933.0084   14504937.6434
  17481403.735   -19507037.28649 -15193264.91349  17481406.1484   17481412.6834
  15999256.248   -34072674.27449 -25761698.19049  15999258.1664   15999263.7024
  14179517.180   -54349027.07649 -42315982.33249  14179520.0364   14179524.2064
  14880340.978   -39866454.66849 -31039779.43049  14880344.2914   14880349.5454
  15894617.775   -32923064.46649 -25632914.30649  15894620.8884   15894626.0904
 96  5 13 20  3 29.9780000  0  6  9  2  5  4 24  7
  14489934.884   -53039519.31749 -40900695.57449  14489937.7794   14489942.3624
  17481277.620   -19507697.63049 -15193779.55449  17481280.8264   17481288.7024
  15968886.907   -34232260.60149 -25886051.12749  15968890.0394   15968895.4574
  14163569.755   -54432828.36649 -42381282.01449  14163573.2934   14163577.4004
  14851602.001   -40017476.95949 -31157459.09749  14851605.5174   14851610.6234
  15892240.907   -32935559.45349 -25642650.68149  15892242.5664   15892247.9234
 96  5 13 20  3 59.9780000  0  6  9  2  5  4 24  7
  14475089.465   -53117533.05449 -40961485.51249  14475092.3144   14475096.9144
  17481226.808   -19507968.94749 -15193991.06649  17481228.9854   17481235.8264
  15938581.309   -34391520.86749 -26010150.00249  15938584.2454   15938588.9164
  14147773.204   -54515841.22049 -42445967.34249  14147776.5494   14147780.6334
  14822990.316   -40167830.60749 -31274617.75049  14822993.9794   14822999.6724
  15889913.566   -32947780.20749 -25652173.37049  15889917.3834   15889922.8514
 96  5 13 20  4 29.9780000  0  6  9  2  5  4 24  7
  14460334.650   -53195071.20449 -41021904.85649  14460337.3814   14460342.1544
  17481189.194   -19508163.71249 -15194142.93749  17481191.5824   17481199.5964
  15908279.153   -34550757.03549 -26134230.09849  15908282.1944   15908287.0454
  14132064.901   -54598387.04049 -42510288.74449  14132068.3694   14132072.6924
  14794448.093   -40317821.87349 -31391494.03249  14794451.6234   14794457.1844
  15887584.488   -32960029.29749 -25661718.13949  15887586.5684   15887592.1354
 96  5 13 20  4 59.9780000  0  6  9  2  5  4 24  7
  14445655.068   -53272213.47049 -41082015.73149  14445657.8744   14445662.4374
  17481156.965   -19508330.62949 -15194273.08149  17481160.0804   17481167.4184
  15877972.251   -34710023.85249 -26258334.09049  15877974.9104   15877979.0864
  14116434.050   -54680529.28849 -42574295.67949  14116437.0384   14116441.4844
  14765961.665   -40467520.59449 -31508142.35949  14765964.7954   14765970.7404
  15885236.245   -32972361.11049 -25671327.37249  15885240.4464   15885245.2424
 96  5 13 20  5 29.9780000  0  6  9  2  5  4 24  7
  14431141.051   -53348485.35949 -41141448.38049  14431143.6984   14431148.1754
  17481224.066   -19507982.54149 -15194001.94149  17481226.5534   17481233.9464
  15847745.717   -34868862.04749 -26382104.07849  15847748.7694   15847754.5804
  14100967.841   -54761804.48849 -42637626.98549  14100971.0834   14100975.1084
  14737616.768   -40616471.67249 -31624208.09849  14737620.3984   14737626.1874
  15882963.942   -32984308.01049 -25680636.67049  15882966.7734   15882972.0174
 96  5 13 20  5 59.9780000  0  6  9  2  5  4 24  7
  14416779.589   -53423953.66549 -41200254.86249  14416782.5194   14416786.8714
  17481382.576   -19507156.94249 -15193358.73049  17481383.9344   17481390.9294
  15817585.441   -35027360.65549 -26505609.46249  15817587.5334   15817592.0394
  14085655.267   -54842273.63449 -42700330.19949  14085658.2634   14085662.4704
  14709399.712   -40764753.56249 -31739752.39549  14709403.6174   14709408.6884
  15880751.245   -32995934.81649 -25689696.54649  15880754.1394   15880759.5364
 96  5 13 20  6 29.9780000  0  6  9  2  5  4 24  7
  14402508.201   -53498950.61949 -41258694.05749  14402511.2914   14402515.7014
  17481566.149   -19506179.78849 -15192597.40549  17481570.8614   17481576.5434
  15787425.054   -35185853.86349 -26629110.62749  15787427.5664   15787432.6024
  14070437.172   -54922245.16249 -42762645.66249  14070440.3814   14070444.3454
  14681248.730   -40912688.49249 -31855026.33749  14681252.0564   14681257.6024
  15878533.801   -33007586.69649 -25698775.95749  15878537.0374   15878542.2464
 96  5 13 20  6 59.9780000  0  6  9  2  5  4 24  7
  14388305.751   -53573584.66149 -41316850.45849  14388308.4474   14388313.2474
  17481757.018   -19505179.52449 -15191818.08849  17481759.9874   17481768.0514
  15757237.046   -35344489.71549 -26752722.94649  15757240.0684   15757244.9954
  14055290.398   -55001839.57949 -42824667.27549  14055293.9064   14055298.0174
  14653139.708   -41060401.62449 -31970127.44249  14653143.5064   14653148.9474
  15876284.771   -33019408.02849 -25707987.40749  15876287.4094   15876292.7794
 96  5 13 20  7 29.9770000  0  6  9  2  5  4 24  7
  14374228.856   -53647559.05249 -41374492.85449  14374231.9274   14374236.3194
  17482000.079   -19503896.25749 -15190818.25149  17482004.2034   17482010.3184
  15727074.280   -35502995.89049 -26876234.23349  15727077.1434   15727082.2824
  14040271.828   -55080765.88749 -42886168.29249  14040274.7874   14040278.9354
  14625127.604   -41207605.90749 -32084832.05049  14625131.3864   14625136.7394
  15874054.959   -33031126.20849 -25717118.48849  15874057.6594   15874062.7514
 96  5 13 20  7 59.9770000  0  6  9  2  5  4 24  7
  14360228.153   -53721133.31149 -41431823.45549  14360231.1744   14360235.5404
  17482249.369   -19502594.17449 -15189803.74949  17482251.2424   17482259.6194
  15696889.932   -35661618.66749 -26999836.35949  15696892.2494   15696896.6354
  14025333.088   -55159269.10249 -42947339.62449  14025336.0174   14025340.3464
  14597167.085   -41354539.62649 -32199325.82649  14597170.4834   14597175.9864
  15871801.968   -33042963.90249 -25726342.68849  15871804.5534   15871810.1414
 96  5 13 20  8 29.9770000  0  6  9  2  5  4 24  7
  14346320.212   -53794219.56749 -41488773.78949  14346322.8614   14346327.5744
  17482513.277   -19501211.98049 -15188726.82449  17482514.7524   17482521.2804
  15666702.282   -35820251.20749 -27123446.09949  15666705.4184   15666710.3874
  14010489.950   -55237269.09949 -43008118.83449  14010493.2794   14010497.3244
  14569277.960   -41501100.18349 -32313528.82349  14569280.9984   14569286.4974
  15869543.794   -33054830.84349 -25735589.67749  15869547.0634   15869551.7464
 96  5 13 20  8 59.9770000  0  6  9  2  5  4 24  7
  14332504.228   -53866823.84049 -41545348.55849  14332507.4544   14332511.7764
  17482790.469   -19499738.79349 -15187578.99849  17482795.5324   17482803.5504
  15636516.968   -35978877.95549 -27247051.33449  15636519.8394   15636524.3404
  13995744.925   -55314757.06749 -43068499.06349  13995747.5794   13995751.8624
  14541460.228   -41647279.11649 -32427434.45949  14541463.9054   14541469.9274
  15867283.468   -33066708.48249 -25744845.00949  15867285.9744   15867291.8274
 96  5 13 20  9 29.9770000  0  6  9  2  5  4 24  7
  14318782.001   -53938936.20149 -41601540.01949  14318784.5284   14318788.7844
  17483093.734   -19498145.35849 -15186337.46149  17483098.2014   17483105.8714
  15606339.451   -36137459.80449 -27370621.57249  15606342.7404   15606347.7974
  13981101.344   -55391705.78449 -43128459.09849  13981104.6894   13981108.6524
  14513721.055   -41793052.56349 -32541024.13049  14513724.3024   14513729.5764
  15865026.864   -33078565.72849 -25754084.45749  15865029.7374   15865035.1924
 96  5 13 20  9 59.9770000  0  6  9  2  5  4 24  7
  14305102.245   -54010823.41749 -41657556.03549  14305104.9264   14305109.7134
  17483373.933   -19496674.74649 -15185191.63749  17483377.0274   17483386.2314
  15576125.482   -36296239.28749 -27494345.81749  15576128.0234   15576132.0194
  13966511.151   -55468378.18049 -43188203.81549  13966514.3904   13966518.8914
  14486009.878   -41938673.90649 -32654495.28049  14486013.2434   14486019.1574
  15862724.341   -33090663.13049 -25763511.02449  15862727.6874   15862732.5994
 96  5 13 20 10 29.9770000  0  6  9  2  5  4 24  7
  14291518.613   -54082205.63549 -41713178.55249  14291521.2574   14291525.9814
  17483689.941   -19495031.01649 -15183910.92949  17483690.4044   17483699.6624
  15545926.989   -36454932.51449 -27618002.84349  15545929.2024   15545934.2814
  13952025.928   -55544497.58649 -43247517.62749  13952029.4874   13952033.8064
  14458379.456   -42083875.10249 -32767639.04149  14458382.1974   14458388.0984
  15860426.289   -33102741.96949 -25772923.12649  15860429.0814   15860434.8934
 96  5 13 20 10 59.9770000  0  6  9  2  5  4 24  7
  14278063.083   -54152913.53649 -41768275.62949  14278066.0294   14278070.6434
  17484069.726   -19493039.65149 -15182359.33049  17484070.4104   17484078.3334
  15515775.332   -36613379.47849 -27741467.98849  15515777.9084   15515782.3354
  13937677.991   -55619896.67949 -43306270.16549  13937681.4504   13937685.9964
  14430855.481   -42228509.84849 -32880341.42149  14430859.7384   14430865.0324
  15858160.920   -33114649.39449 -25782201.66649  15858163.5384   15858168.7204
 96  5 13 20 11 29.9770000  0  6  9  2  5  4 24  7
  14264702.805   -54223124.09849 -41822985.17249  14264705.5224   14264710.0564
  17484476.703   -19490884.94449 -15180680.45949  17484480.5994   17484487.9014
  15485635.951   -36771764.10549 -27864884.55249  15485638.2494   15485644.0994
  13923429.591   -55694771.68949 -43364614.32449  13923433.2194   13923437.5884
  14403407.066   -42372757.35349 -32992742.05449  14403409.8464   14403415.5304
  15855890.088   -33126583.24249 -25791500.80049  15855892.7914   15855897.5704
 96  5 13 20 11 59.9770000  0  6  9  2  5  4 24  7
  14251457.618   -54292727.91049 -41877221.91649  14251460.2874   14251465.0434
  17484941.919   -19488450.28849 -15178783.43849  17484943.2094   17484951.6994
  15455530.402   -36929968.07249 -27988160.34749  15455532.7344   15455537.5914
  13909302.171   -55769011.96949 -43422463.88049  13909305.7564   13909310.1654
  14376054.635   -42516492.38649 -33104743.35449  14376057.9994   14376063.6174
  15853634.877   -33138428.85349 -25800731.16649  15853638.4134   15853643.9454
 96  5 13 20 12 29.9770000  0  6  9  2  5  4 24  7
  14238317.395   -54361780.42449 -41931029.08649  14238320.0644   14238324.6114
  17485441.305   -19485809.66649 -15176725.92049  17485446.1504   17485453.1904
  15425446.925   -37088057.21649 -28111346.67549  15425449.6634   15425454.5494
  13895285.478   -55842671.51149 -43479860.91749  13895288.9164   13895293.0684
  14348790.279   -42659764.94949 -33216384.29549  14348794.1264   14348799.3994
  15851387.747   -33150245.58149 -25809939.03649  15851389.5374   15851395.4774
 96  5 13 20 12 59.9770000  0  6  9  2  5  4 24  7
  14225258.057   -54430407.32749 -41984504.60249  14225260.8014   14225265.2884
  17485962.146   -19483107.18049 -15174620.20649  17485960.9224   17485968.5364
  15395361.048   -37246159.33649 -28234543.10249  15395363.5604   15395368.4284
  13881357.638   -55915864.14449 -43536894.12149  13881360.7024   13881364.9134
  14321594.245   -42802684.05149 -33327749.80849  14321597.7644   14321603.0474
  15849120.796   -33162156.81949 -25819220.54049  15849123.3664   15849128.9744
 96  5 13 20 13 29.9770000  0  6  9  2  5  4 24  7
  14212330.231   -54498342.37649 -42037441.01449  14212332.9854   14212337.7774
  17486536.614   -19480069.55149 -15172253.32549  17486539.9214   17486545.7584
  15365326.160   -37403997.38249 -28357533.76249  15365328.2224   15365332.7424
  13867571.393   -55988310.91549 -43593346.13949  13867574.7864   13867578.7314
  14294520.523   -42944955.35649 -33438610.54349  14294524.2314   14294530.0384
  15846892.344   -33173866.77149 -25828345.19749  15846894.9854   15846900.6504
 96  5 13 20 13 59.9770000  0  6  9  2  5  4 24  7
  14199506.706   -54565731.29549 -42089951.87349  14199509.6964   14199514.1854
  17487145.322   -19476861.08049 -15169753.33449  17487149.9924   17487155.8194
  15335311.691   -37561719.19149 -28480433.85349  15335314.9994   15335319.0054
  13853900.752   -56060152.88949 -43649326.88849  13853903.4304   13853907.7874
  14267541.385   -43086734.33049 -33549087.64449  14267544.3634   14267550.3454
  15844678.289   -33185498.51149 -25837408.91649  15844682.2804   15844687.0624
 96  5 13 20 14 29.9770000  0  6  9  2  5  4 24  7
  14186808.872   -54632460.82149 -42141948.92249  14186811.2354   14186815.5864
  17487808.835   -19473388.75349 -15167047.73749  17487811.6214   17487816.5084
  15305341.697   -37719215.96549 -28603158.58549  15305344.1864   15305348.7454
  13840362.185   -56131293.60649 -43704761.21249  13840365.8464   13840369.9574
  14240673.115   -43227926.35849 -33659107.38649  14240676.6024   14240682.2394
  15842502.481   -33196940.10649 -25846324.47349  15842504.0674   15842510.2164
 96  5 13 20 14 59.9770000  0  6  9  2  5  4 24  7
  14174232.352   -54698550.66849 -42193447.51349  14174234.9524   14174239.4634
  17488517.079   -19469655.91749 -15164139.15649  17488521.9684   17488528.6214
  15275410.633   -37876501.63249 -28725718.82649  15275413.6984   15275418.1894
  13826951.163   -56201773.17149 -43759680.34649  13826954.2444   13826958.1704
  14213909.738   -43368570.82349 -33768700.45249  14213913.0494   14213918.6774
  15840358.909   -33208199.82949 -25855098.30849  15840361.7844   15840367.4924
 96  5 13 20 15 29.9770000  0  6  9  2  5  4 24  7
  14161687.738   -54764470.35549 -42244813.51749  14161690.5834   14161695.1554
  17489192.107   -19466122.57749 -15161386.04349  17489194.5774   17489201.6264
  15245431.623   -38034045.28649 -28848480.09749  15245434.1664   15245438.9624
  13813570.473   -56272085.91049 -43814469.49449  13813574.0104   13813578.0234
  14187156.836   -43509155.15749 -33878246.66649  14187160.5694   14187166.3824
  15838161.767   -33219746.66849 -25864095.86749  15838164.5984   15838169.7014
 96  5 13 20 15 59.9770000  0  6  9  2  5  4 24  7
  14149295.815   -54829593.11549 -42295558.53249  14149298.3964   14149302.8584
  17489941.200   -19462175.23049 -15158310.28849  17489945.8634   17489953.8254
  15215521.945   -38191221.28149 -28970954.86649  15215524.4814   15215529.0984
  13800339.498   -56341617.77349 -43868650.16249  13800342.6204   13800346.5144
  14160532.713   -43649065.85549 -33987267.96049  14160536.1324   14160541.7744
  15836021.214   -33230992.10049 -25872858.55849  15836024.8664   15836029.6704
 96  5 13 20 16 29.9770000  0  6  9  2  5  4 24  7
  14137087.461   -54893745.61949 -42345547.51349  14137090.2594   14137095.0784
  17490804.376   -19457632.41649 -15154770.56149  17490808.7444   17490819.0474
  15185713.508   -38347861.29749 -29093012.00349  15185716.2044   15185721.5084
  13787289.332   -56410196.11949 -43922087.83649  13787292.4094   13787296.5724
  14134070.676   -43788125.51849 -34095626.11949  14134074.1964   14134079.5534
  15833963.054   -33241808.48449 -25881286.94449  15833966.0234   15833972.4504
 96  5 13 20 16 59.9760000  0  6  9  2  5  4 24  7
  14124994.566   -54957296.35949 -42395067.58149  14124997.0114   14125001.8504
  17491715.834   -19452847.13049 -15151041.89849  17491719.3984   17491727.5114
  15155937.899   -38504338.13849 -29214941.98449  15155940.3044   15155945.4244
  13774352.095   -56478179.69549 -43975062.05249  13774355.5044   13774359.7324
  14107704.815   -43926681.34549 -34203591.67249  14107707.9014   14107713.4964
  15831912.687   -33252584.26949 -25889683.67949  15831915.7934   15831921.3034
 96  5 13 20 17 29.9760000  0  6  9  2  5  4 24  7
  14112993.489   -55020361.79149 -42444209.48849  14112996.3414   14113000.9694
  17492652.579   -19447938.74549 -15147217.30949  17492653.5704   17492662.9964
  15126167.311   -38660781.81849 -29336846.11749  15126170.5564   15126174.9084
  13761510.140   -56545664.78449 -44027647.83449  13761513.5144   13761517.8314
  14081418.573   -44064812.30949 -34311226.16549  14081422.3954   14081428.1204
  15829845.548   -33263450.07249 -25898150.57149  15829848.1694   15829853.7464
 96  5 13 20 17 59.9760000  0  5  9  5  4 24  7
  14101114.111   -55082788.64249 -42492853.80149  14101116.8984   14101121.4724
  15096432.329   -38817042.34149 -29458607.53449  15096434.0994   15096439.1114
  13748793.884   -56612488.10749 -44079717.95749  13748797.6144   13748801.4784
  14055247.695   -44202345.19649 -34418394.61949  14055250.5044   14055256.5274
  15827788.710   -33274257.52049 -25906571.98349  15827791.2574   15827796.9984
 96  5 13 20 18 29.9760000  0  5  9  5  4 24  7
  14089254.166   -55145112.12649 -42541417.56449  14089257.1354   14089261.5534
  15066628.659   -38973658.47549 -29580646.05449  15066631.6534   15066636.3324
  13736102.670   -56679181.30649 -44131686.67749  13736106.2424   13736110.4664
  14029089.110   -44339803.78049 -34525505.17849  14029093.0254   14029098.3914
  15825649.260   -33285499.65149 -25915332.11349  15825651.8864   15825658.6244
 96  5 13 20 18 59.9760000  0  5  9  5  4 24  7
  14077481.110   -55206980.48349 -42589626.67949  14077483.8654   14077488.2984
  15036827.314   -39130267.71249 -29702679.19349  15036829.8104   15036834.3774
  13723502.616   -56745396.06949 -44183282.58949  13723506.3474   13723510.0044
  14003014.260   -44476832.19849 -34632280.53549  14003017.4584   14003023.0374
  15823503.109   -33296779.94649 -25924121.98149  15823505.8704   15823511.1724
 96  5 13 20 19 29.9760000  0  5  9  5  4 24  7
  14065857.980   -55268061.58849 -42637222.36749  14065860.6884   14065865.2074
  15007090.342   -39286533.76249 -29824444.93249  15007093.5104   15007097.7324
  13711056.208   -56810803.07349 -44234249.08849  13711059.3214   13711063.5664
  13977077.465   -44613129.66049 -34738486.33349  13977080.9564   13977086.5794
  15821413.976   -33307758.44249 -25932676.68849  15821416.1924   15821421.8164
 96  5 13 20 19 59.9760000  0  5  9  5  4 24  7
  14054381.440   -55328371.81049 -42684217.35349  14054384.1494   14054388.6354
  14977418.116   -39442462.93349 -29945948.15349  14977420.8214   14977425.4214
  13698760.011   -56875421.76149 -44284601.30649  13698762.7984   13698767.1814
  13951270.500   -44748746.93149 -34844162.09749  13951273.8234   13951279.2824
  15819380.835   -33318441.03649 -25941000.82349  15819383.5864   15819389.5964
 96  5 13 20 20 29.9760000  0  5  9  5  4 24  7
  14042966.512   -55388356.63649 -42730958.79149  14042969.1094   14042973.6134
  14947728.506   -39598483.17749 -30067522.34249  14947730.9064   14947736.0734
  13686528.126   -56939699.34349 -44334687.73049  13686531.3174   13686535.3224
  13925508.015   -44884129.42849 -34949654.93049  13925511.4214   13925517.1074
  15817319.479   -33329269.98549 -25949438.99449  15817323.2874   15817328.5474
 96  5 13 20 20 59.9760000  0  5  9  5  4 24  7
  14031638.118   -55447886.20749 -42777345.48449  14031641.3054   14031645.6644
  14918049.998   -39754443.83049 -30189050.10549  14918052.8954   14918057.6514
  13674386.258   -57003503.95949 -44384405.60849  13674389.5624   13674393.7504
  13899814.435   -45019149.40949 -35054865.27449  13899818.0004   13899823.3224
  15815249.642   -33340148.55849 -25957915.83249  15815252.8634   15815258.3854
 96  5 13 20 21 29.9760000  0  5  9  5  4 24  7
  14020391.846   -55506987.40949 -42823398.38749  14020394.6414   14020399.4164
  14888378.418   -39910365.44049 -30310547.44349  14888381.5294   14888386.5634
  13662331.423   -57066853.50249 -44433768.88949  13662334.6184   13662338.9014
  13874187.781   -45153821.22149 -35159804.32349  13874190.8684   13874196.1934
  15813161.244   -33351120.67249 -25966465.56349  15813164.6724   15813170.7014
 96  5 13 20 21 59.9760000  0  5  9  5  4 24  7
  14009251.781   -55565530.33449 -42869016.27049  14009254.2834   14009258.8494
  14858743.405   -40066099.54249 -30431898.67449  14858746.5054   14858751.4614
  13650389.959   -57129606.70349 -44482667.49449  13650393.0774   13650397.4634
  13848659.779   -45287970.88149 -35264336.50249  13848663.1104   13848668.3774
  15811083.565   -33362043.54049 -25974976.92949  15811085.9754   15811092.4164
 96  5 13 20 22 29.9760000  0  5  9  5  4 24  7
  13998215.883   -55623522.43949 -42914204.93649  13998218.7924   13998223.4094
  14829148.226   -40221626.64849 -30553088.60849  14829150.6544   14829155.3644
  13638561.276   -57191767.05649 -44531104.13749  13638564.5054   13638568.3864
  13823234.329   -45421582.16049 -35368449.16049  13823237.7914   13823243.0774
  15809013.803   -33372921.70549 -25983453.46249  15809016.3954   15809022.4894
 96  5 13 20 22 59.9760000  0  5  9  5  4 24  7
  13987279.168   -55680995.79249 -42958989.37849  13987282.0504   13987286.4754
  14799584.835   -40376982.78049 -30674145.30849  14799587.9274   14799592.5084
  13626841.238   -57253357.28149 -44579096.52049  13626844.2254   13626848.0444
  13797906.373   -45554678.47949 -35472160.54249  13797910.1324   13797915.6944
  15806947.319   -33383781.14449 -25991915.39549  15806949.2314   15806955.0564
 96  5 13 20 23 29.9760000  0  5  9  5  4 24  7
  13976465.593   -55737821.96949 -43003269.53849  13976468.1574   13976472.8704
  14770076.608   -40532048.70649 -30794975.88349  14770079.3114   14770084.1054
  13615256.831   -57314233.00649 -44626532.16149  13615259.8384   13615263.9204
  13772706.308   -45687107.35549 -35575351.85049  13772709.9084   13772714.9124
  15804913.840   -33394467.90649 -26000242.79149  15804916.2914   15804922.4134
 96  5 13 20 23 59.9760000  0  5  9  5  4 24  7
  13965753.364   -55794113.51949 -43047133.09049  13965756.2324   13965760.7764
  14740605.336   -40686923.56749 -30915657.56449  14740607.7094   14740612.1074
  13603787.471   -57374505.79449 -44673497.97049  13603790.5104   13603794.4334
  13747611.169   -45818984.18049 -35678112.97249  13747614.4034   13747619.7074
  15802893.352   -33405082.96449 -26008514.29749  15802896.0034   15802901.2384
 96  5 13 20 24 29.9760000  0  5  9  5  4 24  7
  13955183.189   -55849661.29749 -43090417.09949  13955186.1184   13955190.9074
  14711203.948   -40841430.05049 -31036052.21049  14711206.5674   14711211.0604
  13592468.452   -57433986.06849 -44719846.24749  13592471.8884   13592475.8274
  13722653.651   -45950134.78249 -35780308.22549  13722657.2824   13722662.4054
  15800924.476   -33415435.05449 -26016580.90249  15800925.8594   15800932.2154
 96  5 13 20 24 59.9760000  0  5  9  5  4 24  7
  13944702.642   -55904733.61249 -43133330.60349  13944705.9994   13944710.5784
  14681810.534   -40995892.16149 -31156412.27549  14681813.5164   14681817.7394
  13581245.472   -57492962.42449 -44765801.84549  13581248.7504   13581252.9394
  13697779.042   -46080853.37449 -35882166.83749  13697782.3914   13697787.7134
  15798946.968   -33425817.77949 -26024671.37049  15798951.3334   15798956.6724
 96  5 13 20 25 29.9760000  0  5  9  5  4 24  7
  13934345.710   -55959164.13549 -43175744.01449  13934348.3794   13934352.9504
  14652456.260   -41150147.42249 -31276611.15549  14652458.9974   14652463.9054
  13570146.923   -57551284.88749 -44811247.91349  13570150.4994   13570154.3434
  13673014.062   -46210994.08649 -35983575.15249  13673017.4754   13673022.6414
  15796993.658   -33436083.41349 -26032670.59849  15796996.6154   15797002.2994
 96  5 13 20 25 59.9760000  0  5  9  5  4 24  7
  13924111.465   -56012944.42849 -43217650.75649  13924114.0734   13924118.6554
  14623140.986   -41304199.68249 -31396651.85949  14623143.5194   14623149.2904
  13559168.562   -57608977.65749 -44856203.31849  13559171.9194   13559176.1504
  13648354.104   -46340583.13149 -36084553.60649  13648357.4204   13648362.7674
  15795060.625   -33446251.32949 -26040593.68549  15795062.6114   15795067.6914
 96  5 13 20 26 29.9750000  0  5  9  5  4 24  7
  13913961.218   -56066281.32449 -43259211.99049  13913964.2564   13913969.1224
  14593821.882   -41458275.41049 -31516710.84849  14593824.4204   14593829.0094
  13548267.000   -57666266.43449 -44900843.92149  13548270.2494   13548274.3124
  13623760.451   -46469824.89749 -36185261.45049  13623763.3114   13623768.7004
  15793100.247   -33456545.78149 -26048615.36949  15793103.3594   15793109.0104
 96  5 13 20 26 59.9750000  0  5  9  5  4 24  7
  13903909.890   -56119106.03549 -43300374.12649  13903912.3394   13903917.0634
  14564517.528   -41612269.35949 -31636706.11549  14564520.1744   14564524.9014
  13537458.141   -57723067.40649 -44945104.42549  13537461.1604   13537465.5314
  13599250.062   -46598622.90549 -36285623.51449  13599253.9414   13599259.2294
  15791137.432   -33466867.28949 -26056658.13649  15791139.3994   15791144.4794
 96  5 13 20 27 29.9750000  0  5  9  5  4 24  7
  13893965.962   -56171360.98149 -43341092.27749  13893968.5294   13893973.3874
  14535252.382   -41766060.93549 -31756543.69249  14535254.7304   14535259.2664
  13526757.216   -57779300.74849 -44988922.60949  13526760.2944   13526764.5084
  13574843.695   -46726880.58649 -36385564.53549  13574847.0314   13574852.4664
  15789185.184   -33477121.54549 -26064648.49349  15789187.6244   15789193.7654
 96  5 13 20 27 59.9750000  0  5  9  5  4 24  7
  13884133.613   -56223031.06149 -43381354.69149  13884136.1104   13884140.9164
  14506030.079   -41919623.62249 -31876202.90549  14506033.0974   14506037.6844
  13516169.551   -57834938.48549 -45032276.68849  13516172.8284   13516176.9654
  13550545.968   -46854567.59349 -36485060.87949  13550549.3424   13550554.5594
  15787251.791   -33487277.06749 -26072561.92249  15787255.4774   15787260.8224
 96  5 13 20 28 29.9750000  0  5  9  5  4 24  7
  13874405.181   -56274152.86249 -43421189.88649  13874408.0444   13874412.7394
  14476848.513   -42072974.48049 -31995697.06349  14476850.8264   14476855.9024
  13505691.518   -57890002.02349 -45075183.34949  13505694.7584   13505698.7554
  13526351.861   -46981707.24449 -36584130.72149  13526355.2324   13526360.6444
  15785335.244   -33497356.26049 -26080415.86149  15785337.0724   15785343.2294
 96  5 13 20 28 59.9750000  0  5  9  5  4 24  7
  13864774.101   -56324765.30349 -43460628.16749  13864776.9564   13864781.3544
  14447700.866   -42226145.94449 -32115051.43149  14447703.4294   14447707.8434
  13495316.558   -57944522.83349 -45117667.10149  13495319.8754   13495323.9054
  13502254.906   -47108338.77749 -36682804.62049  13502258.2424   13502263.2564
  15783422.532   -33507404.31749 -26088245.54249  15783425.3934   15783430.8484
 96  5 13 20 29 29.9750000  0  5  9  5  4 24  7
  13855252.571   -56374800.69349 -43499616.79849  13855255.4144   13855259.9794
  14418596.852   -42379086.91049 -32234226.19049  14418599.5314   14418604.0464
  13485056.043   -57998439.50849 -45159680.09549  13485059.6064   13485063.8434
  13478264.326   -47234409.85649 -36781041.80149  13478267.9774   13478272.6384
  15781525.441   -33517374.74949 -26096014.72649  15781528.5254   15781533.6554
 96  5 13 20 29 59.9750000  0  5  9  5  4 24  7
  13845818.917   -56424375.06449 -43538246.19249  13845821.5994   13845826.6434
  14389511.484   -42531932.09549 -32353326.30349  14389514.0234   14389518.5864
  13474885.025   -58051892.26649 -45201331.58949  13474888.0664   13474892.0944
  13454354.749   -47360056.06649 -36878947.90949  13454358.0504   13454362.9854
  15779615.734   -33527408.86549 -26103833.55149  15779618.5154   15779624.0314
 96  5 13 20 30 29.9750000  0  5  9  5  4 24  7
  13836515.481   -56473264.74949 -43576342.07649  13836518.1614   13836522.8664
  14360488.986   -42684444.78449 -32472167.35149  14360492.4004   14360496.7564
  13464842.557   -58104662.96549 -45242451.62449  13464846.0104   13464850.2164
  13430569.534   -47485046.19849 -36976342.80549  13430573.0224   13430577.9504
  15777736.772   -33537281.40949 -26111526.47749  15777741.2574   15777744.8554
 96  5 13 20 30 59.9750000  0  5  9  5  4 24  7
  13827275.140   -56521823.05749 -43614179.73449  13827277.8794   13827282.9984
  14331465.832   -42836961.91849 -32591011.84349  14331468.7994   14331472.9754
  13454865.227   -58157096.49049 -45283308.90949  13454868.1794   13454872.3164
  13406845.733   -47609712.19049 -37073485.10849  13406849.7554   13406855.0864
  15775827.675   -33547319.99249 -26119348.77849  15775829.2314   15775834.9254
 96  5 13 20 31 29.9750000  0  5  9  5  4 24  7
  13818141.479   -56569821.89749 -43651581.44749  13818144.2944   13818148.9994
  14302490.637   -42989231.42049 -32709663.38049  14302492.9794   14302497.7064
  13444995.462   -58208957.37049 -45323719.97849  13444999.3644   13445003.6374
  13383230.563   -47733815.33749 -37170188.83649  13383233.5094   13383238.6144
  15773932.393   -33557273.75049 -26127104.97149  15773935.7994   15773941.9024
 96  5 13 20 31 59.9750000  0  5  9  5  4 24  7
  13809119.961   -56617230.35949 -43688523.13749  13809122.9674   13809127.4784
  14273567.949   -43141218.19649 -32828094.62249  14273570.9414   14273575.2664
  13435244.993   -58260201.52949 -45363650.49849  13435248.1404   13435252.3234
  13359729.464   -47857311.88249 -37266419.89549  13359733.3514   13359738.5704
  15772063.305   -33567097.04649 -26134759.53549  15772066.8044   15772072.6304
 96  5 13 20 32 29.9750000  0  5  9  5  4 24  7
  13800203.980   -56664083.07349 -43725031.76349  13800206.8214   13800211.6534
  14244692.708   -43292958.02049 -32946333.41749  14244695.4324   14244700.5254
  13425608.150   -58310844.47149 -45403112.52449  13425611.1764   13425615.3514
  13336341.234   -47980221.27049 -37362193.42149  13336344.3024   13336349.4494
  15770215.606   -33576812.08749 -26142329.73249  15770218.3604   15770223.2544
 96  5 13 20 32 59.9750000  0  5  9  5  4 24  7
  13791387.882   -56710411.25049 -43761131.65549  13791390.9574   13791395.6244
  14215853.612   -43444510.28249 -33064426.07049  14215856.0974   14215860.9554
  13416076.963   -58360930.71749 -45442140.76249  13416079.9674   13416084.3014
  13313054.785   -48102590.44849 -37457545.99849  13313058.3084   13313063.5474
  15768376.268   -33586471.48349 -26149856.56149  15768380.4164   15768385.1744
 96  5 13 20 33 29.9750000  0  5  9  5  4 24  7
  13782676.983   -56756188.45349 -43796802.22649  13782679.7474   13782684.3824
  14187051.630   -43595866.73349 -33182366.14649  14187053.9224   14187058.4294
  13406653.865   -58410449.13749 -45480726.54549  13406656.9164   13406661.0104
  13289872.689   -48224413.39049 -37552472.94749  13289875.9944   13289881.2844
  15766548.265   -33596083.48749 -26157346.46449  15766550.1674   15766556.5174
 96  5 13 20 33 59.9750000  0  5  9  5  4 24  7
  13774056.900   -56801488.02149 -43832100.61549  13774059.6224   13774064.4274
  14158270.500   -43747111.33749 -33300219.06549  14158273.1724   14158277.7644
  13397323.702   -58459479.08949 -45518931.70149  13397326.9134   13397330.9984
  13266779.733   -48345766.97849 -37647034.16049  13266783.0684   13266788.4024
  15764711.153   -33605736.41449 -26164868.26549  15764713.7004   15764719.2604
 96  5 13 20 34 29.9750000  0  5  9  5  4 24  7
  13765562.152   -56846131.43249 -43866887.71549  13765564.4764   13765569.0794
  14129545.437   -43898063.32849 -33417843.98349  14129548.0884   14129552.7994
  13388115.449   -58507867.95549 -45556637.31749  13388118.6694   13388122.8854
  13243808.959   -48466476.68749 -37741093.65749  13243812.6564   13243818.1284
  15762897.693   -33615268.64549 -26172296.02849  15762900.6684   15762906.1124
 96  5 13 20 34 59.9750000  0  5  9  5  4 24  7
  13757150.328   -56890332.35549 -43901330.01249  13757153.1214   13757157.8974
  14100837.969   -44048920.31549 -33535394.85849  14100840.1554   14100845.3504
  13378988.124   -58555830.11849 -45594010.42349  13378991.7514   13378996.0234
  13220922.002   -48586750.25349 -37834813.29549  13220925.4244   13220930.5814
  15761067.588   -33624888.98249 -26179792.42349  15761070.0464   15761075.2194
 96  5 13 20 35 29.9750000  0  5  9  5  4 24  7
  13748819.083   -56934111.55949 -43935443.69549  13748822.3314   13748827.0694
  14072151.518   -44199669.23649 -33652861.52149  14072154.2404   14072158.6514
  13369942.946   -58603364.39049 -45631050.11149  13369946.4454   13369950.5044
  13198118.687   -48706583.28849 -37928189.65749  13198122.1904   13198127.4694
  15759219.108   -33634592.68249 -26187353.79049  15759222.5434   15759228.7134
